<?xml version='1.0' encoding='UTF-8'?><gpx version="1.1" creator="JPX - https://github.com/jenetics/jpx" xmlns="http://www.topografix.com/GPX/1/1"><trk><trkseg><trkpt lat="56.030855922551794" lon="22.193319294917128"><ele>154.0</ele><time>2026-05-03T14:16:26Z</time></trkpt><trkpt lat="56.03078470433796" lon="22.193338918347965"><ele>154.0</ele><time>2026-05-03T14:16:31Z</time></trkpt><trkpt lat="56.03075083597516" lon="22.19320659281366"><ele>154.0</ele><time>2026-05-03T14:16:37Z</time></trkpt><trkpt lat="56.03075835779211" lon="22.193051896000085"><ele>154.0</ele><time>2026-05-03T14:16:39Z</time></trkpt><trkpt lat="56.03075602064654" lon="22.19286481310056"><ele>154.0</ele><time>2026-05-03T14:16:41Z</time></trkpt><trkpt lat="56.030763276964066" lon="22.192676978174458"><ele>154.0</ele><time>2026-05-03T14:16:42Z</time></trkpt><trkpt lat="56.03077196384372" lon="22.192460247012235"><ele>154.0</ele><time>2026-05-03T14:16:43Z</time></trkpt><trkpt lat="56.03078007689719" lon="22.192272881282534"><ele>154.0</ele><time>2026-05-03T14:16:45Z</time></trkpt><trkpt lat="56.03078132330019" lon="22.192033837506287"><ele>154.0</ele><time>2026-05-03T14:16:47Z</time></trkpt><trkpt lat="56.030760961196236" lon="22.191823463405033"><ele>154.0</ele><time>2026-05-03T14:16:48Z</time></trkpt><trkpt lat="56.03077962634799" lon="22.191698319918604"><ele>154.0</ele><time>2026-05-03T14:16:49Z</time></trkpt><trkpt lat="56.03079191801994" lon="22.191568785073404"><ele>154.0</ele><time>2026-05-03T14:16:51Z</time></trkpt><trkpt lat="56.030809558694145" lon="22.191416776537437"><ele>154.0</ele><time>2026-05-03T14:16:54Z</time></trkpt><trkpt lat="56.03080851389268" lon="22.191243610087753"><ele>154.0</ele><time>2026-05-03T14:16:57Z</time></trkpt><trkpt lat="56.03073343873492" lon="22.191110732023745"><ele>154.0</ele><time>2026-05-03T14:17:00Z</time></trkpt><trkpt lat="56.030604666052525" lon="22.19107443726806"><ele>153.75</ele><time>2026-05-03T14:17:02Z</time></trkpt><trkpt lat="56.03048301232124" lon="22.191039655732602"><ele>153.5</ele><time>2026-05-03T14:17:03Z</time></trkpt><trkpt lat="56.03034071417559" lon="22.19101141544541"><ele>153.25</ele><time>2026-05-03T14:17:04Z</time></trkpt><trkpt lat="56.03017433226068" lon="22.190945848304743"><ele>153.0</ele><time>2026-05-03T14:17:05Z</time></trkpt><trkpt lat="56.03006366545077" lon="22.19091062935047"><ele>153.0</ele><time>2026-05-03T14:17:06Z</time></trkpt><trkpt lat="56.02998214833541" lon="22.190879777180143"><ele>153.0</ele><time>2026-05-03T14:17:07Z</time></trkpt><trkpt lat="56.02991374158699" lon="22.1908572460313"><ele>153.0</ele><time>2026-05-03T14:17:08Z</time></trkpt><trkpt lat="56.029809382836305" lon="22.19082326746529"><ele>153.0</ele><time>2026-05-03T14:17:10Z</time></trkpt><trkpt lat="56.029707793937185" lon="22.190784169945218"><ele>153.0</ele><time>2026-05-03T14:17:12Z</time></trkpt><trkpt lat="56.02964074278153" lon="22.190764751485254"><ele>153.0</ele><time>2026-05-03T14:17:13Z</time></trkpt><trkpt lat="56.029576844354885" lon="22.190750775630427"><ele>152.6</ele><time>2026-05-03T14:17:14Z</time></trkpt><trkpt lat="56.029462853443455" lon="22.190724913520977"><ele>152.20000000000002</ele><time>2026-05-03T14:17:16Z</time></trkpt><trkpt lat="56.029378039109865" lon="22.190704681756124"><ele>151.8</ele><time>2026-05-03T14:17:18Z</time></trkpt><trkpt lat="56.02931385590551" lon="22.19068202157979"><ele>151.4</ele><time>2026-05-03T14:17:21Z</time></trkpt><trkpt lat="56.02933956524942" lon="22.190474277205638"><ele>151.0</ele><time>2026-05-03T14:17:24Z</time></trkpt><trkpt lat="56.0293791848202" lon="22.190366583211542"><ele>150.66666666666669</ele><time>2026-05-03T14:17:27Z</time></trkpt><trkpt lat="56.02941519111472" lon="22.190256662981817"><ele>150.33333333333334</ele><time>2026-05-03T14:17:30Z</time></trkpt><trkpt lat="56.02945744917765" lon="22.190123501382335"><ele>150.0</ele><time>2026-05-03T14:17:33Z</time></trkpt><trkpt lat="56.029500115151166" lon="22.189983922185938"><ele>149.66666666666666</ele><time>2026-05-03T14:17:36Z</time></trkpt><trkpt lat="56.029535336137485" lon="22.189869495397335"><ele>149.33333333333331</ele><time>2026-05-03T14:17:38Z</time></trkpt><trkpt lat="56.02957388651722" lon="22.189750347221565"><ele>149.0</ele><time>2026-05-03T14:17:40Z</time></trkpt><trkpt lat="56.029615067284205" lon="22.189644100608007"><ele>149.0</ele><time>2026-05-03T14:17:42Z</time></trkpt><trkpt lat="56.029659226571574" lon="22.18949369820349"><ele>149.0</ele><time>2026-05-03T14:17:44Z</time></trkpt><trkpt lat="56.02970448686397" lon="22.18934656476734"><ele>149.0</ele><time>2026-05-03T14:17:46Z</time></trkpt><trkpt lat="56.029752427340185" lon="22.189203101510763"><ele>149.0</ele><time>2026-05-03T14:17:48Z</time></trkpt><trkpt lat="56.029809568149396" lon="22.189041806221006"><ele>149.0</ele><time>2026-05-03T14:17:50Z</time></trkpt><trkpt lat="56.029862860905006" lon="22.188876862779626"><ele>149.16666666666666</ele><time>2026-05-03T14:17:52Z</time></trkpt><trkpt lat="56.029929120895865" lon="22.188734424673676"><ele>149.33333333333331</ele><time>2026-05-03T14:17:54Z</time></trkpt><trkpt lat="56.02996340154669" lon="22.18863216428411"><ele>149.5</ele><time>2026-05-03T14:17:55Z</time></trkpt><trkpt lat="56.03000541969239" lon="22.18850682266971"><ele>149.66666666666666</ele><time>2026-05-03T14:17:56Z</time></trkpt><trkpt lat="56.03004690487542" lon="22.18838307090765"><ele>149.83333333333334</ele><time>2026-05-03T14:17:57Z</time></trkpt><trkpt lat="56.03009273650576" lon="22.188246353534403"><ele>150.0</ele><time>2026-05-03T14:17:58Z</time></trkpt><trkpt lat="56.0301348197834" lon="22.188120817638993"><ele>150.5</ele><time>2026-05-03T14:17:59Z</time></trkpt><trkpt lat="56.03017606725682" lon="22.188000125897968"><ele>151.0</ele><time>2026-05-03T14:18:00Z</time></trkpt><trkpt lat="56.030217714651386" lon="22.18787646611712"><ele>151.5</ele><time>2026-05-03T14:18:01Z</time></trkpt><trkpt lat="56.03025699892136" lon="22.187753928095894"><ele>152.0</ele><time>2026-05-03T14:18:02Z</time></trkpt><trkpt lat="56.030295560432506" lon="22.187635642634817"><ele>152.5</ele><time>2026-05-03T14:18:03Z</time></trkpt><trkpt lat="56.030334262267" lon="22.187515434491832"><ele>153.0</ele><time>2026-05-03T14:18:04Z</time></trkpt><trkpt lat="56.03035714538547" lon="22.187390698151564"><ele>153.33333333333334</ele><time>2026-05-03T14:18:05Z</time></trkpt><trkpt lat="56.030399223253525" lon="22.187269179544934"><ele>153.66666666666666</ele><time>2026-05-03T14:18:06Z</time></trkpt><trkpt lat="56.03043771076524" lon="22.1871477930631"><ele>154.0</ele><time>2026-05-03T14:18:07Z</time></trkpt><trkpt lat="56.030482340321896" lon="22.18703657649499"><ele>154.33333333333331</ele><time>2026-05-03T14:18:08Z</time></trkpt><trkpt lat="56.03052656739103" lon="22.186908762931004"><ele>154.66666666666666</ele><time>2026-05-03T14:18:09Z</time></trkpt><trkpt lat="56.0305619975236" lon="22.18679031710551"><ele>155.0</ele><time>2026-05-03T14:18:10Z</time></trkpt><trkpt lat="56.03060063288956" lon="22.186668934454914"><ele>155.0</ele><time>2026-05-03T14:18:11Z</time></trkpt><trkpt lat="56.030644619971035" lon="22.18654234936367"><ele>155.0</ele><time>2026-05-03T14:18:12Z</time></trkpt><trkpt lat="56.030688730340074" lon="22.186408755240585"><ele>155.0</ele><time>2026-05-03T14:18:13Z</time></trkpt><trkpt lat="56.03073159468326" lon="22.186278294561035"><ele>155.0</ele><time>2026-05-03T14:18:14Z</time></trkpt><trkpt lat="56.030767976513594" lon="22.186158369217797"><ele>155.0</ele><time>2026-05-03T14:18:15Z</time></trkpt><trkpt lat="56.030813452942965" lon="22.186028866255096"><ele>155.0</ele><time>2026-05-03T14:18:16Z</time></trkpt><trkpt lat="56.0308528110292" lon="22.185908147363442"><ele>154.83333333333331</ele><time>2026-05-03T14:18:17Z</time></trkpt><trkpt lat="56.030891854384514" lon="22.185783865802033"><ele>154.66666666666666</ele><time>2026-05-03T14:18:18Z</time></trkpt><trkpt lat="56.03093033712247" lon="22.18565485342275"><ele>154.5</ele><time>2026-05-03T14:18:19Z</time></trkpt><trkpt lat="56.03097081243269" lon="22.1855166085706"><ele>154.33333333333334</ele><time>2026-05-03T14:18:20Z</time></trkpt><trkpt lat="56.03100840203397" lon="22.185391906211667"><ele>154.16666666666669</ele><time>2026-05-03T14:18:21Z</time></trkpt><trkpt lat="56.03105251909232" lon="22.185265757894417"><ele>154.0</ele><time>2026-05-03T14:18:22Z</time></trkpt><trkpt lat="56.03109770214056" lon="22.18513140077351"><ele>153.6</ele><time>2026-05-03T14:18:23Z</time></trkpt><trkpt lat="56.03113757179708" lon="22.18499687700994"><ele>153.2</ele><time>2026-05-03T14:18:24Z</time></trkpt><trkpt lat="56.03118079173165" lon="22.18485546649961"><ele>152.79999999999998</ele><time>2026-05-03T14:18:25Z</time></trkpt><trkpt lat="56.03122485245602" lon="22.184715488786768"><ele>152.4</ele><time>2026-05-03T14:18:26Z</time></trkpt><trkpt lat="56.03127293490912" lon="22.184558221761186"><ele>152.0</ele><time>2026-05-03T14:18:27Z</time></trkpt><trkpt lat="56.0313226174673" lon="22.184401334033364"><ele>151.2</ele><time>2026-05-03T14:18:28Z</time></trkpt><trkpt lat="56.03136804525561" lon="22.184253582270156"><ele>150.39999999999998</ele><time>2026-05-03T14:18:29Z</time></trkpt><trkpt lat="56.03141218888795" lon="22.18410654465536"><ele>149.60000000000002</ele><time>2026-05-03T14:18:30Z</time></trkpt><trkpt lat="56.03145839581391" lon="22.1839581418785"><ele>148.8</ele><time>2026-05-03T14:18:31Z</time></trkpt><trkpt lat="56.03150634396886" lon="22.183806827939186"><ele>148.0</ele><time>2026-05-03T14:18:32Z</time></trkpt><trkpt lat="56.031556819731264" lon="22.183651887388542"><ele>147.6</ele><time>2026-05-03T14:18:33Z</time></trkpt><trkpt lat="56.031604438821866" lon="22.18349596705562"><ele>147.20000000000002</ele><time>2026-05-03T14:18:34Z</time></trkpt><trkpt lat="56.03165704193362" lon="22.183333678316796"><ele>146.8</ele><time>2026-05-03T14:18:35Z</time></trkpt><trkpt lat="56.03170787369516" lon="22.183173710899347"><ele>146.4</ele><time>2026-05-03T14:18:36Z</time></trkpt><trkpt lat="56.031759115374115" lon="22.18301790175173"><ele>146.0</ele><time>2026-05-03T14:18:37Z</time></trkpt><trkpt lat="56.03180128125133" lon="22.182889256157086"><ele>145.6</ele><time>2026-05-03T14:18:38Z</time></trkpt><trkpt lat="56.031849106653056" lon="22.1827431276694"><ele>145.2</ele><time>2026-05-03T14:18:39Z</time></trkpt><trkpt lat="56.031894385440104" lon="22.182598109600423"><ele>144.8</ele><time>2026-05-03T14:18:40Z</time></trkpt><trkpt lat="56.03193651017151" lon="22.182457760634104"><ele>144.4</ele><time>2026-05-03T14:18:41Z</time></trkpt><trkpt lat="56.03198656191374" lon="22.18230023492846"><ele>144.0</ele><time>2026-05-03T14:18:42Z</time></trkpt><trkpt lat="56.0320399485227" lon="22.182143835338444"><ele>144.0</ele><time>2026-05-03T14:18:43Z</time></trkpt><trkpt lat="56.03208592481163" lon="22.18200767685841"><ele>144.0</ele><time>2026-05-03T14:18:44Z</time></trkpt><trkpt lat="56.032128964465265" lon="22.181872484326355"><ele>144.0</ele><time>2026-05-03T14:18:45Z</time></trkpt><trkpt lat="56.03216708480363" lon="22.18174170942091"><ele>144.0</ele><time>2026-05-03T14:18:46Z</time></trkpt><trkpt lat="56.03220663522471" lon="22.18160623020323"><ele>144.0</ele><time>2026-05-03T14:18:47Z</time></trkpt><trkpt lat="56.03224908789158" lon="22.181465642862914"><ele>144.0</ele><time>2026-05-03T14:18:48Z</time></trkpt><trkpt lat="56.03229092249675" lon="22.181332718482214"><ele>144.16666666666666</ele><time>2026-05-03T14:18:49Z</time></trkpt><trkpt lat="56.03233505906126" lon="22.18118987025027"><ele>144.33333333333334</ele><time>2026-05-03T14:18:50Z</time></trkpt><trkpt lat="56.03237655630844" lon="22.18104459228737"><ele>144.5</ele><time>2026-05-03T14:18:51Z</time></trkpt><trkpt lat="56.03242226578756" lon="22.18088894686665"><ele>144.66666666666669</ele><time>2026-05-03T14:18:52Z</time></trkpt><trkpt lat="56.03246587382479" lon="22.180745322671758"><ele>144.83333333333334</ele><time>2026-05-03T14:18:53Z</time></trkpt><trkpt lat="56.03250235378135" lon="22.18063135936829"><ele>145.0</ele><time>2026-05-03T14:18:54Z</time></trkpt><trkpt lat="56.03253826452003" lon="22.18051313073314"><ele>145.16666666666669</ele><time>2026-05-03T14:18:55Z</time></trkpt><trkpt lat="56.03258001671365" lon="22.180381205149605"><ele>145.33333333333334</ele><time>2026-05-03T14:18:56Z</time></trkpt><trkpt lat="56.03262075494248" lon="22.18023999633988"><ele>145.5</ele><time>2026-05-03T14:18:57Z</time></trkpt><trkpt lat="56.03266691000518" lon="22.18008367840136"><ele>145.66666666666666</ele><time>2026-05-03T14:18:58Z</time></trkpt><trkpt lat="56.03270735495304" lon="22.179959239103177"><ele>145.83333333333331</ele><time>2026-05-03T14:18:59Z</time></trkpt><trkpt lat="56.03275547757209" lon="22.1798167918455"><ele>146.0</ele><time>2026-05-03T14:19:00Z</time></trkpt><trkpt lat="56.03279954678941" lon="22.179686555961325"><ele>145.66666666666666</ele><time>2026-05-03T14:19:01Z</time></trkpt><trkpt lat="56.032842249933275" lon="22.17955175337833"><ele>145.33333333333331</ele><time>2026-05-03T14:19:02Z</time></trkpt><trkpt lat="56.032887850668445" lon="22.17941106568557"><ele>145.0</ele><time>2026-05-03T14:19:03Z</time></trkpt><trkpt lat="56.03293784416262" lon="22.179266331057384"><ele>144.66666666666666</ele><time>2026-05-03T14:19:04Z</time></trkpt><trkpt lat="56.032983648107844" lon="22.17914450132596"><ele>144.33333333333334</ele><time>2026-05-03T14:19:05Z</time></trkpt><trkpt lat="56.033027499659255" lon="22.179015333697222"><ele>144.0</ele><time>2026-05-03T14:19:06Z</time></trkpt><trkpt lat="56.03307093487187" lon="22.17888125688876"><ele>144.0</ele><time>2026-05-03T14:19:07Z</time></trkpt><trkpt lat="56.03312038546073" lon="22.17874811269931"><ele>144.0</ele><time>2026-05-03T14:19:08Z</time></trkpt><trkpt lat="56.033164266964604" lon="22.17862105271218"><ele>144.0</ele><time>2026-05-03T14:19:09Z</time></trkpt><trkpt lat="56.03321610011634" lon="22.17849029324455"><ele>144.0</ele><time>2026-05-03T14:19:10Z</time></trkpt><trkpt lat="56.033264173773816" lon="22.178363296258954"><ele>144.0</ele><time>2026-05-03T14:19:11Z</time></trkpt><trkpt lat="56.03330747353563" lon="22.17824328410697"><ele>144.0</ele><time>2026-05-03T14:19:12Z</time></trkpt><trkpt lat="56.03334941741656" lon="22.178131844622644"><ele>144.0</ele><time>2026-05-03T14:19:13Z</time></trkpt><trkpt lat="56.03338774996412" lon="22.178010960299726"><ele>144.0</ele><time>2026-05-03T14:19:14Z</time></trkpt><trkpt lat="56.03343191660107" lon="22.1778961538009"><ele>144.0</ele><time>2026-05-03T14:19:15Z</time></trkpt><trkpt lat="56.03346767467837" lon="22.177792044696776"><ele>144.0</ele><time>2026-05-03T14:19:16Z</time></trkpt><trkpt lat="56.03352414388611" lon="22.177659870869032"><ele>144.0</ele><time>2026-05-03T14:19:17Z</time></trkpt><trkpt lat="56.03356887414357" lon="22.17753795646375"><ele>144.0</ele><time>2026-05-03T14:19:18Z</time></trkpt><trkpt lat="56.03361264179984" lon="22.17740548325694"><ele>143.83333333333334</ele><time>2026-05-03T14:19:19Z</time></trkpt><trkpt lat="56.033656372943874" lon="22.177283124102285"><ele>143.66666666666666</ele><time>2026-05-03T14:19:20Z</time></trkpt><trkpt lat="56.03370515645619" lon="22.17715137731384"><ele>143.5</ele><time>2026-05-03T14:19:21Z</time></trkpt><trkpt lat="56.03374995079598" lon="22.177027780432606"><ele>143.33333333333331</ele><time>2026-05-03T14:19:22Z</time></trkpt><trkpt lat="56.03379448112336" lon="22.176897057038417"><ele>143.16666666666666</ele><time>2026-05-03T14:19:23Z</time></trkpt><trkpt lat="56.033839367783195" lon="22.17677308980887"><ele>143.0</ele><time>2026-05-03T14:19:24Z</time></trkpt><trkpt lat="56.03388312145007" lon="22.176650281916583"><ele>143.0</ele><time>2026-05-03T14:19:25Z</time></trkpt><trkpt lat="56.03392898965883" lon="22.17652308974535"><ele>143.0</ele><time>2026-05-03T14:19:26Z</time></trkpt><trkpt lat="56.03396984184353" lon="22.176397285948315"><ele>143.0</ele><time>2026-05-03T14:19:27Z</time></trkpt><trkpt lat="56.034010585918466" lon="22.176260057544848"><ele>143.0</ele><time>2026-05-03T14:19:28Z</time></trkpt><trkpt lat="56.03405415872715" lon="22.176113223929303"><ele>143.0</ele><time>2026-05-03T14:19:29Z</time></trkpt><trkpt lat="56.03409980287412" lon="22.175960134684487"><ele>143.0</ele><time>2026-05-03T14:19:30Z</time></trkpt><trkpt lat="56.03414148063161" lon="22.175803697699408"><ele>142.66666666666666</ele><time>2026-05-03T14:19:31Z</time></trkpt><trkpt lat="56.03419632582659" lon="22.175668482586016"><ele>142.33333333333331</ele><time>2026-05-03T14:19:32Z</time></trkpt><trkpt lat="56.03422359439545" lon="22.17553084096626"><ele>142.0</ele><time>2026-05-03T14:19:33Z</time></trkpt><trkpt lat="56.03424428061768" lon="22.175399707495636"><ele>141.66666666666666</ele><time>2026-05-03T14:19:34Z</time></trkpt><trkpt lat="56.03426775220601" lon="22.17525091747404"><ele>141.33333333333334</ele><time>2026-05-03T14:19:35Z</time></trkpt><trkpt lat="56.03426086017142" lon="22.1750843098344"><ele>141.0</ele><time>2026-05-03T14:19:36Z</time></trkpt><trkpt lat="56.03427481844122" lon="22.174941336979792"><ele>141.16666666666666</ele><time>2026-05-03T14:19:37Z</time></trkpt><trkpt lat="56.034282888605475" lon="22.17478793461004"><ele>141.33333333333334</ele><time>2026-05-03T14:19:38Z</time></trkpt><trkpt lat="56.034287166940466" lon="22.174642763779637"><ele>141.5</ele><time>2026-05-03T14:19:39Z</time></trkpt><trkpt lat="56.03428980777994" lon="22.17449499738403"><ele>141.66666666666669</ele><time>2026-05-03T14:19:40Z</time></trkpt><trkpt lat="56.03429304368157" lon="22.174328513071462"><ele>141.83333333333334</ele><time>2026-05-03T14:19:41Z</time></trkpt><trkpt lat="56.034295257356455" lon="22.174182550474995"><ele>142.0</ele><time>2026-05-03T14:19:42Z</time></trkpt><trkpt lat="56.034302298172854" lon="22.174030632895615"><ele>142.4</ele><time>2026-05-03T14:19:43Z</time></trkpt><trkpt lat="56.03430869272556" lon="22.17384901979555"><ele>142.79999999999998</ele><time>2026-05-03T14:19:44Z</time></trkpt><trkpt lat="56.034313271797686" lon="22.17363800837005"><ele>143.2</ele><time>2026-05-03T14:19:45Z</time></trkpt><trkpt lat="56.03431710662115" lon="22.17345865527561"><ele>143.6</ele><time>2026-05-03T14:19:46Z</time></trkpt><trkpt lat="56.034319682345284" lon="22.17330850812803"><ele>144.0</ele><time>2026-05-03T14:19:47Z</time></trkpt><trkpt lat="56.03432368352277" lon="22.173162103818985"><ele>144.0</ele><time>2026-05-03T14:19:48Z</time></trkpt><trkpt lat="56.03432477245625" lon="22.17298999646882"><ele>144.0</ele><time>2026-05-03T14:19:49Z</time></trkpt><trkpt lat="56.03432889406744" lon="22.17282368953839"><ele>144.0</ele><time>2026-05-03T14:19:50Z</time></trkpt><trkpt lat="56.03433459896687" lon="22.172649855056367"><ele>144.0</ele><time>2026-05-03T14:19:51Z</time></trkpt><trkpt lat="56.03433731103723" lon="22.172486396276014"><ele>144.0</ele><time>2026-05-03T14:19:52Z</time></trkpt><trkpt lat="56.03434375138185" lon="22.172337450628607"><ele>144.0</ele><time>2026-05-03T14:19:53Z</time></trkpt><trkpt lat="56.03434707307569" lon="22.172209392588233"><ele>144.0</ele><time>2026-05-03T14:19:54Z</time></trkpt><trkpt lat="56.03435181117745" lon="22.172065109921924"><ele>144.0</ele><time>2026-05-03T14:19:55Z</time></trkpt><trkpt lat="56.03435124664613" lon="22.171925608828275"><ele>144.0</ele><time>2026-05-03T14:19:56Z</time></trkpt><trkpt lat="56.034355012706456" lon="22.171766951629767"><ele>144.0</ele><time>2026-05-03T14:19:57Z</time></trkpt><trkpt lat="56.03435985561382" lon="22.17160212990805"><ele>144.0</ele><time>2026-05-03T14:19:58Z</time></trkpt><trkpt lat="56.0343652048738" lon="22.171439702692776"><ele>143.6</ele><time>2026-05-03T14:19:59Z</time></trkpt><trkpt lat="56.03436707878647" lon="22.171276733788392"><ele>143.2</ele><time>2026-05-03T14:20:00Z</time></trkpt><trkpt lat="56.03437175044027" lon="22.171105403102924"><ele>142.79999999999998</ele><time>2026-05-03T14:20:01Z</time></trkpt><trkpt lat="56.034375971165886" lon="22.170942950001592"><ele>142.4</ele><time>2026-05-03T14:20:02Z</time></trkpt><trkpt lat="56.03437891391313" lon="22.17076410584868"><ele>142.0</ele><time>2026-05-03T14:20:03Z</time></trkpt><trkpt lat="56.03438525975624" lon="22.17059934165704"><ele>142.0</ele><time>2026-05-03T14:20:04Z</time></trkpt><trkpt lat="56.034391778295586" lon="22.170441315826537"><ele>142.0</ele><time>2026-05-03T14:20:05Z</time></trkpt><trkpt lat="56.034394125803864" lon="22.170266852864902"><ele>142.0</ele><time>2026-05-03T14:20:06Z</time></trkpt><trkpt lat="56.03439797948403" lon="22.170117004288834"><ele>142.0</ele><time>2026-05-03T14:20:07Z</time></trkpt><trkpt lat="56.03440328447706" lon="22.169950377833946"><ele>142.0</ele><time>2026-05-03T14:20:08Z</time></trkpt><trkpt lat="56.03440894210921" lon="22.169793533330918"><ele>142.25</ele><time>2026-05-03T14:20:09Z</time></trkpt><trkpt lat="56.03441681283229" lon="22.16963275318885"><ele>142.5</ele><time>2026-05-03T14:20:10Z</time></trkpt><trkpt lat="56.0344207708005" lon="22.169469019078953"><ele>142.75</ele><time>2026-05-03T14:20:11Z</time></trkpt><trkpt lat="56.03442329749344" lon="22.169250903018156"><ele>143.0</ele><time>2026-05-03T14:20:12Z</time></trkpt><trkpt lat="56.03443100965439" lon="22.16898282175514"><ele>143.4</ele><time>2026-05-03T14:20:13Z</time></trkpt><trkpt lat="56.03443810959712" lon="22.168709245590122"><ele>143.8</ele><time>2026-05-03T14:20:14Z</time></trkpt><trkpt lat="56.03444372733251" lon="22.168506751072844"><ele>144.2</ele><time>2026-05-03T14:20:15Z</time></trkpt><trkpt lat="56.03444916684051" lon="22.16834684040875"><ele>144.6</ele><time>2026-05-03T14:20:16Z</time></trkpt><trkpt lat="56.03444990862351" lon="22.168206237342304"><ele>145.0</ele><time>2026-05-03T14:20:17Z</time></trkpt><trkpt lat="56.034450410926034" lon="22.168072097924234"><ele>145.0</ele><time>2026-05-03T14:20:18Z</time></trkpt><trkpt lat="56.03445359241053" lon="22.167941270657032"><ele>145.0</ele><time>2026-05-03T14:20:19Z</time></trkpt><trkpt lat="56.034458384019175" lon="22.167801892681304"><ele>145.0</ele><time>2026-05-03T14:20:20Z</time></trkpt><trkpt lat="56.03446173723972" lon="22.167675830159805"><ele>145.0</ele><time>2026-05-03T14:20:21Z</time></trkpt><trkpt lat="56.03446355678885" lon="22.167542941755705"><ele>145.0</ele><time>2026-05-03T14:20:22Z</time></trkpt><trkpt lat="56.03446784108395" lon="22.16731789547838"><ele>145.0</ele><time>2026-05-03T14:20:24Z</time></trkpt><trkpt lat="56.0344861707099" lon="22.16720332612623"><ele>145.4</ele><time>2026-05-03T14:20:25Z</time></trkpt><trkpt lat="56.03448924595353" lon="22.167080521314134"><ele>145.8</ele><time>2026-05-03T14:20:26Z</time></trkpt><trkpt lat="56.03449231140471" lon="22.166958109453464"><ele>146.2</ele><time>2026-05-03T14:20:27Z</time></trkpt><trkpt lat="56.03437137972056" lon="22.166785281340236"><ele>146.6</ele><time>2026-05-03T14:20:28Z</time></trkpt><trkpt lat="56.0342861822485" lon="22.166688706959015"><ele>147.0</ele><time>2026-05-03T14:20:29Z</time></trkpt><trkpt lat="56.03420841991568" lon="22.166516232339735"><ele>147.2</ele><time>2026-05-03T14:20:30Z</time></trkpt><trkpt lat="56.034137656560766" lon="22.166392312195374"><ele>147.39999999999998</ele><time>2026-05-03T14:20:31Z</time></trkpt><trkpt lat="56.03406969272948" lon="22.166312621215972"><ele>147.60000000000002</ele><time>2026-05-03T14:20:32Z</time></trkpt><trkpt lat="56.03399173291461" lon="22.16622827212558"><ele>147.8</ele><time>2026-05-03T14:20:33Z</time></trkpt><trkpt lat="56.03389584384779" lon="22.166185949618427"><ele>148.0</ele><time>2026-05-03T14:20:34Z</time></trkpt><trkpt lat="56.03381670893641" lon="22.166164050991693"><ele>148.0</ele><time>2026-05-03T14:20:35Z</time></trkpt><trkpt lat="56.03373858658936" lon="22.16614306624272"><ele>148.0</ele><time>2026-05-03T14:20:36Z</time></trkpt><trkpt lat="56.03365402402335" lon="22.166120166718702"><ele>148.0</ele><time>2026-05-03T14:20:37Z</time></trkpt><trkpt lat="56.03355919308887" lon="22.16612081655524"><ele>148.0</ele><time>2026-05-03T14:20:38Z</time></trkpt><trkpt lat="56.03344359337611" lon="22.16606498576688"><ele>148.0</ele><time>2026-05-03T14:20:39Z</time></trkpt><trkpt lat="56.03329591746198" lon="22.16601965972114"><ele>148.20000000000002</ele><time>2026-05-03T14:20:40Z</time></trkpt><trkpt lat="56.03315085012078" lon="22.16596640068922"><ele>148.4</ele><time>2026-05-03T14:20:41Z</time></trkpt><trkpt lat="56.03303622069267" lon="22.165917419703433"><ele>148.60000000000002</ele><time>2026-05-03T14:20:42Z</time></trkpt><trkpt lat="56.03294308319393" lon="22.165875799027635"><ele>148.8</ele><time>2026-05-03T14:20:43Z</time></trkpt><trkpt lat="56.03286249157527" lon="22.165840475940378"><ele>149.0</ele><time>2026-05-03T14:20:44Z</time></trkpt><trkpt lat="56.03278181379823" lon="22.165804311398567"><ele>149.0</ele><time>2026-05-03T14:20:45Z</time></trkpt><trkpt lat="56.032707582641095" lon="22.165773953211637"><ele>149.0</ele><time>2026-05-03T14:20:46Z</time></trkpt><trkpt lat="56.0326326724783" lon="22.16573927488816"><ele>149.0</ele><time>2026-05-03T14:20:47Z</time></trkpt><trkpt lat="56.03255775882612" lon="22.16572607548939"><ele>149.0</ele><time>2026-05-03T14:20:48Z</time></trkpt><trkpt lat="56.03248546582459" lon="22.165699957618724"><ele>149.0</ele><time>2026-05-03T14:20:49Z</time></trkpt><trkpt lat="56.03240271724231" lon="22.165675679169404"><ele>149.0</ele><time>2026-05-03T14:20:50Z</time></trkpt><trkpt lat="56.03233457313612" lon="22.16566235223233"><ele>150.0</ele><time>2026-05-03T14:20:51Z</time></trkpt><trkpt lat="56.03224272823482" lon="22.16564312575918"><ele>151.0</ele><time>2026-05-03T14:20:53Z</time></trkpt><trkpt lat="56.03216981449579" lon="22.165638974399094"><ele>152.0</ele><time>2026-05-03T14:20:56Z</time></trkpt><trkpt lat="56.032106556980025" lon="22.16562785685192"><ele>153.0</ele><time>2026-05-03T14:21:10Z</time></trkpt><trkpt lat="56.03212801501314" lon="22.165291455618036"><ele>154.0</ele><time>2026-05-03T14:21:12Z</time></trkpt><trkpt lat="56.032128015009796" lon="22.165034936688407"><ele>154.8</ele><time>2026-05-03T14:21:15Z</time></trkpt><trkpt lat="56.03212801500948" lon="22.164853826095204"><ele>155.60000000000002</ele><time>2026-05-03T14:21:16Z</time></trkpt><trkpt lat="56.032128015008766" lon="22.16471058038861"><ele>156.4</ele><time>2026-05-03T14:21:17Z</time></trkpt><trkpt lat="56.03212801500827" lon="22.16453408132591"><ele>157.20000000000002</ele><time>2026-05-03T14:21:18Z</time></trkpt><trkpt lat="56.03212801500935" lon="22.16435230307927"><ele>158.0</ele><time>2026-05-03T14:21:19Z</time></trkpt><trkpt lat="56.0321169213514" lon="22.164156403663995"><ele>158.5</ele><time>2026-05-03T14:21:21Z</time></trkpt><trkpt lat="56.03208274900738" lon="22.163949689076247"><ele>159.0</ele><time>2026-05-03T14:21:22Z</time></trkpt><trkpt lat="56.03206892941993" lon="22.163812556247102"><ele>159.5</ele><time>2026-05-03T14:21:23Z</time></trkpt><trkpt lat="56.0320484269078" lon="22.163692250772456"><ele>160.0</ele><time>2026-05-03T14:21:24Z</time></trkpt><trkpt lat="56.032049532337695" lon="22.16356883882692"><ele>160.5</ele><time>2026-05-03T14:21:25Z</time></trkpt><trkpt lat="56.03203546307279" lon="22.16344770818818"><ele>161.0</ele><time>2026-05-03T14:21:26Z</time></trkpt><trkpt lat="56.03203241553363" lon="22.163213828208637"><ele>161.20000000000002</ele><time>2026-05-03T14:21:28Z</time></trkpt><trkpt lat="56.03202695221906" lon="22.16301634946456"><ele>161.4</ele><time>2026-05-03T14:21:30Z</time></trkpt><trkpt lat="56.03201543432845" lon="22.162826163349436"><ele>161.6</ele><time>2026-05-03T14:21:32Z</time></trkpt><trkpt lat="56.032010381808625" lon="22.16264413528027"><ele>161.8</ele><time>2026-05-03T14:21:34Z</time></trkpt><trkpt lat="56.03201102267991" lon="22.162490732341407"><ele>162.0</ele><time>2026-05-03T14:21:36Z</time></trkpt><trkpt lat="56.03197588644242" lon="22.16233863644546"><ele>162.0</ele><time>2026-05-03T14:21:38Z</time></trkpt><trkpt lat="56.03195097706812" lon="22.162178835535506"><ele>162.0</ele><time>2026-05-03T14:21:39Z</time></trkpt><trkpt lat="56.03191698370122" lon="22.162023471579623"><ele>162.0</ele><time>2026-05-03T14:21:40Z</time></trkpt><trkpt lat="56.03189380383371" lon="22.161863048205152"><ele>162.0</ele><time>2026-05-03T14:21:41Z</time></trkpt><trkpt lat="56.03187297450243" lon="22.16166656296169"><ele>162.0</ele><time>2026-05-03T14:21:43Z</time></trkpt><trkpt lat="56.03184997048105" lon="22.161544162163356"><ele>163.6</ele><time>2026-05-03T14:21:44Z</time></trkpt><trkpt lat="56.03182970444429" lon="22.161427219929536"><ele>165.2</ele><time>2026-05-03T14:21:45Z</time></trkpt><trkpt lat="56.031789048086154" lon="22.16124491621378"><ele>166.8</ele><time>2026-05-03T14:21:47Z</time></trkpt><trkpt lat="56.03175780757774" lon="22.16104100882073"><ele>168.4</ele><time>2026-05-03T14:21:49Z</time></trkpt><trkpt lat="56.03176039728061" lon="22.160925412302486"><ele>170.0</ele><time>2026-05-03T14:21:50Z</time></trkpt><trkpt lat="56.03174297695994" lon="22.160755622234902"><ele>171.33333333333331</ele><time>2026-05-03T14:21:52Z</time></trkpt><trkpt lat="56.0317104478552" lon="22.160593471102565"><ele>172.66666666666666</ele><time>2026-05-03T14:21:54Z</time></trkpt><trkpt lat="56.03169543835377" lon="22.160440948087455"><ele>174.0</ele><time>2026-05-03T14:21:56Z</time></trkpt><trkpt lat="56.031697107899284" lon="22.16031847201097"><ele>175.33333333333334</ele><time>2026-05-03T14:21:59Z</time></trkpt><trkpt lat="56.031681956169116" lon="22.160173075304023"><ele>176.66666666666669</ele><time>2026-05-03T14:22:14Z</time></trkpt><trkpt lat="56.03166762233336" lon="22.160034586840666"><ele>178.0</ele><time>2026-05-03T14:22:16Z</time></trkpt><trkpt lat="56.03162041926464" lon="22.15989011696963"><ele>180.0</ele><time>2026-05-03T14:22:18Z</time></trkpt><trkpt lat="56.03156552178618" lon="22.159772421869807"><ele>182.0</ele><time>2026-05-03T14:22:20Z</time></trkpt><trkpt lat="56.03150515100153" lon="22.159624920662775"><ele>184.0</ele><time>2026-05-03T14:22:22Z</time></trkpt><trkpt lat="56.03144814161369" lon="22.159484814060395"><ele>186.0</ele><time>2026-05-03T14:22:24Z</time></trkpt><trkpt lat="56.03138379785599" lon="22.159337212444818"><ele>188.0</ele><time>2026-05-03T14:22:26Z</time></trkpt><trkpt lat="56.03131734928442" lon="22.15923762613344"><ele>188.0</ele><time>2026-05-03T14:22:28Z</time></trkpt><trkpt lat="56.03128045615272" lon="22.159132308509555"><ele>188.0</ele><time>2026-05-03T14:22:29Z</time></trkpt><trkpt lat="56.031211871415415" lon="22.15899564686454"><ele>188.0</ele><time>2026-05-03T14:22:31Z</time></trkpt><trkpt lat="56.03115179173584" lon="22.15887611846185"><ele>188.0</ele><time>2026-05-03T14:22:33Z</time></trkpt><trkpt lat="56.031106533274006" lon="22.158713045136313"><ele>188.0</ele><time>2026-05-03T14:22:35Z</time></trkpt><trkpt lat="56.031092941828796" lon="22.158565445879923"><ele>188.0</ele><time>2026-05-03T14:22:37Z</time></trkpt><trkpt lat="56.031070834315315" lon="22.158393514398277"><ele>188.33333333333331</ele><time>2026-05-03T14:22:39Z</time></trkpt><trkpt lat="56.0310467486767" lon="22.158208716592114"><ele>188.66666666666666</ele><time>2026-05-03T14:22:41Z</time></trkpt><trkpt lat="56.03098268097917" lon="22.15815997526413"><ele>189.0</ele><time>2026-05-03T14:22:42Z</time></trkpt><trkpt lat="56.030970096369366" lon="22.157995887253506"><ele>189.33333333333334</ele><time>2026-05-03T14:22:44Z</time></trkpt><trkpt lat="56.03096101476622" lon="22.157877473270332"><ele>189.66666666666669</ele><time>2026-05-03T14:22:45Z</time></trkpt><trkpt lat="56.03094530001034" lon="22.15767450236769"><ele>190.0</ele><time>2026-05-03T14:22:47Z</time></trkpt><trkpt lat="56.03093193250507" lon="22.1575026742433"><ele>190.0</ele><time>2026-05-03T14:22:49Z</time></trkpt><trkpt lat="56.030919144815556" lon="22.157328466271018"><ele>190.0</ele><time>2026-05-03T14:22:51Z</time></trkpt><trkpt lat="56.030864137885125" lon="22.157131544001487"><ele>190.0</ele><time>2026-05-03T14:22:53Z</time></trkpt><trkpt lat="56.03082024269165" lon="22.15692639647698"><ele>190.0</ele><time>2026-05-03T14:22:55Z</time></trkpt><trkpt lat="56.03077433998342" lon="22.156712836921322"><ele>188.2</ele><time>2026-05-03T14:22:57Z</time></trkpt><trkpt lat="56.03073692948434" lon="22.15653901315177"><ele>186.4</ele><time>2026-05-03T14:22:59Z</time></trkpt><trkpt lat="56.030699913887666" lon="22.156343605926708"><ele>184.60000000000002</ele><time>2026-05-03T14:23:01Z</time></trkpt><trkpt lat="56.03065202243201" lon="22.156126117062175"><ele>182.8</ele><time>2026-05-03T14:23:03Z</time></trkpt><trkpt lat="56.030647723255555" lon="22.156005327219525"><ele>181.0</ele><time>2026-05-03T14:23:04Z</time></trkpt><trkpt lat="56.03062844117525" lon="22.15588231418623"><ele>180.60000000000002</ele><time>2026-05-03T14:23:05Z</time></trkpt><trkpt lat="56.03061239464896" lon="22.15570064372776"><ele>180.2</ele><time>2026-05-03T14:23:07Z</time></trkpt><trkpt lat="56.03057759037163" lon="22.155502248745815"><ele>179.8</ele><time>2026-05-03T14:23:09Z</time></trkpt><trkpt lat="56.0305646229271" lon="22.155380559747087"><ele>179.39999999999998</ele><time>2026-05-03T14:23:10Z</time></trkpt><trkpt lat="56.03056244086689" lon="22.15519818876813"><ele>179.0</ele><time>2026-05-03T14:23:12Z</time></trkpt><trkpt lat="56.03055055929637" lon="22.15507566649662"><ele>179.0</ele><time>2026-05-03T14:23:14Z</time></trkpt><trkpt lat="56.03052235446369" lon="22.15491227800085"><ele>179.0</ele><time>2026-05-03T14:23:16Z</time></trkpt><trkpt lat="56.03051442252132" lon="22.154786292184003"><ele>179.0</ele><time>2026-05-03T14:23:18Z</time></trkpt><trkpt lat="56.03049817763225" lon="22.154643048330772"><ele>179.0</ele><time>2026-05-03T14:23:20Z</time></trkpt><trkpt lat="56.0305126250939" lon="22.154458069340706"><ele>179.0</ele><time>2026-05-03T14:23:23Z</time></trkpt><trkpt lat="56.030514697428295" lon="22.15431940614681"><ele>179.0</ele><time>2026-05-03T14:23:25Z</time></trkpt><trkpt lat="56.030508268775804" lon="22.154170069713274"><ele>178.33333333333331</ele><time>2026-05-03T14:23:27Z</time></trkpt><trkpt lat="56.030512253850084" lon="22.15399856356047"><ele>177.66666666666666</ele><time>2026-05-03T14:23:29Z</time></trkpt><trkpt lat="56.030513882090084" lon="22.15385261205664"><ele>177.0</ele><time>2026-05-03T14:23:31Z</time></trkpt><trkpt lat="56.03052077796214" lon="22.15370316819767"><ele>176.33333333333334</ele><time>2026-05-03T14:23:33Z</time></trkpt><trkpt lat="56.03052059069364" lon="22.15355341140704"><ele>175.66666666666669</ele><time>2026-05-03T14:23:35Z</time></trkpt><trkpt lat="56.030535801806884" lon="22.15340178721069"><ele>175.0</ele><time>2026-05-03T14:23:37Z</time></trkpt><trkpt lat="56.03055940354863" lon="22.153272412802977"><ele>174.66666666666669</ele><time>2026-05-03T14:23:39Z</time></trkpt><trkpt lat="56.030579327451456" lon="22.153135617567973"><ele>174.33333333333334</ele><time>2026-05-03T14:23:41Z</time></trkpt><trkpt lat="56.03060351958368" lon="22.152983636896764"><ele>174.0</ele><time>2026-05-03T14:23:43Z</time></trkpt><trkpt lat="56.030621719772924" lon="22.152866293526642"><ele>173.66666666666666</ele><time>2026-05-03T14:23:44Z</time></trkpt><trkpt lat="56.03064147570323" lon="22.152711023357263"><ele>173.33333333333331</ele><time>2026-05-03T14:23:45Z</time></trkpt><trkpt lat="56.030661741279076" lon="22.152601041887838"><ele>173.0</ele><time>2026-05-03T14:23:46Z</time></trkpt><trkpt lat="56.03068559096317" lon="22.152412948007672"><ele>172.8</ele><time>2026-05-03T14:23:48Z</time></trkpt><trkpt lat="56.03072160568424" lon="22.152199882927807"><ele>172.60000000000002</ele><time>2026-05-03T14:23:50Z</time></trkpt><trkpt lat="56.03072460040118" lon="22.151990288039485"><ele>172.39999999999998</ele><time>2026-05-03T14:23:52Z</time></trkpt><trkpt lat="56.030718200282315" lon="22.151804622127692"><ele>172.2</ele><time>2026-05-03T14:23:54Z</time></trkpt><trkpt lat="56.0306806401895" lon="22.151666674237273"><ele>172.0</ele><time>2026-05-03T14:23:56Z</time></trkpt><trkpt lat="56.030629771122435" lon="22.15147109591804"><ele>172.0</ele><time>2026-05-03T14:23:58Z</time></trkpt><trkpt lat="56.030547802561934" lon="22.15131626627066"><ele>172.0</ele><time>2026-05-03T14:24:00Z</time></trkpt><trkpt lat="56.03044861469328" lon="22.15124780284209"><ele>172.0</ele><time>2026-05-03T14:24:02Z</time></trkpt><trkpt lat="56.03032889740769" lon="22.151201201616544"><ele>172.0</ele><time>2026-05-03T14:24:04Z</time></trkpt><trkpt lat="56.03022404583684" lon="22.15116820564417"><ele>172.0</ele><time>2026-05-03T14:24:06Z</time></trkpt><trkpt lat="56.030123566113055" lon="22.151163790934667"><ele>172.0</ele><time>2026-05-03T14:24:08Z</time></trkpt><trkpt lat="56.03003934026968" lon="22.151062831107872"><ele>172.0</ele><time>2026-05-03T14:24:10Z</time></trkpt><trkpt lat="56.029931228397885" lon="22.15100120618743"><ele>172.0</ele><time>2026-05-03T14:24:12Z</time></trkpt><trkpt lat="56.02987985993287" lon="22.15087452379593"><ele>172.0</ele><time>2026-05-03T14:24:14Z</time></trkpt><trkpt lat="56.029801135447904" lon="22.150755127222727"><ele>172.2</ele><time>2026-05-03T14:24:16Z</time></trkpt><trkpt lat="56.02973040780958" lon="22.150647950555086"><ele>172.39999999999998</ele><time>2026-05-03T14:24:18Z</time></trkpt><trkpt lat="56.029656601674894" lon="22.15053601561309"><ele>172.60000000000002</ele><time>2026-05-03T14:24:20Z</time></trkpt><trkpt lat="56.02957776826308" lon="22.150417134509205"><ele>172.8</ele><time>2026-05-03T14:24:22Z</time></trkpt><trkpt lat="56.029529592913455" lon="22.150290533836188"><ele>173.0</ele><time>2026-05-03T14:24:24Z</time></trkpt><trkpt lat="56.02948511892271" lon="22.150131314558852"><ele>173.0</ele><time>2026-05-03T14:24:26Z</time></trkpt><trkpt lat="56.02946851343155" lon="22.149958322946482"><ele>173.0</ele><time>2026-05-03T14:24:28Z</time></trkpt><trkpt lat="56.02945759115768" lon="22.149828166930178"><ele>173.0</ele><time>2026-05-03T14:24:30Z</time></trkpt><trkpt lat="56.02947211806784" lon="22.14963553678312"><ele>173.0</ele><time>2026-05-03T14:24:32Z</time></trkpt><trkpt lat="56.02948557418512" lon="22.14945733247355"><ele>173.0</ele><time>2026-05-03T14:24:34Z</time></trkpt><trkpt lat="56.02948673267464" lon="22.149285923053192"><ele>172.60000000000002</ele><time>2026-05-03T14:24:36Z</time></trkpt><trkpt lat="56.029444614726586" lon="22.149132896431908"><ele>172.20000000000002</ele><time>2026-05-03T14:24:38Z</time></trkpt><trkpt lat="56.02940131997219" lon="22.148912283696518"><ele>171.8</ele><time>2026-05-03T14:24:40Z</time></trkpt><trkpt lat="56.029373787916185" lon="22.148810438081423"><ele>171.4</ele><time>2026-05-03T14:24:41Z</time></trkpt><trkpt lat="56.02932829108619" lon="22.148642259915096"><ele>171.0</ele><time>2026-05-03T14:24:43Z</time></trkpt><trkpt lat="56.02926876730598" lon="22.148514786915047"><ele>171.0</ele><time>2026-05-03T14:24:45Z</time></trkpt><trkpt lat="56.0291810319607" lon="22.14841531531222"><ele>171.0</ele><time>2026-05-03T14:24:47Z</time></trkpt><trkpt lat="56.029115758481865" lon="22.14831793452616"><ele>171.0</ele><time>2026-05-03T14:24:49Z</time></trkpt><trkpt lat="56.029066561865775" lon="22.148213463498635"><ele>171.0</ele><time>2026-05-03T14:24:51.001Z</time></trkpt><trkpt lat="56.02897766314748" lon="22.14811869295043"><ele>171.0</ele><time>2026-05-03T14:24:53.001Z</time></trkpt><trkpt lat="56.02893842323908" lon="22.14794144574463"><ele>171.16666666666666</ele><time>2026-05-03T14:24:55.001Z</time></trkpt><trkpt lat="56.02888521882041" lon="22.147808520628224"><ele>171.33333333333334</ele><time>2026-05-03T14:24:57.001Z</time></trkpt><trkpt lat="56.02884151367192" lon="22.147699261034123"><ele>171.5</ele><time>2026-05-03T14:24:59.001Z</time></trkpt><trkpt lat="56.0287670048592" lon="22.14756771152102"><ele>171.66666666666669</ele><time>2026-05-03T14:25:01.001Z</time></trkpt><trkpt lat="56.028711622525506" lon="22.147473478915636"><ele>171.83333333333334</ele><time>2026-05-03T14:25:03.001Z</time></trkpt><trkpt lat="56.02864076041206" lon="22.14746241854659"><ele>172.0</ele><time>2026-05-03T14:25:04.001Z</time></trkpt><trkpt lat="56.02854892505688" lon="22.147426487459004"><ele>172.0</ele><time>2026-05-03T14:25:06.001Z</time></trkpt><trkpt lat="56.02844614285501" lon="22.147466972630465"><ele>172.0</ele><time>2026-05-03T14:25:08.001Z</time></trkpt><trkpt lat="56.028359805384504" lon="22.1474860394965"><ele>172.0</ele><time>2026-05-03T14:25:10.001Z</time></trkpt><trkpt lat="56.028272738363796" lon="22.147506804006447"><ele>172.0</ele><time>2026-05-03T14:25:18.001Z</time></trkpt><trkpt lat="56.02819780192897" lon="22.14745994609797"><ele>172.0</ele><time>2026-05-03T14:25:20.001Z</time></trkpt><trkpt lat="56.02814197799418" lon="22.147384583780134"><ele>172.0</ele><time>2026-05-03T14:25:22.001Z</time></trkpt><trkpt lat="56.028078762486786" lon="22.147284886736944"><ele>173.83333333333334</ele><time>2026-05-03T14:25:24.001Z</time></trkpt><trkpt lat="56.02802106925456" lon="22.147193861181815"><ele>175.66666666666669</ele><time>2026-05-03T14:25:26.001Z</time></trkpt><trkpt lat="56.02795475167228" lon="22.14709584940682"><ele>177.5</ele><time>2026-05-03T14:25:28.001Z</time></trkpt><trkpt lat="56.02787714013471" lon="22.147004573477332"><ele>179.33333333333334</ele><time>2026-05-03T14:25:30.001Z</time></trkpt><trkpt lat="56.02781955695698" lon="22.146878475331093"><ele>181.16666666666666</ele><time>2026-05-03T14:25:32.001Z</time></trkpt><trkpt lat="56.027752721170586" lon="22.146772658107952"><ele>183.0</ele><time>2026-05-03T14:25:34.001Z</time></trkpt><trkpt lat="56.02770494765805" lon="22.14669886820808"><ele>183.0</ele><time>2026-05-03T14:25:35.001Z</time></trkpt><trkpt lat="56.02760626022242" lon="22.146610172164102"><ele>183.0</ele><time>2026-05-03T14:25:37.001Z</time></trkpt><trkpt lat="56.02753904306759" lon="22.146494596393843"><ele>183.0</ele><time>2026-05-03T14:25:39.001Z</time></trkpt><trkpt lat="56.02748623075777" lon="22.146389566350177"><ele>183.0</ele><time>2026-05-03T14:25:41.001Z</time></trkpt><trkpt lat="56.027453066649244" lon="22.146289685269345"><ele>183.0</ele><time>2026-05-03T14:25:43.001Z</time></trkpt><trkpt lat="56.02740194648323" lon="22.14613572552676"><ele>183.0</ele><time>2026-05-03T14:25:45.001Z</time></trkpt><trkpt lat="56.02736192080947" lon="22.146016941076162"><ele>183.2</ele><time>2026-05-03T14:25:47.001Z</time></trkpt><trkpt lat="56.02726321318207" lon="22.145936017354824"><ele>183.4</ele><time>2026-05-03T14:25:49.001Z</time></trkpt><trkpt lat="56.02718263083012" lon="22.145884941581247"><ele>183.6</ele><time>2026-05-03T14:25:51.001Z</time></trkpt><trkpt lat="56.02708649368094" lon="22.1458346773128"><ele>183.79999999999998</ele><time>2026-05-03T14:25:53.001Z</time></trkpt><trkpt lat="56.02700069403766" lon="22.145786392561316"><ele>184.0</ele><time>2026-05-03T14:25:54.001Z</time></trkpt><trkpt lat="56.02688899776053" lon="22.145772247249525"><ele>184.0</ele><time>2026-05-03T14:25:57.001Z</time></trkpt><trkpt lat="56.02678407041986" lon="22.145728458510323"><ele>184.0</ele><time>2026-05-03T14:25:59.001Z</time></trkpt><trkpt lat="56.02670571153464" lon="22.145652889501658"><ele>184.0</ele><time>2026-05-03T14:26:01.001Z</time></trkpt><trkpt lat="56.02664270039214" lon="22.145552461931523"><ele>184.0</ele><time>2026-05-03T14:26:03.001Z</time></trkpt><trkpt lat="56.02658871645261" lon="22.145427974815465"><ele>184.0</ele><time>2026-05-03T14:26:05.001Z</time></trkpt><trkpt lat="56.02653884714252" lon="22.14525834359147"><ele>184.75</ele><time>2026-05-03T14:26:07.001Z</time></trkpt><trkpt lat="56.026488412344" lon="22.145067875165044"><ele>185.5</ele><time>2026-05-03T14:26:09.001Z</time></trkpt><trkpt lat="56.02643687779423" lon="22.144895501281894"><ele>186.25</ele><time>2026-05-03T14:26:11.001Z</time></trkpt><trkpt lat="56.026375935798455" lon="22.144746156395353"><ele>187.0</ele><time>2026-05-03T14:26:13.001Z</time></trkpt><trkpt lat="56.02630977641705" lon="22.1445639584432"><ele>185.0</ele><time>2026-05-03T14:26:15.001Z</time></trkpt><trkpt lat="56.02626705161132" lon="22.144434251118216"><ele>183.0</ele><time>2026-05-03T14:26:17.001Z</time></trkpt><trkpt lat="56.02621289204343" lon="22.144331608263535"><ele>181.0</ele><time>2026-05-03T14:26:19.001Z</time></trkpt><trkpt lat="56.0261398968086" lon="22.144206895340183"><ele>179.0</ele><time>2026-05-03T14:26:21.001Z</time></trkpt><trkpt lat="56.02605421428327" lon="22.144198261168558"><ele>177.0</ele><time>2026-05-03T14:26:23.001Z</time></trkpt><trkpt lat="56.025952105217534" lon="22.14415633159872"><ele>177.0</ele><time>2026-05-03T14:26:25.001Z</time></trkpt><trkpt lat="56.025841457860885" lon="22.144133825310767"><ele>177.0</ele><time>2026-05-03T14:26:27.001Z</time></trkpt><trkpt lat="56.0257608930506" lon="22.144117437981315"><ele>177.0</ele><time>2026-05-03T14:26:29.001Z</time></trkpt><trkpt lat="56.025655628733084" lon="22.14409604545465"><ele>177.0</ele><time>2026-05-03T14:26:31.001Z</time></trkpt><trkpt lat="56.02558420450592" lon="22.14408162717477"><ele>177.0</ele><time>2026-05-03T14:26:33.001Z</time></trkpt><trkpt lat="56.02550341099722" lon="22.14406531753693"><ele>177.2</ele><time>2026-05-03T14:26:36.001Z</time></trkpt><trkpt lat="56.025439764666" lon="22.144052469379748"><ele>177.39999999999998</ele><time>2026-05-03T14:27:20.001Z</time></trkpt><trkpt lat="56.025319035631966" lon="22.144028098020552"><ele>177.60000000000002</ele><time>2026-05-03T14:29:46.001Z</time></trkpt><trkpt lat="56.02524384180571" lon="22.144012918787276"><ele>177.8</ele><time>2026-05-03T14:29:49.001Z</time></trkpt><trkpt lat="56.02518637986276" lon="22.14408626233275"><ele>178.0</ele><time>2026-05-03T14:29:52.001Z</time></trkpt><trkpt lat="56.02513772030956" lon="22.14446113852097"><ele>178.33333333333334</ele><time>2026-05-03T14:29:53.001Z</time></trkpt><trkpt lat="56.02504552906927" lon="22.14458504723159"><ele>178.66666666666669</ele><time>2026-05-03T14:29:55.001Z</time></trkpt><trkpt lat="56.02497729174109" lon="22.144696211188453"><ele>179.0</ele><time>2026-05-03T14:29:57.001Z</time></trkpt><trkpt lat="56.02493236247036" lon="22.14477636744498"><ele>179.33333333333334</ele><time>2026-05-03T14:29:58.001Z</time></trkpt><trkpt lat="56.024885426882726" lon="22.144861858579578"><ele>179.66666666666666</ele><time>2026-05-03T14:29:59.001Z</time></trkpt><trkpt lat="56.024804574261516" lon="22.14498661666894"><ele>180.0</ele><time>2026-05-03T14:30:01.001Z</time></trkpt><trkpt lat="56.024720121524176" lon="22.14513145086754"><ele>180.8</ele><time>2026-05-03T14:30:03.001Z</time></trkpt><trkpt lat="56.02467387662358" lon="22.145215420961655"><ele>181.6</ele><time>2026-05-03T14:30:04.001Z</time></trkpt><trkpt lat="56.02460752422468" lon="22.14534022857391"><ele>182.39999999999998</ele><time>2026-05-03T14:30:06.001Z</time></trkpt><trkpt lat="56.024538688570416" lon="22.14547799953535"><ele>183.2</ele><time>2026-05-03T14:30:08.001Z</time></trkpt><trkpt lat="56.024462580766496" lon="22.145588264637436"><ele>184.0</ele><time>2026-05-03T14:30:10.001Z</time></trkpt><trkpt lat="56.0243954364331" lon="22.145707521778707"><ele>184.39999999999998</ele><time>2026-05-03T14:30:12.001Z</time></trkpt><trkpt lat="56.024331941398366" lon="22.14581773758823"><ele>184.8</ele><time>2026-05-03T14:30:14.001Z</time></trkpt><trkpt lat="56.02425559340257" lon="22.145936554726863"><ele>185.2</ele><time>2026-05-03T14:30:16.001Z</time></trkpt><trkpt lat="56.02418253721594" lon="22.146044523888637"><ele>185.60000000000002</ele><time>2026-05-03T14:30:18.001Z</time></trkpt><trkpt lat="56.02411380292224" lon="22.14617345723404"><ele>186.0</ele><time>2026-05-03T14:30:20.001Z</time></trkpt><trkpt lat="56.02404138400672" lon="22.146292413061445"><ele>186.0</ele><time>2026-05-03T14:30:22.001Z</time></trkpt><trkpt lat="56.023971857715345" lon="22.14640266312165"><ele>186.0</ele><time>2026-05-03T14:30:24.001Z</time></trkpt><trkpt lat="56.02388928146339" lon="22.146510003610334"><ele>186.0</ele><time>2026-05-03T14:30:26.001Z</time></trkpt><trkpt lat="56.023796597598654" lon="22.146603324627193"><ele>186.0</ele><time>2026-05-03T14:30:28.001Z</time></trkpt><trkpt lat="56.023717389747475" lon="22.146668845691885"><ele>186.0</ele><time>2026-05-03T14:30:30.001Z</time></trkpt><trkpt lat="56.023616103175904" lon="22.146747809592966"><ele>186.0</ele><time>2026-05-03T14:30:32.001Z</time></trkpt><trkpt lat="56.02351841485897" lon="22.146773010368978"><ele>186.0</ele><time>2026-05-03T14:30:34Z</time></trkpt><trkpt lat="56.023430116455486" lon="22.146765005190304"><ele>186.0</ele><time>2026-05-03T14:30:36Z</time></trkpt><trkpt lat="56.02333975343603" lon="22.146714379958784"><ele>186.0</ele><time>2026-05-03T14:30:38Z</time></trkpt><trkpt lat="56.023257244366604" lon="22.146638440744223"><ele>186.0</ele><time>2026-05-03T14:30:40Z</time></trkpt><trkpt lat="56.02318614907841" lon="22.146517673695854"><ele>187.0</ele><time>2026-05-03T14:30:42Z</time></trkpt><trkpt lat="56.02312495426582" lon="22.14640251983723"><ele>188.0</ele><time>2026-05-03T14:30:44Z</time></trkpt><trkpt lat="56.02306418172712" lon="22.146274911196446"><ele>189.0</ele><time>2026-05-03T14:30:46Z</time></trkpt><trkpt lat="56.02299146880337" lon="22.146148948257082"><ele>190.0</ele><time>2026-05-03T14:30:48Z</time></trkpt><trkpt lat="56.02292133208798" lon="22.14605771371635"><ele>191.0</ele><time>2026-05-03T14:30:50Z</time></trkpt><trkpt lat="56.022831731903764" lon="22.146019399944294"><ele>191.0</ele><time>2026-05-03T14:30:55Z</time></trkpt><trkpt lat="56.02274708336636" lon="22.14611012427284"><ele>191.0</ele><time>2026-05-03T14:30:57Z</time></trkpt><trkpt lat="56.02267603306162" lon="22.14620431327848"><ele>191.0</ele><time>2026-05-03T14:30:59Z</time></trkpt><trkpt lat="56.022614833188236" lon="22.14629096279149"><ele>191.0</ele><time>2026-05-03T14:31:01Z</time></trkpt><trkpt lat="56.02254672172697" lon="22.146397042354117"><ele>191.0</ele><time>2026-05-03T14:31:03Z</time></trkpt><trkpt lat="56.022484204116274" lon="22.146486146150778"><ele>191.0</ele><time>2026-05-03T14:31:05Z</time></trkpt><trkpt lat="56.022417350227904" lon="22.14660804812445"><ele>190.4</ele><time>2026-05-03T14:31:07Z</time></trkpt><trkpt lat="56.0223620523442" lon="22.14674430843079"><ele>189.8</ele><time>2026-05-03T14:31:10Z</time></trkpt><trkpt lat="56.02231835022289" lon="22.14692390415173"><ele>189.20000000000002</ele><time>2026-05-03T14:31:12Z</time></trkpt><trkpt lat="56.022309663511656" lon="22.147094626293033"><ele>188.60000000000002</ele><time>2026-05-03T14:31:14Z</time></trkpt><trkpt lat="56.022318371549076" lon="22.147268010732652"><ele>188.0</ele><time>2026-05-03T14:31:16Z</time></trkpt><trkpt lat="56.022324479208734" lon="22.147407252783243"><ele>188.0</ele><time>2026-05-03T14:31:18Z</time></trkpt><trkpt lat="56.02232648710132" lon="22.14755908239155"><ele>188.0</ele><time>2026-05-03T14:31:20Z</time></trkpt><trkpt lat="56.02231106147439" lon="22.147713925480254"><ele>188.0</ele><time>2026-05-03T14:31:22Z</time></trkpt><trkpt lat="56.02227817102075" lon="22.147882049550915"><ele>188.0</ele><time>2026-05-03T14:31:24Z</time></trkpt><trkpt lat="56.02222548080529" lon="22.14806012672763"><ele>188.0</ele><time>2026-05-03T14:31:26Z</time></trkpt><trkpt lat="56.022170466244404" lon="22.14821791643857"><ele>188.0</ele><time>2026-05-03T14:31:28Z</time></trkpt><trkpt lat="56.02213663330472" lon="22.148334123592193"><ele>188.0</ele><time>2026-05-03T14:31:31Z</time></trkpt><trkpt lat="56.022090547867855" lon="22.1484949947556"><ele>188.0</ele><time>2026-05-03T14:31:46Z</time></trkpt><trkpt lat="56.02205241236835" lon="22.148669678968716"><ele>188.0</ele><time>2026-05-03T14:31:49Z</time></trkpt><trkpt lat="56.022016295839386" lon="22.148825139131286"><ele>188.0</ele><time>2026-05-03T14:31:51Z</time></trkpt><trkpt lat="56.02197995895077" lon="22.148979394505183"><ele>187.8</ele><time>2026-05-03T14:31:53Z</time></trkpt><trkpt lat="56.02193659088807" lon="22.14914889091126"><ele>187.60000000000002</ele><time>2026-05-03T14:31:55Z</time></trkpt><trkpt lat="56.02189031225757" lon="22.14931076023686"><ele>187.39999999999998</ele><time>2026-05-03T14:31:57Z</time></trkpt><trkpt lat="56.021855362612534" lon="22.149495514432346"><ele>187.2</ele><time>2026-05-03T14:31:59Z</time></trkpt><trkpt lat="56.021820015846885" lon="22.14963982199811"><ele>187.0</ele><time>2026-05-03T14:32:01Z</time></trkpt><trkpt lat="56.02179694458723" lon="22.14974529493465"><ele>187.0</ele><time>2026-05-03T14:32:03Z</time></trkpt><trkpt lat="56.02172505548183" lon="22.14979576523043"><ele>187.0</ele><time>2026-05-03T14:32:07Z</time></trkpt><trkpt lat="56.021635595939934" lon="22.149763650629772"><ele>187.0</ele><time>2026-05-03T14:32:10Z</time></trkpt><trkpt lat="56.02158178072313" lon="22.149693844896333"><ele>187.0</ele><time>2026-05-03T14:32:12Z</time></trkpt><trkpt lat="56.02154998146984" lon="22.149587692650044"><ele>187.0</ele><time>2026-05-03T14:32:14Z</time></trkpt><trkpt lat="56.0215344666991" lon="22.149459236160393"><ele>187.0</ele><time>2026-05-03T14:32:16Z</time></trkpt><trkpt lat="56.02152296513926" lon="22.149266684731188"><ele>187.0</ele><time>2026-05-03T14:32:18Z</time></trkpt><trkpt lat="56.02151598370937" lon="22.149141327900196"><ele>187.0</ele><time>2026-05-03T14:32:19Z</time></trkpt><trkpt lat="56.02151220742449" lon="22.148955763596625"><ele>187.0</ele><time>2026-05-03T14:32:21Z</time></trkpt><trkpt lat="56.02150254202627" lon="22.148757732095834"><ele>187.0</ele><time>2026-05-03T14:32:23Z</time></trkpt><trkpt lat="56.02148773136154" lon="22.148568865342224"><ele>187.0</ele><time>2026-05-03T14:32:25Z</time></trkpt><trkpt lat="56.02146429321111" lon="22.148451235896214"><ele>187.0</ele><time>2026-05-03T14:32:27Z</time></trkpt><trkpt lat="56.021450854502376" lon="22.14830714612647"><ele>187.0</ele><time>2026-05-03T14:32:29Z</time></trkpt><trkpt lat="56.0214040199929" lon="22.148175022249763"><ele>187.0</ele><time>2026-05-03T14:32:31Z</time></trkpt><trkpt lat="56.02135093867341" lon="22.14807306503529"><ele>187.0</ele><time>2026-05-03T14:32:33Z</time></trkpt><trkpt lat="56.0212859957632" lon="22.14791636413815"><ele>187.0</ele><time>2026-05-03T14:32:35Z</time></trkpt><trkpt lat="56.0212104723768" lon="22.14775449488456"><ele>186.83333333333334</ele><time>2026-05-03T14:32:37Z</time></trkpt><trkpt lat="56.0211432371958" lon="22.147657060676142"><ele>186.66666666666669</ele><time>2026-05-03T14:32:39Z</time></trkpt><trkpt lat="56.02106958868207" lon="22.147579069763324"><ele>186.5</ele><time>2026-05-03T14:32:41Z</time></trkpt><trkpt lat="56.02099518580552" lon="22.147480289848428"><ele>186.33333333333334</ele><time>2026-05-03T14:32:43Z</time></trkpt><trkpt lat="56.02092098949213" lon="22.147379826518367"><ele>186.16666666666666</ele><time>2026-05-03T14:32:45Z</time></trkpt><trkpt lat="56.020848552816105" lon="22.147279856155013"><ele>186.0</ele><time>2026-05-03T14:32:47Z</time></trkpt><trkpt lat="56.02076982152093" lon="22.147159248325114"><ele>186.0</ele><time>2026-05-03T14:32:49Z</time></trkpt><trkpt lat="56.02070001379348" lon="22.147025013621548"><ele>186.0</ele><time>2026-05-03T14:32:51Z</time></trkpt><trkpt lat="56.0206265213639" lon="22.146883896511792"><ele>186.0</ele><time>2026-05-03T14:32:53Z</time></trkpt><trkpt lat="56.020566056391125" lon="22.146739364908193"><ele>186.0</ele><time>2026-05-03T14:32:55Z</time></trkpt><trkpt lat="56.02050685099361" lon="22.14657428764941"><ele>186.0</ele><time>2026-05-03T14:32:57Z</time></trkpt><trkpt lat="56.02045955850418" lon="22.146439302335523"><ele>185.8</ele><time>2026-05-03T14:32:59Z</time></trkpt><trkpt lat="56.02040253844292" lon="22.14627071928318"><ele>185.60000000000002</ele><time>2026-05-03T14:33:01Z</time></trkpt><trkpt lat="56.02034720238022" lon="22.146095372261666"><ele>185.4</ele><time>2026-05-03T14:33:03Z</time></trkpt><trkpt lat="56.02029705104716" lon="22.14593368520659"><ele>185.2</ele><time>2026-05-03T14:33:05Z</time></trkpt><trkpt lat="56.020262989253716" lon="22.145789040827303"><ele>185.0</ele><time>2026-05-03T14:33:07Z</time></trkpt><trkpt lat="56.02022995553175" lon="22.145651328387697"><ele>184.5</ele><time>2026-05-03T14:33:09Z</time></trkpt><trkpt lat="56.02019237944534" lon="22.14549864600254"><ele>184.0</ele><time>2026-05-03T14:33:11Z</time></trkpt><trkpt lat="56.02016060966906" lon="22.145374743527032"><ele>183.5</ele><time>2026-05-03T14:33:13Z</time></trkpt><trkpt lat="56.020117235589524" lon="22.145229473512636"><ele>183.0</ele><time>2026-05-03T14:33:15Z</time></trkpt><trkpt lat="56.020068195280366" lon="22.14507351255652"><ele>182.5</ele><time>2026-05-03T14:33:17Z</time></trkpt><trkpt lat="56.02001765449064" lon="22.144953331791907"><ele>182.0</ele><time>2026-05-03T14:33:19Z</time></trkpt><trkpt lat="56.01996597071083" lon="22.144831935053674"><ele>180.0</ele><time>2026-05-03T14:33:21Z</time></trkpt><trkpt lat="56.01988796700085" lon="22.144687055388566"><ele>178.0</ele><time>2026-05-03T14:33:23Z</time></trkpt><trkpt lat="56.01983617743004" lon="22.144539370056982"><ele>176.0</ele><time>2026-05-03T14:33:25Z</time></trkpt><trkpt lat="56.019773265833734" lon="22.144402157165455"><ele>174.0</ele><time>2026-05-03T14:33:27Z</time></trkpt><trkpt lat="56.01969932001888" lon="22.144253430567332"><ele>172.0</ele><time>2026-05-03T14:33:29Z</time></trkpt><trkpt lat="56.01962112559362" lon="22.144112629594535"><ele>171.16666666666669</ele><time>2026-05-03T14:33:31Z</time></trkpt><trkpt lat="56.01956786373211" lon="22.144016661576718"><ele>170.33333333333334</ele><time>2026-05-03T14:33:33Z</time></trkpt><trkpt lat="56.01951052497355" lon="22.143944802224045"><ele>169.5</ele><time>2026-05-03T14:33:35Z</time></trkpt><trkpt lat="56.019464871819544" lon="22.143855488746997"><ele>168.66666666666666</ele><time>2026-05-03T14:33:37Z</time></trkpt><trkpt lat="56.019411126545236" lon="22.143772711974915"><ele>167.83333333333331</ele><time>2026-05-03T14:33:39Z</time></trkpt><trkpt lat="56.01934796628339" lon="22.14362119278533"><ele>167.0</ele><time>2026-05-03T14:33:41Z</time></trkpt><trkpt lat="56.019257275526826" lon="22.143573098016144"><ele>167.0</ele><time>2026-05-03T14:33:43Z</time></trkpt><trkpt lat="56.01917345031851" lon="22.143497944968708"><ele>167.0</ele><time>2026-05-03T14:33:45Z</time></trkpt><trkpt lat="56.0190868471684" lon="22.143439308507812"><ele>167.0</ele><time>2026-05-03T14:33:47Z</time></trkpt><trkpt lat="56.01898087684408" lon="22.143343142295034"><ele>167.0</ele><time>2026-05-03T14:33:49Z</time></trkpt><trkpt lat="56.01887871686688" lon="22.143277081241692"><ele>167.0</ele><time>2026-05-03T14:33:51Z</time></trkpt><trkpt lat="56.0188433810001" lon="22.14309242003724"><ele>169.2</ele><time>2026-05-03T14:33:53Z</time></trkpt><trkpt lat="56.01878334692241" lon="22.14291088254914"><ele>171.39999999999998</ele><time>2026-05-03T14:33:55Z</time></trkpt><trkpt lat="56.018728972710605" lon="22.142747348462745"><ele>173.60000000000002</ele><time>2026-05-03T14:33:57Z</time></trkpt><trkpt lat="56.01867835169435" lon="22.1425944888241"><ele>175.8</ele><time>2026-05-03T14:33:58Z</time></trkpt><trkpt lat="56.01864722260634" lon="22.142449177272958"><ele>178.0</ele><time>2026-05-03T14:33:59Z</time></trkpt><trkpt lat="56.01862197179023" lon="22.142339048378613"><ele>178.2</ele><time>2026-05-03T14:34:00Z</time></trkpt><trkpt lat="56.0185916666887" lon="22.14220687532139"><ele>178.4</ele><time>2026-05-03T14:34:02Z</time></trkpt><trkpt lat="56.01854992406751" lon="22.142014379942555"><ele>178.6</ele><time>2026-05-03T14:34:04Z</time></trkpt><trkpt lat="56.018517307426876" lon="22.14186450452916"><ele>178.79999999999998</ele><time>2026-05-03T14:34:06Z</time></trkpt><trkpt lat="56.018490371421116" lon="22.14173776185198"><ele>179.0</ele><time>2026-05-03T14:34:08Z</time></trkpt><trkpt lat="56.018462976616235" lon="22.141575181493508"><ele>178.83333333333331</ele><time>2026-05-03T14:34:10Z</time></trkpt><trkpt lat="56.01843863034564" lon="22.1414243715596"><ele>178.66666666666666</ele><time>2026-05-03T14:34:12Z</time></trkpt><trkpt lat="56.018398279793736" lon="22.141265655763263"><ele>178.5</ele><time>2026-05-03T14:34:14Z</time></trkpt><trkpt lat="56.018402868235086" lon="22.141152893237955"><ele>178.33333333333334</ele><time>2026-05-03T14:34:15Z</time></trkpt><trkpt lat="56.01841006925924" lon="22.14101290404807"><ele>178.16666666666669</ele><time>2026-05-03T14:34:16Z</time></trkpt><trkpt lat="56.0184167370979" lon="22.14087719724206"><ele>178.0</ele><time>2026-05-03T14:34:17Z</time></trkpt><trkpt lat="56.018431289524564" lon="22.14068422414223"><ele>177.4</ele><time>2026-05-03T14:34:19Z</time></trkpt><trkpt lat="56.01843805657844" lon="22.140463658248265"><ele>176.8</ele><time>2026-05-03T14:34:21Z</time></trkpt><trkpt lat="56.01843618985948" lon="22.140347587226614"><ele>176.2</ele><time>2026-05-03T14:34:22Z</time></trkpt><trkpt lat="56.01842357059683" lon="22.140121776931974"><ele>175.6</ele><time>2026-05-03T14:34:24Z</time></trkpt><trkpt lat="56.01843891808288" lon="22.139906068894383"><ele>175.0</ele><time>2026-05-03T14:34:26Z</time></trkpt><trkpt lat="56.01844030198809" lon="22.13972490258482"><ele>174.2</ele><time>2026-05-03T14:34:28Z</time></trkpt><trkpt lat="56.01845983135746" lon="22.1395654229821"><ele>173.4</ele><time>2026-05-03T14:34:30Z</time></trkpt><trkpt lat="56.018475943564596" lon="22.139398411251904"><ele>172.60000000000002</ele><time>2026-05-03T14:34:32Z</time></trkpt><trkpt lat="56.018495441667554" lon="22.139202851160274"><ele>171.8</ele><time>2026-05-03T14:34:34Z</time></trkpt><trkpt lat="56.01848071349883" lon="22.139009259640744"><ele>171.0</ele><time>2026-05-03T14:34:36Z</time></trkpt><trkpt lat="56.01847106656868" lon="22.138813584181314"><ele>170.5</ele><time>2026-05-03T14:34:38Z</time></trkpt><trkpt lat="56.01844284105585" lon="22.138643277301068"><ele>170.0</ele><time>2026-05-03T14:34:40Z</time></trkpt><trkpt lat="56.01843217173526" lon="22.138474527102296"><ele>169.5</ele><time>2026-05-03T14:34:42Z</time></trkpt><trkpt lat="56.018413924299885" lon="22.138335765744184"><ele>169.0</ele><time>2026-05-03T14:34:44Z</time></trkpt><trkpt lat="56.01839736208118" lon="22.138208330228217"><ele>168.5</ele><time>2026-05-03T14:34:48Z</time></trkpt><trkpt lat="56.01837766727368" lon="22.13806003174979"><ele>168.0</ele><time>2026-05-03T14:35:08Z</time></trkpt><trkpt lat="56.018362371003015" lon="22.137944853363745"><ele>168.0</ele><time>2026-05-03T14:35:10Z</time></trkpt><trkpt lat="56.01834718386788" lon="22.13783049692909"><ele>168.0</ele><time>2026-05-03T14:35:12Z</time></trkpt><trkpt lat="56.01832939290842" lon="22.1376956524424"><ele>168.0</ele><time>2026-05-03T14:35:14Z</time></trkpt><trkpt lat="56.01831032310188" lon="22.13755098765989"><ele>168.0</ele><time>2026-05-03T14:35:17Z</time></trkpt><trkpt lat="56.01829209035783" lon="22.137412671823014"><ele>168.0</ele><time>2026-05-03T14:35:19Z</time></trkpt><trkpt lat="56.018303581818046" lon="22.137266255674703"><ele>168.0</ele><time>2026-05-03T14:35:21Z</time></trkpt><trkpt lat="56.01832592922701" lon="22.13710400360347"><ele>168.0</ele><time>2026-05-03T14:35:24Z</time></trkpt><trkpt lat="56.01834881175073" lon="22.136964890661876"><ele>168.0</ele><time>2026-05-03T14:35:27Z</time></trkpt><trkpt lat="56.01834636538927" lon="22.13684567928058"><ele>168.0</ele><time>2026-05-03T14:35:28Z</time></trkpt><trkpt lat="56.018313170264356" lon="22.136724874301706"><ele>168.0</ele><time>2026-05-03T14:35:30Z</time></trkpt><trkpt lat="56.018200507551775" lon="22.136670204174536"><ele>168.0</ele><time>2026-05-03T14:35:32Z</time></trkpt><trkpt lat="56.01811265811842" lon="22.136587618591868"><ele>168.0</ele><time>2026-05-03T14:35:34Z</time></trkpt><trkpt lat="56.018028517290006" lon="22.136508519555687"><ele>169.33333333333334</ele><time>2026-05-03T14:35:36Z</time></trkpt><trkpt lat="56.017949707526206" lon="22.13643576521815"><ele>170.66666666666666</ele><time>2026-05-03T14:35:38Z</time></trkpt><trkpt lat="56.01790707767601" lon="22.1363406632017"><ele>172.0</ele><time>2026-05-03T14:35:40Z</time></trkpt><trkpt lat="56.01788429643695" lon="22.136214006190173"><ele>173.33333333333331</ele><time>2026-05-03T14:35:42Z</time></trkpt><trkpt lat="56.01787877776977" lon="22.136098283668293"><ele>174.66666666666666</ele><time>2026-05-03T14:35:43Z</time></trkpt><trkpt lat="56.017867983955625" lon="22.135922525508914"><ele>176.0</ele><time>2026-05-03T14:35:44Z</time></trkpt><trkpt lat="56.017883826222196" lon="22.135742966961665"><ele>176.4</ele><time>2026-05-03T14:35:45Z</time></trkpt><trkpt lat="56.01791983785477" lon="22.135534676550318"><ele>176.8</ele><time>2026-05-03T14:35:46Z</time></trkpt><trkpt lat="56.01787291804345" lon="22.135439177488333"><ele>177.20000000000002</ele><time>2026-05-03T14:35:49Z</time></trkpt><trkpt lat="56.01787257543211" lon="22.135249293950654"><ele>177.60000000000002</ele><time>2026-05-03T14:35:51Z</time></trkpt><trkpt lat="56.01782690988894" lon="22.135079815658095"><ele>178.0</ele><time>2026-05-03T14:35:53Z</time></trkpt><trkpt lat="56.01776786624193" lon="22.134953643049883"><ele>177.66666666666669</ele><time>2026-05-03T14:35:55Z</time></trkpt><trkpt lat="56.01771617983587" lon="22.134843385783782"><ele>177.33333333333334</ele><time>2026-05-03T14:35:57Z</time></trkpt><trkpt lat="56.017660433169546" lon="22.134725157011186"><ele>177.0</ele><time>2026-05-03T14:35:59Z</time></trkpt><trkpt lat="56.01759755033606" lon="22.13460048261942"><ele>176.66666666666666</ele><time>2026-05-03T14:36:01Z</time></trkpt><trkpt lat="56.017537305857736" lon="22.134489381959582"><ele>176.33333333333331</ele><time>2026-05-03T14:36:03Z</time></trkpt><trkpt lat="56.0174748502303" lon="22.13440603371112"><ele>176.0</ele><time>2026-05-03T14:36:05Z</time></trkpt><trkpt lat="56.01742797894441" lon="22.134315982252932"><ele>176.0</ele><time>2026-05-03T14:36:07Z</time></trkpt><trkpt lat="56.017397388373915" lon="22.13418464248283"><ele>176.0</ele><time>2026-05-03T14:36:09Z</time></trkpt><trkpt lat="56.017371779055175" lon="22.134009255690625"><ele>176.0</ele><time>2026-05-03T14:36:11Z</time></trkpt><trkpt lat="56.01735439140265" lon="22.13383567414618"><ele>176.0</ele><time>2026-05-03T14:36:13Z</time></trkpt><trkpt lat="56.01732409913319" lon="22.13364781276086"><ele>176.0</ele><time>2026-05-03T14:36:15Z</time></trkpt><trkpt lat="56.0173064573728" lon="22.133499995411615"><ele>175.83333333333331</ele><time>2026-05-03T14:36:17Z</time></trkpt><trkpt lat="56.01730611461029" lon="22.133355000405217"><ele>175.66666666666666</ele><time>2026-05-03T14:36:19Z</time></trkpt><trkpt lat="56.01726965133589" lon="22.133191631100292"><ele>175.5</ele><time>2026-05-03T14:36:21Z</time></trkpt><trkpt lat="56.017248496676764" lon="22.13301313419855"><ele>175.33333333333334</ele><time>2026-05-03T14:36:23Z</time></trkpt><trkpt lat="56.017229004212176" lon="22.132848931963853"><ele>175.16666666666669</ele><time>2026-05-03T14:36:25Z</time></trkpt><trkpt lat="56.01722159737993" lon="22.132725426811604"><ele>175.0</ele><time>2026-05-03T14:36:27Z</time></trkpt><trkpt lat="56.01720220109278" lon="22.132577504036544"><ele>174.8</ele><time>2026-05-03T14:36:29Z</time></trkpt><trkpt lat="56.01718166845057" lon="22.132416579565188"><ele>174.6</ele><time>2026-05-03T14:36:31Z</time></trkpt><trkpt lat="56.01719701500229" lon="22.132249263654828"><ele>174.39999999999998</ele><time>2026-05-03T14:36:33Z</time></trkpt><trkpt lat="56.01719793988368" lon="22.13208476939372"><ele>174.2</ele><time>2026-05-03T14:36:35Z</time></trkpt><trkpt lat="56.017207947708265" lon="22.131938289010616"><ele>174.0</ele><time>2026-05-03T14:36:37Z</time></trkpt><trkpt lat="56.017218776333465" lon="22.13175530954106"><ele>174.0</ele><time>2026-05-03T14:36:39Z</time></trkpt><trkpt lat="56.01723706619978" lon="22.131582156225498"><ele>174.0</ele><time>2026-05-03T14:36:42Z</time></trkpt><trkpt lat="56.017256535623694" lon="22.13145623185626"><ele>174.0</ele><time>2026-05-03T14:36:44Z</time></trkpt><trkpt lat="56.01727722573368" lon="22.131322188512563"><ele>174.0</ele><time>2026-05-03T14:36:46Z</time></trkpt><trkpt lat="56.017297281804495" lon="22.131191121333895"><ele>174.0</ele><time>2026-05-03T14:36:48Z</time></trkpt><trkpt lat="56.01731829514676" lon="22.131053798639226"><ele>174.0</ele><time>2026-05-03T14:36:50Z</time></trkpt><trkpt lat="56.017312698239955" lon="22.130888564740893"><ele>172.33333333333334</ele><time>2026-05-03T14:36:52Z</time></trkpt><trkpt lat="56.01733524367087" lon="22.130710664654828"><ele>170.66666666666666</ele><time>2026-05-03T14:36:54Z</time></trkpt><trkpt lat="56.01730593418667" lon="22.1305598929013"><ele>169.0</ele><time>2026-05-03T14:36:57Z</time></trkpt><trkpt lat="56.01728131190842" lon="22.130431897260156"><ele>167.33333333333331</ele><time>2026-05-03T14:36:59Z</time></trkpt><trkpt lat="56.01725512801892" lon="22.130296349820025"><ele>165.66666666666666</ele><time>2026-05-03T14:37:01Z</time></trkpt><trkpt lat="56.01722310168813" lon="22.130130560765426"><ele>164.0</ele><time>2026-05-03T14:37:04Z</time></trkpt><trkpt lat="56.01720234811374" lon="22.130023135844247"><ele>164.0</ele><time>2026-05-03T14:37:06Z</time></trkpt><trkpt lat="56.01714918962955" lon="22.12994057466049"><ele>164.0</ele><time>2026-05-03T14:37:13Z</time></trkpt><trkpt lat="56.017270812438746" lon="22.129856439310412"><ele>164.0</ele><time>2026-05-03T14:37:18Z</time></trkpt><trkpt lat="56.017335403517656" lon="22.129767909782537"><ele>164.0</ele><time>2026-05-03T14:37:20Z</time></trkpt><trkpt lat="56.01740041865029" lon="22.129658304881456"><ele>164.0</ele><time>2026-05-03T14:37:22Z</time></trkpt><trkpt lat="56.01745576068779" lon="22.129539470441575"><ele>164.6</ele><time>2026-05-03T14:37:24Z</time></trkpt><trkpt lat="56.017505745255214" lon="22.129367174144505"><ele>165.2</ele><time>2026-05-03T14:37:26Z</time></trkpt><trkpt lat="56.017564928059436" lon="22.129215740737443"><ele>165.79999999999998</ele><time>2026-05-03T14:37:28Z</time></trkpt><trkpt lat="56.017617605292465" lon="22.129059902022895"><ele>166.39999999999998</ele><time>2026-05-03T14:37:30Z</time></trkpt><trkpt lat="56.0176658276611" lon="22.128897045317693"><ele>167.0</ele><time>2026-05-03T14:37:32Z</time></trkpt><trkpt lat="56.0177176178236" lon="22.12874753644557"><ele>167.0</ele><time>2026-05-03T14:37:34Z</time></trkpt><trkpt lat="56.01776273974045" lon="22.128584831707876"><ele>167.0</ele><time>2026-05-03T14:37:36Z</time></trkpt><trkpt lat="56.017811677154256" lon="22.12839532110868"><ele>167.0</ele><time>2026-05-03T14:37:38Z</time></trkpt><trkpt lat="56.01786495761533" lon="22.128196430591867"><ele>167.0</ele><time>2026-05-03T14:37:40Z</time></trkpt><trkpt lat="56.01791127114007" lon="22.12801887542909"><ele>166.83333333333331</ele><time>2026-05-03T14:37:42Z</time></trkpt><trkpt lat="56.017943873896684" lon="22.127867337129835"><ele>166.66666666666666</ele><time>2026-05-03T14:37:44Z</time></trkpt><trkpt lat="56.017978495222096" lon="22.12776623203345"><ele>166.5</ele><time>2026-05-03T14:37:46Z</time></trkpt><trkpt lat="56.01807062259436" lon="22.12779190942633"><ele>166.33333333333334</ele><time>2026-05-03T14:37:49Z</time></trkpt><trkpt lat="56.01813742746053" lon="22.12778626756152"><ele>166.16666666666669</ele><time>2026-05-03T14:37:51Z</time></trkpt><trkpt lat="56.01821120162376" lon="22.12780911620428"><ele>166.0</ele><time>2026-05-03T14:37:53Z</time></trkpt><trkpt lat="56.01828957763487" lon="22.127784037151876"><ele>168.66666666666669</ele><time>2026-05-03T14:37:55Z</time></trkpt><trkpt lat="56.01836019275813" lon="22.12779177094052"><ele>171.33333333333334</ele><time>2026-05-03T14:38:32Z</time></trkpt><trkpt lat="56.01843979876681" lon="22.12773521050074"><ele>174.0</ele><time>2026-05-03T14:38:35Z</time></trkpt><trkpt lat="56.01851898141102" lon="22.12767886217215"><ele>176.66666666666666</ele><time>2026-05-03T14:38:37Z</time></trkpt><trkpt lat="56.018590206391465" lon="22.127629078719362"><ele>179.33333333333331</ele><time>2026-05-03T14:38:39Z</time></trkpt><trkpt lat="56.01866405850343" lon="22.127578228146927"><ele>182.0</ele><time>2026-05-03T14:38:41Z</time></trkpt><trkpt lat="56.01874884888457" lon="22.12749138122141"><ele>182.0</ele><time>2026-05-03T14:38:43Z</time></trkpt><trkpt lat="56.01881925904051" lon="22.12742176290687"><ele>182.0</ele><time>2026-05-03T14:38:45Z</time></trkpt><trkpt lat="56.01889987659953" lon="22.12734227917683"><ele>182.0</ele><time>2026-05-03T14:38:48Z</time></trkpt><trkpt lat="56.019096172835596" lon="22.127659259437348"><ele>182.0</ele><time>2026-05-03T14:38:51Z</time></trkpt><trkpt lat="56.01917332247806" lon="22.127762138363394"><ele>183.39999999999998</ele><time>2026-05-03T14:38:53Z</time></trkpt><trkpt lat="56.019255291338226" lon="22.127912161903996"><ele>184.79999999999998</ele><time>2026-05-03T14:38:55Z</time></trkpt><trkpt lat="56.019326552092195" lon="22.128064936369753"><ele>186.2</ele><time>2026-05-03T14:38:57Z</time></trkpt><trkpt lat="56.0193880312518" lon="22.128228353323667"><ele>187.6</ele><time>2026-05-03T14:38:59Z</time></trkpt><trkpt lat="56.019433844052344" lon="22.128407214164945"><ele>189.0</ele><time>2026-05-03T14:39:01Z</time></trkpt><trkpt lat="56.01947263275445" lon="22.128589536232077"><ele>189.0</ele><time>2026-05-03T14:39:03Z</time></trkpt><trkpt lat="56.019493568091086" lon="22.128697952083836"><ele>189.0</ele><time>2026-05-03T14:39:04Z</time></trkpt><trkpt lat="56.019515903752655" lon="22.128878322020693"><ele>189.0</ele><time>2026-05-03T14:39:06Z</time></trkpt><trkpt lat="56.0195174076218" lon="22.12905389438236"><ele>189.0</ele><time>2026-05-03T14:39:08Z</time></trkpt><trkpt lat="56.019520289550414" lon="22.129202522891898"><ele>189.0</ele><time>2026-05-03T14:39:10Z</time></trkpt><trkpt lat="56.019537925705464" lon="22.129366597616045"><ele>189.0</ele><time>2026-05-03T14:39:12Z</time></trkpt><trkpt lat="56.019551639299365" lon="22.129520714956236"><ele>189.0</ele><time>2026-05-03T14:39:14Z</time></trkpt><trkpt lat="56.01957233962741" lon="22.12969432665769"><ele>189.0</ele><time>2026-05-03T14:39:16Z</time></trkpt><trkpt lat="56.0195785514069" lon="22.12987826709784"><ele>189.0</ele><time>2026-05-03T14:39:18Z</time></trkpt><trkpt lat="56.01959888039105" lon="22.13004649687231"><ele>189.0</ele><time>2026-05-03T14:39:20Z</time></trkpt><trkpt lat="56.01965875370549" lon="22.130249061007433"><ele>189.0</ele><time>2026-05-03T14:39:22Z</time></trkpt><trkpt lat="56.019701066219525" lon="22.13033245941743"><ele>188.6</ele><time>2026-05-03T14:39:23Z</time></trkpt><trkpt lat="56.01976722577028" lon="22.130462411303903"><ele>188.2</ele><time>2026-05-03T14:39:25Z</time></trkpt><trkpt lat="56.019814440982564" lon="22.130635808376542"><ele>187.79999999999998</ele><time>2026-05-03T14:39:27Z</time></trkpt><trkpt lat="56.01987560193348" lon="22.13082132928668"><ele>187.39999999999998</ele><time>2026-05-03T14:39:29Z</time></trkpt><trkpt lat="56.019915569212436" lon="22.130949877291425"><ele>187.0</ele><time>2026-05-03T14:39:31Z</time></trkpt><trkpt lat="56.0199248444148" lon="22.131113874066116"><ele>186.2</ele><time>2026-05-03T14:39:33Z</time></trkpt><trkpt lat="56.019929414121506" lon="22.13128900623328"><ele>185.39999999999998</ele><time>2026-05-03T14:39:35Z</time></trkpt><trkpt lat="56.01990166314067" lon="22.131408513885766"><ele>184.60000000000002</ele><time>2026-05-03T14:39:36Z</time></trkpt><trkpt lat="56.019912447972075" lon="22.13160802468824"><ele>183.8</ele><time>2026-05-03T14:39:38Z</time></trkpt><trkpt lat="56.01992962337683" lon="22.131815638779827"><ele>183.0</ele><time>2026-05-03T14:39:40Z</time></trkpt><trkpt lat="56.01994823025049" lon="22.132020722559783"><ele>182.2</ele><time>2026-05-03T14:39:42Z</time></trkpt><trkpt lat="56.01997559247375" lon="22.132212475674002"><ele>181.4</ele><time>2026-05-03T14:39:44Z</time></trkpt><trkpt lat="56.0199997853415" lon="22.132377898113592"><ele>180.6</ele><time>2026-05-03T14:39:46Z</time></trkpt><trkpt lat="56.020024686669814" lon="22.132510326899673"><ele>179.79999999999998</ele><time>2026-05-03T14:39:48Z</time></trkpt><trkpt lat="56.020042406530756" lon="22.132661531034408"><ele>179.0</ele><time>2026-05-03T14:39:50Z</time></trkpt><trkpt lat="56.02006893428606" lon="22.13286537511936"><ele>177.6</ele><time>2026-05-03T14:39:52Z</time></trkpt><trkpt lat="56.02008180605313" lon="22.133049540192484"><ele>176.2</ele><time>2026-05-03T14:39:54Z</time></trkpt><trkpt lat="56.02009699268955" lon="22.133248296959145"><ele>174.79999999999998</ele><time>2026-05-03T14:39:56Z</time></trkpt><trkpt lat="56.02010079922986" lon="22.133436283183052"><ele>173.39999999999998</ele><time>2026-05-03T14:39:58Z</time></trkpt><trkpt lat="56.020098195764795" lon="22.13363265620074"><ele>172.0</ele><time>2026-05-03T14:40:00Z</time></trkpt><trkpt lat="56.02009659543578" lon="22.133836928513404"><ele>172.0</ele><time>2026-05-03T14:40:02Z</time></trkpt><trkpt lat="56.02009166638752" lon="22.134027121135574"><ele>172.0</ele><time>2026-05-03T14:40:04Z</time></trkpt><trkpt lat="56.020083984587586" lon="22.13419968422115"><ele>172.0</ele><time>2026-05-03T14:40:06Z</time></trkpt><trkpt lat="56.02006947886518" lon="22.13436131792088"><ele>172.0</ele><time>2026-05-03T14:40:08Z</time></trkpt><trkpt lat="56.02007945534458" lon="22.13449099352909"><ele>172.0</ele><time>2026-05-03T14:40:10Z</time></trkpt><trkpt lat="56.02007630541372" lon="22.13463258449817"><ele>172.0</ele><time>2026-05-03T14:40:20Z</time></trkpt><trkpt lat="56.02006728636996" lon="22.13479057602294"><ele>172.16666666666669</ele><time>2026-05-03T14:40:25Z</time></trkpt><trkpt lat="56.02007354401735" lon="22.13462089524424"><ele>172.33333333333334</ele><time>2026-05-03T14:41:29Z</time></trkpt><trkpt lat="56.02013852176186" lon="22.13469530650599"><ele>172.5</ele><time>2026-05-03T14:41:45Z</time></trkpt><trkpt lat="56.020192983062856" lon="22.134771553329273"><ele>172.66666666666666</ele><time>2026-05-03T14:41:49Z</time></trkpt><trkpt lat="56.02029752485632" lon="22.134749926000396"><ele>172.83333333333331</ele><time>2026-05-03T14:41:51Z</time></trkpt><trkpt lat="56.02037643575215" lon="22.13470796436715"><ele>173.0</ele><time>2026-05-03T14:41:53Z</time></trkpt><trkpt lat="56.020453905824674" lon="22.13459271418489"><ele>173.0</ele><time>2026-05-03T14:41:55Z</time></trkpt><trkpt lat="56.020521995956" lon="22.13452105081765"><ele>173.0</ele><time>2026-05-03T14:41:57Z</time></trkpt><trkpt lat="56.02059198477134" lon="22.134377219828327"><ele>173.0</ele><time>2026-05-03T14:42:00Z</time></trkpt><trkpt lat="56.02066968402054" lon="22.134295125833265"><ele>173.0</ele><time>2026-05-03T14:42:02Z</time></trkpt><trkpt lat="56.02069681776426" lon="22.134136257628192"><ele>173.0</ele><time>2026-05-03T14:42:04Z</time></trkpt><trkpt lat="56.0207155070229" lon="22.133965123846302"><ele>172.8</ele><time>2026-05-03T14:42:06Z</time></trkpt><trkpt lat="56.02074754327954" lon="22.13383776419052"><ele>172.60000000000002</ele><time>2026-05-03T14:42:08Z</time></trkpt><trkpt lat="56.02078571124322" lon="22.133674754124154"><ele>172.39999999999998</ele><time>2026-05-03T14:42:10Z</time></trkpt><trkpt lat="56.020822564645634" lon="22.133519438460958"><ele>172.2</ele><time>2026-05-03T14:42:12Z</time></trkpt><trkpt lat="56.02087112314096" lon="22.133344061037533"><ele>172.0</ele><time>2026-05-03T14:42:14Z</time></trkpt><trkpt lat="56.020933911218144" lon="22.13316489052918"><ele>176.0</ele><time>2026-05-03T14:42:16Z</time></trkpt><trkpt lat="56.02100442819559" lon="22.132995707507188"><ele>180.0</ele><time>2026-05-03T14:42:18Z</time></trkpt><trkpt lat="56.02105583715002" lon="22.1328422443487"><ele>184.0</ele><time>2026-05-03T14:42:20Z</time></trkpt><trkpt lat="56.02111453498686" lon="22.132642010161145"><ele>188.0</ele><time>2026-05-03T14:42:22Z</time></trkpt><trkpt lat="56.02114222206627" lon="22.13244426927748"><ele>188.0</ele><time>2026-05-03T14:42:24Z</time></trkpt><trkpt lat="56.021167323982084" lon="22.13226499224441"><ele>188.0</ele><time>2026-05-03T14:42:26Z</time></trkpt><trkpt lat="56.021191942234644" lon="22.132089168941242"><ele>188.0</ele><time>2026-05-03T14:42:28Z</time></trkpt><trkpt lat="56.02122954854707" lon="22.131908315406253"><ele>188.0</ele><time>2026-05-03T14:42:30Z</time></trkpt><trkpt lat="56.021264113307964" lon="22.131743904981036"><ele>188.0</ele><time>2026-05-03T14:42:32Z</time></trkpt><trkpt lat="56.02131065172808" lon="22.13152453846264"><ele>188.0</ele><time>2026-05-03T14:42:34Z</time></trkpt><trkpt lat="56.02134587209843" lon="22.13137499415594"><ele>188.0</ele><time>2026-05-03T14:42:36Z</time></trkpt><trkpt lat="56.02138446611613" lon="22.131193319551688"><ele>188.0</ele><time>2026-05-03T14:42:38Z</time></trkpt><trkpt lat="56.02141390221118" lon="22.131037559185188"><ele>188.0</ele><time>2026-05-03T14:42:40Z</time></trkpt><trkpt lat="56.021453603353635" lon="22.130856628705267"><ele>188.0</ele><time>2026-05-03T14:42:42Z</time></trkpt><trkpt lat="56.021493301687755" lon="22.13069597635449"><ele>187.75</ele><time>2026-05-03T14:42:44Z</time></trkpt><trkpt lat="56.021524103829925" lon="22.130529504554918"><ele>187.5</ele><time>2026-05-03T14:42:46Z</time></trkpt><trkpt lat="56.02154917533686" lon="22.130333802879353"><ele>187.25</ele><time>2026-05-03T14:42:48Z</time></trkpt><trkpt lat="56.02154829438836" lon="22.130115145686524"><ele>187.0</ele><time>2026-05-03T14:42:50Z</time></trkpt><trkpt lat="56.02156753230562" lon="22.12990303506859"><ele>186.6</ele><time>2026-05-03T14:42:52Z</time></trkpt><trkpt lat="56.021588749068016" lon="22.12970059798129"><ele>186.2</ele><time>2026-05-03T14:42:54Z</time></trkpt><trkpt lat="56.02161966757568" lon="22.129535050828835"><ele>185.8</ele><time>2026-05-03T14:42:56Z</time></trkpt><trkpt lat="56.021655807565914" lon="22.129335711901838"><ele>185.4</ele><time>2026-05-03T14:42:58Z</time></trkpt><trkpt lat="56.02170192006667" lon="22.129140978677558"><ele>185.0</ele><time>2026-05-03T14:43:00Z</time></trkpt><trkpt lat="56.021730064652154" lon="22.128926966170315"><ele>185.8</ele><time>2026-05-03T14:43:02Z</time></trkpt><trkpt lat="56.02177889539834" lon="22.128744370875964"><ele>186.6</ele><time>2026-05-03T14:43:04Z</time></trkpt><trkpt lat="56.02182442821792" lon="22.128526112675598"><ele>187.39999999999998</ele><time>2026-05-03T14:43:06Z</time></trkpt><trkpt lat="56.021847233139894" lon="22.128399404740925"><ele>188.2</ele><time>2026-05-03T14:43:07Z</time></trkpt><trkpt lat="56.02186698658982" lon="22.128289544628174"><ele>189.0</ele><time>2026-05-03T14:43:08Z</time></trkpt><trkpt lat="56.02190097531481" lon="22.12807792837689"><ele>189.0</ele><time>2026-05-03T14:43:10Z</time></trkpt><trkpt lat="56.02195719187545" lon="22.127905667007404"><ele>189.0</ele><time>2026-05-03T14:43:12Z</time></trkpt><trkpt lat="56.0219821001691" lon="22.12779640214394"><ele>189.0</ele><time>2026-05-03T14:43:14Z</time></trkpt><trkpt lat="56.02209320669806" lon="22.127764671643217"><ele>189.0</ele><time>2026-05-03T14:43:37Z</time></trkpt><trkpt lat="56.02217223796114" lon="22.127963519242382"><ele>189.0</ele><time>2026-05-03T14:43:38Z</time></trkpt><trkpt lat="56.02223972767221" lon="22.128000370018633"><ele>189.0</ele><time>2026-05-03T14:43:40Z</time></trkpt><trkpt lat="56.02230652729323" lon="22.12805056294847"><ele>189.0</ele><time>2026-05-03T14:43:42Z</time></trkpt><trkpt lat="56.022363160011466" lon="22.1281053684959"><ele>189.0</ele><time>2026-05-03T14:43:44Z</time></trkpt><trkpt lat="56.02244024194666" lon="22.128185257430587"><ele>189.0</ele><time>2026-05-03T14:43:47Z</time></trkpt><trkpt lat="56.022482417031604" lon="22.128274027211322"><ele>189.0</ele><time>2026-05-03T14:43:50Z</time></trkpt><trkpt lat="56.022500354807505" lon="22.128389879416325"><ele>189.0</ele><time>2026-05-03T14:43:54Z</time></trkpt><trkpt lat="56.02254397739743" lon="22.128511336549423"><ele>189.0</ele><time>2026-05-03T14:44:04Z</time></trkpt><trkpt lat="56.02252747099375" lon="22.12864419996948"><ele>188.33333333333334</ele><time>2026-05-03T14:44:07Z</time></trkpt><trkpt lat="56.02253099207023" lon="22.12876910862789"><ele>187.66666666666666</ele><time>2026-05-03T14:44:10Z</time></trkpt><trkpt lat="56.022530031914535" lon="22.128891995470664"><ele>187.0</ele><time>2026-05-03T14:44:13Z</time></trkpt><trkpt lat="56.02254886116211" lon="22.129013906764218"><ele>186.33333333333331</ele><time>2026-05-03T14:44:15Z</time></trkpt><trkpt lat="56.02257740285855" lon="22.129156727282197"><ele>185.66666666666666</ele><time>2026-05-03T14:44:19Z</time></trkpt><trkpt lat="56.02263927031007" lon="22.129255905006204"><ele>185.0</ele><time>2026-05-03T14:44:22Z</time></trkpt><trkpt lat="56.02272003318105" lon="22.129288897722315"><ele>185.0</ele><time>2026-05-03T14:44:26Z</time></trkpt><trkpt lat="56.02281707978601" lon="22.1292259832648"><ele>185.0</ele><time>2026-05-03T14:44:28Z</time></trkpt><trkpt lat="56.02289475642701" lon="22.12913498005653"><ele>185.0</ele><time>2026-05-03T14:44:30Z</time></trkpt><trkpt lat="56.02295430561535" lon="22.129051611313546"><ele>185.0</ele><time>2026-05-03T14:44:32Z</time></trkpt><trkpt lat="56.0230163945323" lon="22.128963891298657"><ele>185.0</ele><time>2026-05-03T14:44:34Z</time></trkpt><trkpt lat="56.02308930320681" lon="22.128860819427913"><ele>185.0</ele><time>2026-05-03T14:44:36Z</time></trkpt><trkpt lat="56.023162896240855" lon="22.12875677998309"><ele>184.83333333333331</ele><time>2026-05-03T14:44:38Z</time></trkpt><trkpt lat="56.02323600230803" lon="22.128653274965835"><ele>184.66666666666666</ele><time>2026-05-03T14:44:40Z</time></trkpt><trkpt lat="56.023307206891786" lon="22.128558332735032"><ele>184.5</ele><time>2026-05-03T14:44:43Z</time></trkpt><trkpt lat="56.0233788113444" lon="22.12851819653278"><ele>184.33333333333334</ele><time>2026-05-03T14:44:46Z</time></trkpt><trkpt lat="56.02339909077656" lon="22.128655231733873"><ele>184.16666666666669</ele><time>2026-05-03T14:44:48Z</time></trkpt><trkpt lat="56.02337604982436" lon="22.12879622071993"><ele>184.0</ele><time>2026-05-03T14:44:50Z</time></trkpt><trkpt lat="56.023336757382246" lon="22.12891997532682"><ele>184.2</ele><time>2026-05-03T14:44:52Z</time></trkpt><trkpt lat="56.02327500373335" lon="22.129063463215033"><ele>184.39999999999998</ele><time>2026-05-03T14:44:54Z</time></trkpt><trkpt lat="56.02322372197639" lon="22.12920381174766"><ele>184.6</ele><time>2026-05-03T14:44:56Z</time></trkpt><trkpt lat="56.023177672788755" lon="22.1293431005827"><ele>184.8</ele><time>2026-05-03T14:44:58Z</time></trkpt><trkpt lat="56.023135918323284" lon="22.129494047246986"><ele>185.0</ele><time>2026-05-03T14:45:00Z</time></trkpt><trkpt lat="56.023111033528345" lon="22.129656321042948"><ele>185.0</ele><time>2026-05-03T14:45:02Z</time></trkpt><trkpt lat="56.02310486113569" lon="22.129794363177126"><ele>185.0</ele><time>2026-05-03T14:45:04Z</time></trkpt><trkpt lat="56.023104733341206" lon="22.12995759434682"><ele>185.0</ele><time>2026-05-03T14:45:07Z</time></trkpt><trkpt lat="56.02308864695813" lon="22.130076817979578"><ele>185.0</ele><time>2026-05-03T14:45:09Z</time></trkpt><trkpt lat="56.02306575036679" lon="22.130189975796945"><ele>185.0</ele><time>2026-05-03T14:45:11Z</time></trkpt><trkpt lat="56.023021720994215" lon="22.130320553262774"><ele>185.0</ele><time>2026-05-03T14:45:13Z</time></trkpt><trkpt lat="56.022988304195685" lon="22.130480588532155"><ele>184.99999999999997</ele><time>2026-05-03T14:45:15Z</time></trkpt><trkpt lat="56.022962057281035" lon="22.130613363142167"><ele>185.0</ele><time>2026-05-03T14:45:17Z</time></trkpt><trkpt lat="56.02295597552939" lon="22.130740425520237"><ele>185.0</ele><time>2026-05-03T14:45:19Z</time></trkpt><trkpt lat="56.02294312494049" lon="22.13086527740963"><ele>185.0</ele><time>2026-05-03T14:45:21Z</time></trkpt><trkpt lat="56.022951228562675" lon="22.131007886664232"><ele>185.0</ele><time>2026-05-03T14:45:23Z</time></trkpt><trkpt lat="56.022951648951285" lon="22.131121114485843"><ele>184.99999999999997</ele><time>2026-05-03T14:45:25Z</time></trkpt><trkpt lat="56.02294542253656" lon="22.131259214643272"><ele>185.0</ele><time>2026-05-03T14:45:27Z</time></trkpt><trkpt lat="56.022950299916076" lon="22.131388429838992"><ele>186.0</ele><time>2026-05-03T14:45:29Z</time></trkpt><trkpt lat="56.02297180118802" lon="22.131559368094305"><ele>187.0</ele><time>2026-05-03T14:45:32Z</time></trkpt><trkpt lat="56.022992489605386" lon="22.131666241975267"><ele>188.0</ele><time>2026-05-03T14:45:34Z</time></trkpt><trkpt lat="56.022998560811345" lon="22.1318075662669"><ele>189.0</ele><time>2026-05-03T14:45:37Z</time></trkpt><trkpt lat="56.02295928043284" lon="22.13196999803802"><ele>190.0</ele><time>2026-05-03T14:45:39Z</time></trkpt><trkpt lat="56.022922782714026" lon="22.132094485347462"><ele>191.0</ele><time>2026-05-03T14:45:41Z</time></trkpt><trkpt lat="56.02290142561007" lon="22.132236322800445"><ele>191.33333333333331</ele><time>2026-05-03T14:45:43Z</time></trkpt><trkpt lat="56.02289844260324" lon="22.13239073435384"><ele>191.66666666666666</ele><time>2026-05-03T14:45:45Z</time></trkpt><trkpt lat="56.022917193564965" lon="22.132543984506263"><ele>192.0</ele><time>2026-05-03T14:45:47Z</time></trkpt><trkpt lat="56.02293562252116" lon="22.13268953809793"><ele>192.33333333333331</ele><time>2026-05-03T14:45:49Z</time></trkpt><trkpt lat="56.022950373340734" lon="22.132837873654196"><ele>192.66666666666666</ele><time>2026-05-03T14:45:51Z</time></trkpt><trkpt lat="56.02294818220066" lon="22.132983280121945"><ele>193.0</ele><time>2026-05-03T14:45:53Z</time></trkpt><trkpt lat="56.02294042209207" lon="22.13315808186371"><ele>193.2</ele><time>2026-05-03T14:45:56Z</time></trkpt><trkpt lat="56.02293155916156" lon="22.13336109819107"><ele>193.4</ele><time>2026-05-03T14:45:58Z</time></trkpt><trkpt lat="56.02293312398998" lon="22.133515376373"><ele>193.6</ele><time>2026-05-03T14:46:00Z</time></trkpt><trkpt lat="56.022937781960856" lon="22.133669076795158"><ele>193.79999999999998</ele><time>2026-05-03T14:46:02Z</time></trkpt><trkpt lat="56.02294354820007" lon="22.133821393575246"><ele>194.0</ele><time>2026-05-03T14:46:04Z</time></trkpt><trkpt lat="56.02294592892251" lon="22.133970817022607"><ele>194.00000000000003</ele><time>2026-05-03T14:46:06Z</time></trkpt><trkpt lat="56.02296766041283" lon="22.13412509850356"><ele>194.0</ele><time>2026-05-03T14:46:08Z</time></trkpt><trkpt lat="56.022994048767124" lon="22.134251075481025"><ele>194.0</ele><time>2026-05-03T14:46:10Z</time></trkpt><trkpt lat="56.023013281982124" lon="22.13437852790008"><ele>194.0</ele><time>2026-05-03T14:46:12Z</time></trkpt><trkpt lat="56.02302363282365" lon="22.134512157079225"><ele>194.00000000000003</ele><time>2026-05-03T14:46:14Z</time></trkpt><trkpt lat="56.023026108904354" lon="22.134639797902874"><ele>194.0</ele><time>2026-05-03T14:46:16Z</time></trkpt><trkpt lat="56.023021143146906" lon="22.13478262997738"><ele>193.66666666666669</ele><time>2026-05-03T14:46:18Z</time></trkpt><trkpt lat="56.02301117434281" lon="22.134923428867364"><ele>193.33333333333334</ele><time>2026-05-03T14:46:21Z</time></trkpt><trkpt lat="56.023011328677754" lon="22.135083443838827"><ele>193.0</ele><time>2026-05-03T14:46:24Z</time></trkpt><trkpt lat="56.02301660809984" lon="22.135204995539226"><ele>192.66666666666669</ele><time>2026-05-03T14:46:26Z</time></trkpt><trkpt lat="56.02302271199758" lon="22.135338341328467"><ele>192.33333333333334</ele><time>2026-05-03T14:46:28Z</time></trkpt><trkpt lat="56.023026245840605" lon="22.135480342124726"><ele>192.0</ele><time>2026-05-03T14:46:30Z</time></trkpt><trkpt lat="56.02302442642085" lon="22.135602075111017"><ele>191.83333333333334</ele><time>2026-05-03T14:46:32Z</time></trkpt><trkpt lat="56.02303123834129" lon="22.135743477460295"><ele>191.66666666666666</ele><time>2026-05-03T14:46:34Z</time></trkpt><trkpt lat="56.02302833217187" lon="22.135902581587704"><ele>191.5</ele><time>2026-05-03T14:46:36Z</time></trkpt><trkpt lat="56.02303053291096" lon="22.13604121009725"><ele>191.33333333333331</ele><time>2026-05-03T14:46:38Z</time></trkpt><trkpt lat="56.023028968680094" lon="22.13616476414139"><ele>191.16666666666666</ele><time>2026-05-03T14:46:40Z</time></trkpt><trkpt lat="56.02301848152669" lon="22.136285392686233"><ele>191.0</ele><time>2026-05-03T14:46:42Z</time></trkpt><trkpt lat="56.02301890710625" lon="22.136453412096504"><ele>190.83333333333331</ele><time>2026-05-03T14:46:45Z</time></trkpt><trkpt lat="56.023016297721085" lon="22.136613789828708"><ele>190.66666666666666</ele><time>2026-05-03T14:46:49Z</time></trkpt><trkpt lat="56.02301813123268" lon="22.13676614215576"><ele>190.5</ele><time>2026-05-03T14:46:51Z</time></trkpt><trkpt lat="56.02303281480798" lon="22.13690595424429"><ele>190.33333333333334</ele><time>2026-05-03T14:46:53Z</time></trkpt><trkpt lat="56.023048810645165" lon="22.137042116740496"><ele>190.16666666666669</ele><time>2026-05-03T14:46:55Z</time></trkpt><trkpt lat="56.02305376610854" lon="22.137162255424176"><ele>190.0</ele><time>2026-05-03T14:46:57Z</time></trkpt><trkpt lat="56.02304575365241" lon="22.137309126098906"><ele>189.66666666666669</ele><time>2026-05-03T14:47:00Z</time></trkpt><trkpt lat="56.023026196827914" lon="22.137456515241816"><ele>189.33333333333334</ele><time>2026-05-03T14:47:03Z</time></trkpt><trkpt lat="56.02299592483764" lon="22.137577144480726"><ele>189.0</ele><time>2026-05-03T14:47:05.001Z</time></trkpt><trkpt lat="56.022964652301255" lon="22.137730196028276"><ele>188.66666666666666</ele><time>2026-05-03T14:47:07.001Z</time></trkpt><trkpt lat="56.022947575075584" lon="22.137851170059943"><ele>188.33333333333331</ele><time>2026-05-03T14:47:10.001Z</time></trkpt><trkpt lat="56.022936000294536" lon="22.137983082100895"><ele>188.0</ele><time>2026-05-03T14:47:12.001Z</time></trkpt><trkpt lat="56.022936848902276" lon="22.13811192337931"><ele>188.0</ele><time>2026-05-03T14:47:14.001Z</time></trkpt><trkpt lat="56.022944923880054" lon="22.13823302891597"><ele>188.0</ele><time>2026-05-03T14:47:16.001Z</time></trkpt><trkpt lat="56.022953944370094" lon="22.138357652453962"><ele>188.0</ele><time>2026-05-03T14:47:18.001Z</time></trkpt><trkpt lat="56.02297523106001" lon="22.138479756345735"><ele>188.0</ele><time>2026-05-03T14:47:20.001Z</time></trkpt><trkpt lat="56.02302350521276" lon="22.13860019960107"><ele>188.0</ele><time>2026-05-03T14:47:22Z</time></trkpt><trkpt lat="56.02307453608881" lon="22.13867601573503"><ele>188.0</ele><time>2026-05-03T14:47:24Z</time></trkpt><trkpt lat="56.023146919820874" lon="22.13876923998126"><ele>188.0</ele><time>2026-05-03T14:47:27Z</time></trkpt><trkpt lat="56.02320379769662" lon="22.138852248059806"><ele>188.0</ele><time>2026-05-03T14:47:29Z</time></trkpt><trkpt lat="56.02325960684287" lon="22.13892179500895"><ele>188.0</ele><time>2026-05-03T14:48:00Z</time></trkpt><trkpt lat="56.02330926797044" lon="22.139017033379876"><ele>188.0</ele><time>2026-05-03T14:48:04Z</time></trkpt><trkpt lat="56.02339689290934" lon="22.139071986322058"><ele>188.0</ele><time>2026-05-03T14:48:14Z</time></trkpt><trkpt lat="56.02346113328338" lon="22.139129987132172"><ele>188.0</ele><time>2026-05-03T14:48:16Z</time></trkpt><trkpt lat="56.02352092744736" lon="22.139214049674724"><ele>188.0</ele><time>2026-05-03T14:48:18Z</time></trkpt><trkpt lat="56.023574996534165" lon="22.139335891328514"><ele>188.66666666666666</ele><time>2026-05-03T14:48:21Z</time></trkpt><trkpt lat="56.02360677283739" lon="22.13947090112748"><ele>189.33333333333331</ele><time>2026-05-03T14:48:23Z</time></trkpt><trkpt lat="56.023606826146235" lon="22.139593750173688"><ele>190.0</ele><time>2026-05-03T14:48:25Z</time></trkpt><trkpt lat="56.02359835767691" lon="22.13972559026456"><ele>190.66666666666666</ele><time>2026-05-03T14:48:27Z</time></trkpt><trkpt lat="56.02357605507992" lon="22.13989775428551"><ele>191.33333333333334</ele><time>2026-05-03T14:48:29Z</time></trkpt><trkpt lat="56.02354806077174" lon="22.140067954161655"><ele>192.0</ele><time>2026-05-03T14:48:31Z</time></trkpt><trkpt lat="56.02351625159307" lon="22.140196816517857"><ele>192.0</ele><time>2026-05-03T14:48:34Z</time></trkpt><trkpt lat="56.02347579597626" lon="22.140335847750922"><ele>192.0</ele><time>2026-05-03T14:48:37Z</time></trkpt><trkpt lat="56.02345098712665" lon="22.140484394209782"><ele>192.0</ele><time>2026-05-03T14:48:39Z</time></trkpt><trkpt lat="56.02341453596229" lon="22.14062260025861"><ele>192.0</ele><time>2026-05-03T14:48:53Z</time></trkpt><trkpt lat="56.02339374332996" lon="22.140741845078754"><ele>192.0</ele><time>2026-05-03T14:48:55Z</time></trkpt><trkpt lat="56.023378000737594" lon="22.140868348285494"><ele>192.0</ele><time>2026-05-03T14:48:57Z</time></trkpt><trkpt lat="56.02337834585375" lon="22.141004711148437"><ele>191.0</ele><time>2026-05-03T14:48:59Z</time></trkpt><trkpt lat="56.02336710723604" lon="22.141161391492297"><ele>190.0</ele><time>2026-05-03T14:49:01Z</time></trkpt><trkpt lat="56.023330642993066" lon="22.14128188975412"><ele>189.0</ele><time>2026-05-03T14:49:03Z</time></trkpt><trkpt lat="56.023286476556784" lon="22.141386249583"><ele>188.0</ele><time>2026-05-03T14:49:05Z</time></trkpt><trkpt lat="56.02322296210444" lon="22.14150834362593"><ele>187.0</ele><time>2026-05-03T14:49:07Z</time></trkpt><trkpt lat="56.02316642683396" lon="22.141635861963298"><ele>186.0</ele><time>2026-05-03T14:49:09.001Z</time></trkpt><trkpt lat="56.02311615682934" lon="22.141746339242722"><ele>185.60000000000002</ele><time>2026-05-03T14:49:11.001Z</time></trkpt><trkpt lat="56.023070439414035" lon="22.141864200445028"><ele>185.2</ele><time>2026-05-03T14:49:13.001Z</time></trkpt><trkpt lat="56.023022723017725" lon="22.142035599820204"><ele>184.8</ele><time>2026-05-03T14:49:15.001Z</time></trkpt><trkpt lat="56.022968996150105" lon="22.142201422556134"><ele>184.39999999999998</ele><time>2026-05-03T14:49:17.001Z</time></trkpt><trkpt lat="56.022925338577615" lon="22.142353965710072"><ele>184.0</ele><time>2026-05-03T14:49:19.001Z</time></trkpt><trkpt lat="56.02288112992139" lon="22.142445620360395"><ele>184.0</ele><time>2026-05-03T14:49:21.001Z</time></trkpt><trkpt lat="56.02283819930959" lon="22.142543402138475"><ele>184.0</ele><time>2026-05-03T14:49:23.001Z</time></trkpt><trkpt lat="56.022772186991574" lon="22.142683782099454"><ele>184.0</ele><time>2026-05-03T14:49:25.001Z</time></trkpt><trkpt lat="56.02272627671129" lon="22.14282085141874"><ele>184.0</ele><time>2026-05-03T14:49:27Z</time></trkpt><trkpt lat="56.02293370267299" lon="22.14585162299341"><ele>185.16666666666669</ele><time>2026-05-03T14:53:54Z</time></trkpt><trkpt lat="56.02285605558831" lon="22.145881097067015"><ele>186.33333333333334</ele><time>2026-05-03T14:53:58Z</time></trkpt><trkpt lat="56.02285190616287" lon="22.145999120410643"><ele>187.5</ele><time>2026-05-03T14:54:10Z</time></trkpt><trkpt lat="56.02281048012261" lon="22.14590135617526"><ele>188.66666666666666</ele><time>2026-05-03T14:54:35Z</time></trkpt><trkpt lat="56.02280970744229" lon="22.14601783538481"><ele>189.83333333333331</ele><time>2026-05-03T14:55:45Z</time></trkpt><trkpt lat="56.02271189786996" lon="22.145904127687366"><ele>191.0</ele><time>2026-05-03T14:55:49Z</time></trkpt><trkpt lat="56.02283165429912" lon="22.14592420686595"><ele>191.0</ele><time>2026-05-03T14:56:05Z</time></trkpt><trkpt lat="56.02317987932115" lon="22.146382109356143"><ele>191.0</ele><time>2026-05-03T14:56:20Z</time></trkpt><trkpt lat="56.0229879950619" lon="22.146094632368982"><ele>191.0</ele><time>2026-05-03T14:56:25Z</time></trkpt><trkpt lat="56.022912462446385" lon="22.146023022447753"><ele>191.0</ele><time>2026-05-03T14:56:34Z</time></trkpt><trkpt lat="56.02296544888556" lon="22.146089473837414"><ele>191.0</ele><time>2026-05-03T14:56:42Z</time></trkpt><trkpt lat="56.023020605658594" lon="22.146181545544287"><ele>191.0</ele><time>2026-05-03T14:56:44Z</time></trkpt><trkpt lat="56.02307815620886" lon="22.146268248955966"><ele>191.0</ele><time>2026-05-03T14:56:46Z</time></trkpt><trkpt lat="56.023129341922605" lon="22.146379276252173"><ele>191.0</ele><time>2026-05-03T14:56:48Z</time></trkpt><trkpt lat="56.02318966517802" lon="22.14648173424351"><ele>190.83333333333331</ele><time>2026-05-03T14:56:50Z</time></trkpt><trkpt lat="56.02324128162134" lon="22.146573657796928"><ele>190.66666666666666</ele><time>2026-05-03T14:56:52Z</time></trkpt><trkpt lat="56.0233155820684" lon="22.146664796936342"><ele>190.5</ele><time>2026-05-03T14:56:55Z</time></trkpt><trkpt lat="56.02340294685453" lon="22.146756191170496"><ele>190.33333333333334</ele><time>2026-05-03T14:56:57Z</time></trkpt><trkpt lat="56.023480316234625" lon="22.146783886328716"><ele>190.16666666666669</ele><time>2026-05-03T14:56:59Z</time></trkpt><trkpt lat="56.02358267754596" lon="22.146759228991684"><ele>190.0</ele><time>2026-05-03T14:57:01Z</time></trkpt><trkpt lat="56.02365772094592" lon="22.146711940901714"><ele>189.4</ele><time>2026-05-03T14:57:03Z</time></trkpt><trkpt lat="56.023730895943075" lon="22.146649493775797"><ele>188.8</ele><time>2026-05-03T14:57:05Z</time></trkpt><trkpt lat="56.02382448925939" lon="22.14658045400058"><ele>188.2</ele><time>2026-05-03T14:57:07Z</time></trkpt><trkpt lat="56.023909859221" lon="22.146485808663343"><ele>187.6</ele><time>2026-05-03T14:57:09Z</time></trkpt><trkpt lat="56.02399111899866" lon="22.14637374351667"><ele>187.0</ele><time>2026-05-03T14:57:11Z</time></trkpt><trkpt lat="56.02405256233805" lon="22.146264011079193"><ele>187.0</ele><time>2026-05-03T14:57:13Z</time></trkpt><trkpt lat="56.02411383091701" lon="22.146161609999968"><ele>187.0</ele><time>2026-05-03T14:57:15Z</time></trkpt><trkpt lat="56.024173643840456" lon="22.146061148547737"><ele>187.0</ele><time>2026-05-03T14:57:17Z</time></trkpt><trkpt lat="56.02424468027713" lon="22.145957823130015"><ele>187.0</ele><time>2026-05-03T14:57:19Z</time></trkpt><trkpt lat="56.02431958901197" lon="22.14583910515981"><ele>187.0</ele><time>2026-05-03T14:57:21Z</time></trkpt><trkpt lat="56.02437837711816" lon="22.145733405684926"><ele>187.0</ele><time>2026-05-03T14:57:23Z</time></trkpt><trkpt lat="56.02443989352747" lon="22.145620659220985"><ele>186.5</ele><time>2026-05-03T14:57:25Z</time></trkpt><trkpt lat="56.02451141185342" lon="22.14550238859224"><ele>186.0</ele><time>2026-05-03T14:57:27Z</time></trkpt><trkpt lat="56.02457837613522" lon="22.145407175397253"><ele>185.5</ele><time>2026-05-03T14:57:29Z</time></trkpt><trkpt lat="56.02464264540754" lon="22.145304536389418"><ele>185.0</ele><time>2026-05-03T14:57:31Z</time></trkpt><trkpt lat="56.02471179453202" lon="22.145203114669414"><ele>184.5</ele><time>2026-05-03T14:57:32.999Z</time></trkpt><trkpt lat="56.024775645704864" lon="22.145088533590663"><ele>184.0</ele><time>2026-05-03T14:57:34.999Z</time></trkpt><trkpt lat="56.0248490675794" lon="22.144971369513236"><ele>183.79999999999998</ele><time>2026-05-03T14:57:36.999Z</time></trkpt><trkpt lat="56.02491858216751" lon="22.14486116819334"><ele>183.6</ele><time>2026-05-03T14:57:38.998Z</time></trkpt><trkpt lat="56.024989652306644" lon="22.14473807944397"><ele>183.4</ele><time>2026-05-03T14:57:40.998Z</time></trkpt><trkpt lat="56.02505960389635" lon="22.144636710671644"><ele>183.2</ele><time>2026-05-03T14:57:42.998Z</time></trkpt><trkpt lat="56.0251190571819" lon="22.14455209295663"><ele>183.0</ele><time>2026-05-03T14:57:44.998Z</time></trkpt><trkpt lat="56.02517902748612" lon="22.144425980135193"><ele>182.5</ele><time>2026-05-03T14:57:46.998Z</time></trkpt><trkpt lat="56.02523809621669" lon="22.14431694547059"><ele>182.0</ele><time>2026-05-03T14:57:48.998Z</time></trkpt><trkpt lat="56.025318517104175" lon="22.14422090034414"><ele>181.5</ele><time>2026-05-03T14:57:51.997Z</time></trkpt><trkpt lat="56.02538474232061" lon="22.144151606675145"><ele>181.0</ele><time>2026-05-03T14:57:54.997Z</time></trkpt><trkpt lat="56.02546630328271" lon="22.144117714330044"><ele>180.5</ele><time>2026-05-03T14:57:57.997Z</time></trkpt><trkpt lat="56.0255719524921" lon="22.144150506219756"><ele>180.0</ele><time>2026-05-03T14:57:59.997Z</time></trkpt><trkpt lat="56.02563544516228" lon="22.144158401652767"><ele>180.0</ele><time>2026-05-03T14:58:00.997Z</time></trkpt><trkpt lat="56.02570392785778" lon="22.144161907973157"><ele>180.0</ele><time>2026-05-03T14:58:02.997Z</time></trkpt><trkpt lat="56.025798430583485" lon="22.144181716737318"><ele>180.0</ele><time>2026-05-03T14:58:04.997Z</time></trkpt><trkpt lat="56.02591465813965" lon="22.144192373483794"><ele>180.0</ele><time>2026-05-03T14:58:06.997Z</time></trkpt><trkpt lat="56.02600290905154" lon="22.14421279913763"><ele>180.0</ele><time>2026-05-03T14:58:08.997Z</time></trkpt><trkpt lat="56.02607913703386" lon="22.144217177003622"><ele>180.0</ele><time>2026-05-03T14:58:10.997Z</time></trkpt><trkpt lat="56.026138976963466" lon="22.14425583073262"><ele>178.5</ele><time>2026-05-03T14:58:12.997Z</time></trkpt><trkpt lat="56.02618828151885" lon="22.144355877639246"><ele>177.0</ele><time>2026-05-03T14:58:15.997Z</time></trkpt><trkpt lat="56.02662639145886" lon="22.14426633056401"><ele>176.42857142857144</ele><time>2026-05-03T14:58:50.997Z</time></trkpt><trkpt lat="56.02669769001966" lon="22.144260638267006"><ele>175.85714285714283</ele><time>2026-05-03T14:58:52.997Z</time></trkpt><trkpt lat="56.0267638648676" lon="22.144248833113156"><ele>175.28571428571428</ele><time>2026-05-03T14:58:54.997Z</time></trkpt><trkpt lat="56.02684201529961" lon="22.144237475095867"><ele>174.71428571428572</ele><time>2026-05-03T14:58:56.997Z</time></trkpt><trkpt lat="56.026913349843355" lon="22.144238338519923"><ele>174.14285714285717</ele><time>2026-05-03T14:58:59.997Z</time></trkpt><trkpt lat="56.02697903953664" lon="22.14425603256928"><ele>173.57142857142856</ele><time>2026-05-03T14:59:01.997Z</time></trkpt><trkpt lat="56.027058923433486" lon="22.14426560850096"><ele>173.0</ele><time>2026-05-03T14:59:03.997Z</time></trkpt><trkpt lat="56.027138143140114" lon="22.144264024965864"><ele>173.0</ele><time>2026-05-03T14:59:05.997Z</time></trkpt><trkpt lat="56.02721742006372" lon="22.1442722752687"><ele>173.0</ele><time>2026-05-03T14:59:07.997Z</time></trkpt><trkpt lat="56.027304218974706" lon="22.144280856190345"><ele>173.0</ele><time>2026-05-03T14:59:10.997Z</time></trkpt><trkpt lat="56.02738510546104" lon="22.14437518451926"><ele>173.0</ele><time>2026-05-03T14:59:13.997Z</time></trkpt><trkpt lat="56.02742829309524" lon="22.144495095767553"><ele>173.0</ele><time>2026-05-03T14:59:15.997Z</time></trkpt><trkpt lat="56.0274572059106" lon="22.144600283880532"><ele>173.0</ele><time>2026-05-03T14:59:17.997Z</time></trkpt><trkpt lat="56.027505559821904" lon="22.144709912511097"><ele>172.0</ele><time>2026-05-03T14:59:19.997Z</time></trkpt><trkpt lat="56.02757735157109" lon="22.144770059038233"><ele>171.0</ele><time>2026-05-03T14:59:22.997Z</time></trkpt><trkpt lat="56.027638551035" lon="22.144737305049258"><ele>170.0</ele><time>2026-05-03T14:59:25.997Z</time></trkpt><trkpt lat="56.027649449762244" lon="22.144854367615924"><ele>169.0</ele><time>2026-05-03T15:00:08Z</time></trkpt><trkpt lat="56.02766026128109" lon="22.144686122444124"><ele>168.0</ele><time>2026-05-03T15:01:10Z</time></trkpt><trkpt lat="56.02770808564606" lon="22.144604489683708"><ele>167.0</ele><time>2026-05-03T15:01:19Z</time></trkpt><trkpt lat="56.02771747809308" lon="22.14446499278685"><ele>166.0</ele><time>2026-05-03T15:01:24Z</time></trkpt><trkpt lat="56.02777210872311" lon="22.14440727925934"><ele>166.0</ele><time>2026-05-03T15:01:51Z</time></trkpt><trkpt lat="56.02782260066795" lon="22.144335161131345"><ele>166.0</ele><time>2026-05-03T15:02:03Z</time></trkpt><trkpt lat="56.02776509915821" lon="22.14439868375499"><ele>166.0</ele><time>2026-05-03T15:03:12Z</time></trkpt><trkpt lat="56.02771190532529" lon="22.144480939018084"><ele>166.0</ele><time>2026-05-03T15:03:18Z</time></trkpt><trkpt lat="56.02764524237551" lon="22.144524957101904"><ele>166.0</ele><time>2026-05-03T15:03:25Z</time></trkpt><trkpt lat="56.02762929866546" lon="22.144652668693606"><ele>166.0</ele><time>2026-05-03T15:04:20Z</time></trkpt><trkpt lat="56.02762090689765" lon="22.144774364271886"><ele>166.0</ele><time>2026-05-03T15:05:11Z</time></trkpt><trkpt lat="56.027596221997946" lon="22.144659303084023"><ele>166.0</ele><time>2026-05-03T15:06:24Z</time></trkpt><trkpt lat="56.0275197552707" lon="22.14469006444838"><ele>166.0</ele><time>2026-05-03T15:06:27Z</time></trkpt><trkpt lat="56.02746496233211" lon="22.144611710882963"><ele>166.0</ele><time>2026-05-03T15:06:30Z</time></trkpt><trkpt lat="56.027427649555534" lon="22.144480575261156"><ele>166.0</ele><time>2026-05-03T15:06:33Z</time></trkpt><trkpt lat="56.027382828001834" lon="22.14438839631805"><ele>166.0</ele><time>2026-05-03T15:06:35Z</time></trkpt><trkpt lat="56.02731736239444" lon="22.144288813442756"><ele>166.0</ele><time>2026-05-03T15:06:37Z</time></trkpt><trkpt lat="56.02725503020473" lon="22.144269960403218"><ele>166.0</ele><time>2026-05-03T15:06:39Z</time></trkpt><trkpt lat="56.02718772224398" lon="22.144267102854425"><ele>167.16666666666669</ele><time>2026-05-03T15:06:41Z</time></trkpt><trkpt lat="56.027121085402854" lon="22.144258471191716"><ele>168.33333333333334</ele><time>2026-05-03T15:06:42Z</time></trkpt><trkpt lat="56.027040993529845" lon="22.144254257825178"><ele>169.5</ele><time>2026-05-03T15:06:44Z</time></trkpt><trkpt lat="56.02694915113679" lon="22.14424732333076"><ele>170.66666666666666</ele><time>2026-05-03T15:06:47Z</time></trkpt><trkpt lat="56.02686480692757" lon="22.144216822736382"><ele>171.83333333333331</ele><time>2026-05-03T15:06:49Z</time></trkpt><trkpt lat="56.026784792638736" lon="22.14423684147996"><ele>173.0</ele><time>2026-05-03T15:06:51Z</time></trkpt><trkpt lat="56.02671597265898" lon="22.14424212002346"><ele>173.66666666666666</ele><time>2026-05-03T15:06:53Z</time></trkpt><trkpt lat="56.02662055054769" lon="22.144244581267266"><ele>174.33333333333331</ele><time>2026-05-03T15:06:55Z</time></trkpt><trkpt lat="56.026524016498264" lon="22.14426761417419"><ele>175.0</ele><time>2026-05-03T15:06:57Z</time></trkpt><trkpt lat="56.026436749468786" lon="22.144274813358273"><ele>175.66666666666666</ele><time>2026-05-03T15:06:59Z</time></trkpt><trkpt lat="56.02635986079875" lon="22.14427386678885"><ele>176.33333333333334</ele><time>2026-05-03T15:07:01Z</time></trkpt><trkpt lat="56.02628090841636" lon="22.14434240670906"><ele>177.0</ele><time>2026-05-03T15:07:04Z</time></trkpt><trkpt lat="56.02627756240617" lon="22.144499222773472"><ele>177.0</ele><time>2026-05-03T15:07:08Z</time></trkpt><trkpt lat="56.02633119061864" lon="22.14462078669303"><ele>177.0</ele><time>2026-05-03T15:07:10Z</time></trkpt><trkpt lat="56.026374546500435" lon="22.144758575382063"><ele>177.0</ele><time>2026-05-03T15:07:12Z</time></trkpt><trkpt lat="56.0264275930944" lon="22.144898571623642"><ele>177.0</ele><time>2026-05-03T15:07:14Z</time></trkpt><trkpt lat="56.026474904752774" lon="22.14505663293736"><ele>177.0</ele><time>2026-05-03T15:07:16Z</time></trkpt><trkpt lat="56.026516693186075" lon="22.14523375067972"><ele>176.83333333333334</ele><time>2026-05-03T15:07:18Z</time></trkpt><trkpt lat="56.026561337439006" lon="22.145366148907154"><ele>176.66666666666666</ele><time>2026-05-03T15:07:20Z</time></trkpt><trkpt lat="56.02660501593627" lon="22.145494377260487"><ele>176.5</ele><time>2026-05-03T15:07:22Z</time></trkpt><trkpt lat="56.02666502486086" lon="22.14561735582086"><ele>176.33333333333331</ele><time>2026-05-03T15:07:24Z</time></trkpt><trkpt lat="56.02673162303051" lon="22.14570637590114"><ele>176.16666666666666</ele><time>2026-05-03T15:07:26Z</time></trkpt><trkpt lat="56.026791405646144" lon="22.1457503200317"><ele>176.0</ele><time>2026-05-03T15:07:28Z</time></trkpt><trkpt lat="56.02686414492257" lon="22.145795028590722"><ele>177.33333333333331</ele><time>2026-05-03T15:07:30Z</time></trkpt><trkpt lat="56.02696022492377" lon="22.145808380878606"><ele>178.66666666666666</ele><time>2026-05-03T15:07:32Z</time></trkpt><trkpt lat="56.02703977267158" lon="22.145851089356796"><ele>180.0</ele><time>2026-05-03T15:07:34Z</time></trkpt><trkpt lat="56.02712333341172" lon="22.14589045831537"><ele>181.33333333333334</ele><time>2026-05-03T15:07:36Z</time></trkpt><trkpt lat="56.02720100970149" lon="22.14596183350108"><ele>182.66666666666669</ele><time>2026-05-03T15:07:38Z</time></trkpt><trkpt lat="56.02726634484486" lon="22.145975255291923"><ele>184.0</ele><time>2026-05-03T15:07:40Z</time></trkpt><trkpt lat="56.02732784415504" lon="22.14606083841529"><ele>184.0</ele><time>2026-05-03T15:07:42Z</time></trkpt><trkpt lat="56.0273746562139" lon="22.14618791024104"><ele>184.0</ele><time>2026-05-03T15:07:44Z</time></trkpt><trkpt lat="56.02740711081616" lon="22.146307730643745"><ele>184.0</ele><time>2026-05-03T15:07:45Z</time></trkpt><trkpt lat="56.027440972523884" lon="22.146416202943534"><ele>184.0</ele><time>2026-05-03T15:07:46Z</time></trkpt><trkpt lat="56.02749083858881" lon="22.14650035074178"><ele>184.0</ele><time>2026-05-03T15:07:48Z</time></trkpt><trkpt lat="56.02754898722653" lon="22.146573651918246"><ele>184.0</ele><time>2026-05-03T15:07:50Z</time></trkpt><trkpt lat="56.02764029540779" lon="22.14667187729721"><ele>183.79999999999998</ele><time>2026-05-03T15:07:53Z</time></trkpt><trkpt lat="56.02772499009304" lon="22.1467941177045"><ele>183.6</ele><time>2026-05-03T15:07:55Z</time></trkpt><trkpt lat="56.02779508208728" lon="22.146885117030035"><ele>183.4</ele><time>2026-05-03T15:07:57Z</time></trkpt><trkpt lat="56.02785963522367" lon="22.147020077794178"><ele>183.2</ele><time>2026-05-03T15:07:59Z</time></trkpt><trkpt lat="56.027925788473134" lon="22.147106878900544"><ele>183.0</ele><time>2026-05-03T15:08:01Z</time></trkpt><trkpt lat="56.02799130031481" lon="22.14720089090215"><ele>183.0</ele><time>2026-05-03T15:08:03Z</time></trkpt><trkpt lat="56.028041242027584" lon="22.147300769172013"><ele>183.0</ele><time>2026-05-03T15:08:05Z</time></trkpt><trkpt lat="56.02809354798681" lon="22.14738225569212"><ele>183.0</ele><time>2026-05-03T15:08:07Z</time></trkpt><trkpt lat="56.02814931892314" lon="22.147473433350456"><ele>183.0</ele><time>2026-05-03T15:08:09Z</time></trkpt><trkpt lat="56.028216339187836" lon="22.147539035947684"><ele>183.0</ele><time>2026-05-03T15:08:11Z</time></trkpt><trkpt lat="56.02828809950496" lon="22.147562269187485"><ele>183.0</ele><time>2026-05-03T15:08:14Z</time></trkpt><trkpt lat="56.0281125199817" lon="22.148008556512625"><ele>184.0</ele><time>2026-05-03T15:08:51Z</time></trkpt><trkpt lat="56.02804154519728" lon="22.148129490822864"><ele>185.0</ele><time>2026-05-03T15:08:53Z</time></trkpt><trkpt lat="56.02797030108744" lon="22.14824558440202"><ele>186.0</ele><time>2026-05-03T15:08:56Z</time></trkpt><trkpt lat="56.027919812475346" lon="22.1483226464152"><ele>187.0</ele><time>2026-05-03T15:08:58Z</time></trkpt><trkpt lat="56.02783908854867" lon="22.148430745957292"><ele>188.0</ele><time>2026-05-03T15:09:01Z</time></trkpt><trkpt lat="56.02775628116541" lon="22.148555600861883"><ele>188.0</ele><time>2026-05-03T15:09:03Z</time></trkpt><trkpt lat="56.02768353400534" lon="22.148679866009523"><ele>188.0</ele><time>2026-05-03T15:09:05Z</time></trkpt><trkpt lat="56.02760963607827" lon="22.14881134999381"><ele>188.0</ele><time>2026-05-03T15:09:07Z</time></trkpt><trkpt lat="56.02754612159994" lon="22.148933996024827"><ele>188.0</ele><time>2026-05-03T15:09:09Z</time></trkpt><trkpt lat="56.027486178767376" lon="22.149046583204857"><ele>188.0</ele><time>2026-05-03T15:09:11Z</time></trkpt><trkpt lat="56.02741732289755" lon="22.149165147420412"><ele>187.83333333333331</ele><time>2026-05-03T15:09:13Z</time></trkpt><trkpt lat="56.02737594494882" lon="22.149259411186954"><ele>187.66666666666666</ele><time>2026-05-03T15:09:15Z</time></trkpt><trkpt lat="56.02734329040531" lon="22.149432952241508"><ele>187.5</ele><time>2026-05-03T15:09:17Z</time></trkpt><trkpt lat="56.02732397557793" lon="22.14960826145045"><ele>187.33333333333334</ele><time>2026-05-03T15:09:19Z</time></trkpt><trkpt lat="56.02731836204687" lon="22.14977468539755"><ele>187.16666666666669</ele><time>2026-05-03T15:09:21Z</time></trkpt><trkpt lat="56.027298036271844" lon="22.149911975141414"><ele>187.0</ele><time>2026-05-03T15:09:23Z</time></trkpt><trkpt lat="56.02728176476377" lon="22.15006141278487"><ele>186.83333333333334</ele><time>2026-05-03T15:09:25Z</time></trkpt><trkpt lat="56.027243380214955" lon="22.15020783471885"><ele>186.66666666666669</ele><time>2026-05-03T15:09:28Z</time></trkpt><trkpt lat="56.027204562978966" lon="22.150298127280085"><ele>186.5</ele><time>2026-05-03T15:09:30Z</time></trkpt><trkpt lat="56.0271310683933" lon="22.150392107948463"><ele>186.33333333333334</ele><time>2026-05-03T15:09:33Z</time></trkpt><trkpt lat="56.027039700540136" lon="22.150411433985994"><ele>186.16666666666666</ele><time>2026-05-03T15:09:35Z</time></trkpt><trkpt lat="56.02695996850273" lon="22.150383047566333"><ele>186.0</ele><time>2026-05-03T15:09:37Z</time></trkpt><trkpt lat="56.02686630442198" lon="22.15037044682728"><ele>186.0</ele><time>2026-05-03T15:09:39Z</time></trkpt><trkpt lat="56.02675658698716" lon="22.1503357150877"><ele>186.0</ele><time>2026-05-03T15:09:41Z</time></trkpt><trkpt lat="56.02668088155498" lon="22.150310332378794"><ele>186.0</ele><time>2026-05-03T15:09:42Z</time></trkpt><trkpt lat="56.02659963981028" lon="22.15029651455698"><ele>186.0</ele><time>2026-05-03T15:09:43Z</time></trkpt><trkpt lat="56.026523328753605" lon="22.15027345751466"><ele>186.0</ele><time>2026-05-03T15:09:45Z</time></trkpt><trkpt lat="56.02642354026217" lon="22.150260704343456"><ele>186.0</ele><time>2026-05-03T15:09:47Z</time></trkpt><trkpt lat="56.02630031349815" lon="22.150213351328976"><ele>186.0</ele><time>2026-05-03T15:09:49Z</time></trkpt><trkpt lat="56.026191032397875" lon="22.150180333998957"><ele>186.0</ele><time>2026-05-03T15:09:51Z</time></trkpt><trkpt lat="56.026060453374896" lon="22.15015044821975"><ele>186.0</ele><time>2026-05-03T15:09:53Z</time></trkpt><trkpt lat="56.025950843441905" lon="22.15013290267569"><ele>186.0</ele><time>2026-05-03T15:09:55Z</time></trkpt><trkpt lat="56.025829920549825" lon="22.150105155046887"><ele>186.0</ele><time>2026-05-03T15:09:57Z</time></trkpt><trkpt lat="56.025766407762966" lon="22.1500992569774"><ele>186.0</ele><time>2026-05-03T15:09:58Z</time></trkpt><trkpt lat="56.0256797565395" lon="22.150068213659768"><ele>186.0</ele><time>2026-05-03T15:10:00Z</time></trkpt><trkpt lat="56.025594125859286" lon="22.15003501279205"><ele>186.0</ele><time>2026-05-03T15:10:02Z</time></trkpt><trkpt lat="56.025522175628005" lon="22.150005900502045"><ele>186.0</ele><time>2026-05-03T15:10:04Z</time></trkpt><trkpt lat="56.02542936518435" lon="22.15005350636293"><ele>186.0</ele><time>2026-05-03T15:10:07Z</time></trkpt><trkpt lat="56.02540587699852" lon="22.150236384084856"><ele>186.0</ele><time>2026-05-03T15:10:10Z</time></trkpt><trkpt lat="56.02542695087156" lon="22.15038174726047"><ele>186.0</ele><time>2026-05-03T15:10:12Z</time></trkpt><trkpt lat="56.025428855584856" lon="22.15050727540698"><ele>186.0</ele><time>2026-05-03T15:10:14Z</time></trkpt><trkpt lat="56.02543265531371" lon="22.15063710565706"><ele>186.0</ele><time>2026-05-03T15:10:16Z</time></trkpt><trkpt lat="56.02543434332974" lon="22.1507975570778"><ele>186.0</ele><time>2026-05-03T15:10:18Z</time></trkpt><trkpt lat="56.02542913514698" lon="22.15095294414561"><ele>186.0</ele><time>2026-05-03T15:10:20Z</time></trkpt><trkpt lat="56.02543593586995" lon="22.15106609098789"><ele>185.5</ele><time>2026-05-03T15:10:22Z</time></trkpt><trkpt lat="56.02543808219377" lon="22.151198241387096"><ele>185.0</ele><time>2026-05-03T15:10:24Z</time></trkpt><trkpt lat="56.02543952147773" lon="22.151313954217915"><ele>184.5</ele><time>2026-05-03T15:10:26Z</time></trkpt><trkpt lat="56.025449514142196" lon="22.151452681049413"><ele>184.0</ele><time>2026-05-03T15:10:34Z</time></trkpt><trkpt lat="56.02542530844069" lon="22.151300469878628"><ele>183.5</ele><time>2026-05-03T15:12:39Z</time></trkpt><trkpt lat="56.025422575858265" lon="22.151176874310085"><ele>183.0</ele><time>2026-05-03T15:12:41Z</time></trkpt><trkpt lat="56.025416453990566" lon="22.151001367303135"><ele>183.0</ele><time>2026-05-03T15:12:43Z</time></trkpt><trkpt lat="56.02541536302564" lon="22.150868108459623"><ele>183.0</ele><time>2026-05-03T15:12:45Z</time></trkpt><trkpt lat="56.02541746613472" lon="22.150711875075412"><ele>183.0</ele><time>2026-05-03T15:12:47Z</time></trkpt><trkpt lat="56.02540586774935" lon="22.150596672981806"><ele>183.0</ele><time>2026-05-03T15:12:49Z</time></trkpt><trkpt lat="56.02540101159387" lon="22.150425994727268"><ele>183.0</ele><time>2026-05-03T15:12:51Z</time></trkpt><trkpt lat="56.02539648199437" lon="22.150282664056228"><ele>183.0</ele><time>2026-05-03T15:12:53Z</time></trkpt><trkpt lat="56.0253892656054" lon="22.150145958260307"><ele>183.5</ele><time>2026-05-03T15:12:55Z</time></trkpt><trkpt lat="56.02543094167705" lon="22.150011610896986"><ele>184.0</ele><time>2026-05-03T15:12:58Z</time></trkpt><trkpt lat="56.02549844698053" lon="22.150011965238583"><ele>184.5</ele><time>2026-05-03T15:13:00Z</time></trkpt><trkpt lat="56.02557736840952" lon="22.150039844046955"><ele>185.0</ele><time>2026-05-03T15:13:02Z</time></trkpt><trkpt lat="56.02568155528134" lon="22.150077143609614"><ele>185.5</ele><time>2026-05-03T15:13:04Z</time></trkpt><trkpt lat="56.02574821222019" lon="22.15009874187094"><ele>186.0</ele><time>2026-05-03T15:13:05Z</time></trkpt><trkpt lat="56.02581170885984" lon="22.150115465480123"><ele>186.0</ele><time>2026-05-03T15:13:06Z</time></trkpt><trkpt lat="56.02590675839924" lon="22.15013102767358"><ele>186.0</ele><time>2026-05-03T15:13:08Z</time></trkpt><trkpt lat="56.025972610116774" lon="22.150133140161813"><ele>186.0</ele><time>2026-05-03T15:13:09Z</time></trkpt><trkpt lat="56.02610237934434" lon="22.150164713597317"><ele>186.0</ele><time>2026-05-03T15:13:11Z</time></trkpt><trkpt lat="56.02622142770139" lon="22.150189816634132"><ele>186.0</ele><time>2026-05-03T15:13:13Z</time></trkpt><trkpt lat="56.02633168835502" lon="22.15020212370988"><ele>186.0</ele><time>2026-05-03T15:13:15Z</time></trkpt><trkpt lat="56.02640026553237" lon="22.150231525840038"><ele>186.0</ele><time>2026-05-03T15:13:17Z</time></trkpt><trkpt lat="56.026468322300545" lon="22.150245228558813"><ele>186.0</ele><time>2026-05-03T15:13:19Z</time></trkpt><trkpt lat="56.026547456198365" lon="22.150269759825036"><ele>186.0</ele><time>2026-05-03T15:13:21Z</time></trkpt><trkpt lat="56.02662744136634" lon="22.150298085410462"><ele>186.0</ele><time>2026-05-03T15:13:23Z</time></trkpt><trkpt lat="56.02673552685672" lon="22.15033054347331"><ele>186.0</ele><time>2026-05-03T15:13:25Z</time></trkpt><trkpt lat="56.026829293851826" lon="22.150360048950915"><ele>186.0</ele><time>2026-05-03T15:13:27Z</time></trkpt><trkpt lat="56.02693593401343" lon="22.15039256416029"><ele>186.0</ele><time>2026-05-03T15:13:29Z</time></trkpt><trkpt lat="56.02704470658747" lon="22.15040836121923"><ele>186.0</ele><time>2026-05-03T15:13:31Z</time></trkpt><trkpt lat="56.02713891374974" lon="22.150356156916505"><ele>186.0</ele><time>2026-05-03T15:13:33Z</time></trkpt><trkpt lat="56.027213141394185" lon="22.150243349630614"><ele>186.0</ele><time>2026-05-03T15:13:35Z</time></trkpt><trkpt lat="56.027247458592846" lon="22.150122462163903"><ele>186.0</ele><time>2026-05-03T15:13:37Z</time></trkpt><trkpt lat="56.0272789561383" lon="22.149975365440014"><ele>186.0</ele><time>2026-05-03T15:13:39Z</time></trkpt><trkpt lat="56.02728758499708" lon="22.149834061829278"><ele>186.0</ele><time>2026-05-03T15:13:41Z</time></trkpt><trkpt lat="56.027309334143034" lon="22.149714754956495"><ele>186.0</ele><time>2026-05-03T15:13:43Z</time></trkpt><trkpt lat="56.02732165709873" lon="22.149586293042073"><ele>186.0</ele><time>2026-05-03T15:13:45Z</time></trkpt><trkpt lat="56.02734126340842" lon="22.149421283898178"><ele>186.0</ele><time>2026-05-03T15:13:47Z</time></trkpt><trkpt lat="56.02738078602132" lon="22.149246309803384"><ele>186.16666666666666</ele><time>2026-05-03T15:13:49Z</time></trkpt><trkpt lat="56.027430526326526" lon="22.149126677208912"><ele>186.33333333333334</ele><time>2026-05-03T15:13:51Z</time></trkpt><trkpt lat="56.02749195231285" lon="22.14903632242478"><ele>186.5</ele><time>2026-05-03T15:13:54Z</time></trkpt><trkpt lat="56.027550424629666" lon="22.14890503213558"><ele>186.66666666666669</ele><time>2026-05-03T15:13:57Z</time></trkpt><trkpt lat="56.027601266085824" lon="22.148799190760542"><ele>186.83333333333334</ele><time>2026-05-03T15:13:59Z</time></trkpt><trkpt lat="56.02767100294867" lon="22.14867350591135"><ele>187.0</ele><time>2026-05-03T15:14:01Z</time></trkpt><trkpt lat="56.027745904659945" lon="22.148538709091405"><ele>187.2</ele><time>2026-05-03T15:14:03Z</time></trkpt><trkpt lat="56.02782478761973" lon="22.148416560497026"><ele>187.39999999999998</ele><time>2026-05-03T15:14:05Z</time></trkpt><trkpt lat="56.02789645607068" lon="22.148321193523756"><ele>187.60000000000002</ele><time>2026-05-03T15:14:07Z</time></trkpt><trkpt lat="56.02797990381512" lon="22.148209754417103"><ele>187.8</ele><time>2026-05-03T15:14:09Z</time></trkpt><trkpt lat="56.02803177025641" lon="22.148109599228412"><ele>188.0</ele><time>2026-05-03T15:14:11Z</time></trkpt><trkpt lat="56.02809196429613" lon="22.14801828754556"><ele>188.0</ele><time>2026-05-03T15:14:13Z</time></trkpt><trkpt lat="56.02814411097303" lon="22.147873357313674"><ele>188.0</ele><time>2026-05-03T15:14:15Z</time></trkpt><trkpt lat="56.028183603650874" lon="22.147762738738876"><ele>188.0</ele><time>2026-05-03T15:14:17Z</time></trkpt><trkpt lat="56.028225203514054" lon="22.14766441751486"><ele>188.0</ele><time>2026-05-03T15:14:19Z</time></trkpt><trkpt lat="56.0282712400663" lon="22.14755535070691"><ele>188.0</ele><time>2026-05-03T15:14:21Z</time></trkpt><trkpt lat="56.0283704469418" lon="22.14754337154972"><ele>188.0</ele><time>2026-05-03T15:14:23Z</time></trkpt><trkpt lat="56.0284564924391" lon="22.14749507486446"><ele>185.33333333333331</ele><time>2026-05-03T15:14:25Z</time></trkpt><trkpt lat="56.02853910603244" lon="22.147504542713005"><ele>182.66666666666666</ele><time>2026-05-03T15:14:27Z</time></trkpt><trkpt lat="56.028625827767016" lon="22.14751732682804"><ele>180.0</ele><time>2026-05-03T15:14:29Z</time></trkpt><trkpt lat="56.02871474812882" lon="22.14753759514903"><ele>177.33333333333334</ele><time>2026-05-03T15:14:31Z</time></trkpt><trkpt lat="56.02878056256788" lon="22.14765418887424"><ele>174.66666666666669</ele><time>2026-05-03T15:14:33Z</time></trkpt><trkpt lat="56.028835110648885" lon="22.147796036149995"><ele>172.0</ele><time>2026-05-03T15:14:35Z</time></trkpt><trkpt lat="56.028908999276155" lon="22.14795343394663"><ele>172.0</ele><time>2026-05-03T15:14:37Z</time></trkpt><trkpt lat="56.02896932640788" lon="22.148099466083124"><ele>172.0</ele><time>2026-05-03T15:14:39Z</time></trkpt><trkpt lat="56.02903263820632" lon="22.148240149492185"><ele>172.0</ele><time>2026-05-03T15:14:41Z</time></trkpt><trkpt lat="56.02911051721737" lon="22.14835684598801"><ele>172.0</ele><time>2026-05-03T15:14:43Z</time></trkpt><trkpt lat="56.029161205657125" lon="22.148433079139817"><ele>172.0</ele><time>2026-05-03T15:14:46Z</time></trkpt><trkpt lat="56.02922246970687" lon="22.14852391603262"><ele>171.6</ele><time>2026-05-03T15:14:50Z</time></trkpt><trkpt lat="56.029270793742526" lon="22.148597043472595"><ele>171.2</ele><time>2026-05-03T15:14:53Z</time></trkpt><trkpt lat="56.02934992487346" lon="22.14828599130103"><ele>170.8</ele><time>2026-05-03T15:15:00Z</time></trkpt><trkpt lat="56.02945089799909" lon="22.148260720082938"><ele>170.4</ele><time>2026-05-03T15:15:03Z</time></trkpt><trkpt lat="56.02953352771911" lon="22.148249235601355"><ele>170.0</ele><time>2026-05-03T15:15:05Z</time></trkpt><trkpt lat="56.02961987559" lon="22.14823819757585"><ele>170.0</ele><time>2026-05-03T15:15:07Z</time></trkpt><trkpt lat="56.02970833110291" lon="22.148251530392077"><ele>170.0</ele><time>2026-05-03T15:15:10Z</time></trkpt><trkpt lat="56.02978046631474" lon="22.148277789559796"><ele>170.0</ele><time>2026-05-03T15:15:12Z</time></trkpt><trkpt lat="56.029860061856475" lon="22.148321323486574"><ele>170.0</ele><time>2026-05-03T15:15:14Z</time></trkpt><trkpt lat="56.029952006528056" lon="22.14833232836344"><ele>170.0</ele><time>2026-05-03T15:15:16Z</time></trkpt><trkpt lat="56.03004317779121" lon="22.148374772396224"><ele>170.0</ele><time>2026-05-03T15:15:18Z</time></trkpt><trkpt lat="56.03013623403804" lon="22.148388071254814"><ele>170.5</ele><time>2026-05-03T15:15:20Z</time></trkpt><trkpt lat="56.03022906230406" lon="22.148388071250317"><ele>171.0</ele><time>2026-05-03T15:15:22Z</time></trkpt><trkpt lat="56.03032054215958" lon="22.14835945340255"><ele>171.5</ele><time>2026-05-03T15:15:24Z</time></trkpt><trkpt lat="56.030438552708844" lon="22.148343059370866"><ele>172.0</ele><time>2026-05-03T15:15:26Z</time></trkpt><trkpt lat="56.03050277210381" lon="22.148351974229634"><ele>172.5</ele><time>2026-05-03T15:15:27Z</time></trkpt><trkpt lat="56.030566389222855" lon="22.148319109659916"><ele>173.0</ele><time>2026-05-03T15:15:29Z</time></trkpt><trkpt lat="56.030644511537105" lon="22.14829964675507"><ele>173.0</ele><time>2026-05-03T15:15:31Z</time></trkpt><trkpt lat="56.03073599137434" lon="22.148265354191256"><ele>173.0</ele><time>2026-05-03T15:15:33Z</time></trkpt><trkpt lat="56.03082946325061" lon="22.14826869853721"><ele>173.0</ele><time>2026-05-03T15:15:35Z</time></trkpt><trkpt lat="56.030911976427404" lon="22.14825213483982"><ele>173.0</ele><time>2026-05-03T15:15:37Z</time></trkpt><trkpt lat="56.031008335239285" lon="22.148253460052363"><ele>173.0</ele><time>2026-05-03T15:15:39Z</time></trkpt><trkpt lat="56.031094086583195" lon="22.148273246149774"><ele>174.2</ele><time>2026-05-03T15:15:41Z</time></trkpt><trkpt lat="56.03115492331724" lon="22.14835090364764"><ele>175.4</ele><time>2026-05-03T15:15:43Z</time></trkpt><trkpt lat="56.03122504332288" lon="22.148433286597758"><ele>176.6</ele><time>2026-05-03T15:15:46Z</time></trkpt><trkpt lat="56.03131721229254" lon="22.148525271582507"><ele>177.79999999999998</ele><time>2026-05-03T15:15:48Z</time></trkpt><trkpt lat="56.031410064469114" lon="22.148575258886176"><ele>179.0</ele><time>2026-05-03T15:15:50Z</time></trkpt><trkpt lat="56.03150721959152" lon="22.148602044478658"><ele>179.0</ele><time>2026-05-03T15:15:52Z</time></trkpt><trkpt lat="56.03158748229717" lon="22.148607473278375"><ele>179.0</ele><time>2026-05-03T15:15:54Z</time></trkpt><trkpt lat="56.03167213616349" lon="22.14858838206241"><ele>179.0</ele><time>2026-05-03T15:15:57Z</time></trkpt><trkpt lat="56.03174629137015" lon="22.148570316434917"><ele>179.0</ele><time>2026-05-03T15:15:59Z</time></trkpt><trkpt lat="56.031839288780006" lon="22.148580089420435"><ele>179.0</ele><time>2026-05-03T15:16:01Z</time></trkpt><trkpt lat="56.031941215839105" lon="22.14852934468227"><ele>179.0</ele><time>2026-05-03T15:16:04Z</time></trkpt><trkpt lat="56.03201021530169" lon="22.148452731646067"><ele>180.0</ele><time>2026-05-03T15:16:06Z</time></trkpt><trkpt lat="56.03206289256681" lon="22.14838048450704"><ele>181.0</ele><time>2026-05-03T15:16:08Z</time></trkpt><trkpt lat="56.032123889421875" lon="22.148297723618946"><ele>182.0</ele><time>2026-05-03T15:16:11Z</time></trkpt><trkpt lat="56.03217120591134" lon="22.148193426895848"><ele>183.0</ele><time>2026-05-03T15:16:14Z</time></trkpt><trkpt lat="56.03223209978192" lon="22.148111315102327"><ele>184.0</ele><time>2026-05-03T15:16:16Z</time></trkpt><trkpt lat="56.03229533999868" lon="22.147989333774987"><ele>185.0</ele><time>2026-05-03T15:16:18Z</time></trkpt><trkpt lat="56.03233889759829" lon="22.147891990552736"><ele>184.99999999999997</ele><time>2026-05-03T15:16:20Z</time></trkpt><trkpt lat="56.032386150912565" lon="22.147772310110454"><ele>185.0</ele><time>2026-05-03T15:16:22Z</time></trkpt><trkpt lat="56.03243012903805" lon="22.147663704440276"><ele>185.0</ele><time>2026-05-03T15:16:24Z</time></trkpt><trkpt lat="56.03248087801128" lon="22.147592566397844"><ele>185.0</ele><time>2026-05-03T15:16:26Z</time></trkpt><trkpt lat="56.032549645761556" lon="22.147573708583987"><ele>185.0</ele><time>2026-05-03T15:16:28Z</time></trkpt><trkpt lat="56.032632314559486" lon="22.14757383426456"><ele>184.99999999999997</ele><time>2026-05-03T15:16:31Z</time></trkpt><trkpt lat="56.03269107527245" lon="22.147628597386518"><ele>185.0</ele><time>2026-05-03T15:16:34Z</time></trkpt><trkpt lat="56.03273522529238" lon="22.147532886711637"><ele>184.57142857142856</ele><time>2026-05-03T15:16:37Z</time></trkpt><trkpt lat="56.03276387319236" lon="22.14741447175902"><ele>184.14285714285714</ele><time>2026-05-03T15:16:39Z</time></trkpt><trkpt lat="56.03280438099754" lon="22.147309653461434"><ele>183.71428571428572</ele><time>2026-05-03T15:16:41Z</time></trkpt><trkpt lat="56.032853209529186" lon="22.147198909883244"><ele>183.28571428571428</ele><time>2026-05-03T15:16:43Z</time></trkpt><trkpt lat="56.03289439848514" lon="22.147111534279574"><ele>182.85714285714286</ele><time>2026-05-03T15:16:45Z</time></trkpt><trkpt lat="56.03294384161908" lon="22.147007287099186"><ele>182.42857142857142</ele><time>2026-05-03T15:16:47Z</time></trkpt><trkpt lat="56.032972526718716" lon="22.146881472094705"><ele>182.0</ele><time>2026-05-03T15:16:50Z</time></trkpt><trkpt lat="56.03300629308539" lon="22.146763325133907"><ele>181.5</ele><time>2026-05-03T15:16:52Z</time></trkpt><trkpt lat="56.03302518482387" lon="22.146650394278655"><ele>181.0</ele><time>2026-05-03T15:16:54Z</time></trkpt><trkpt lat="56.03303101192062" lon="22.14652555026072"><ele>180.5</ele><time>2026-05-03T15:16:56Z</time></trkpt><trkpt lat="56.033049873834905" lon="22.14641600651734"><ele>180.0</ele><time>2026-05-03T15:16:58Z</time></trkpt><trkpt lat="56.03309334926947" lon="22.146266677431992"><ele>179.5</ele><time>2026-05-03T15:17:01Z</time></trkpt><trkpt lat="56.033111298219936" lon="22.14613251339048"><ele>179.0</ele><time>2026-05-03T15:17:04Z</time></trkpt><trkpt lat="56.033127777436064" lon="22.145986398358815"><ele>179.00000000000003</ele><time>2026-05-03T15:17:07Z</time></trkpt><trkpt lat="56.0331887400579" lon="22.145852024037712"><ele>179.0</ele><time>2026-05-03T15:17:10Z</time></trkpt><trkpt lat="56.033229847705314" lon="22.145727206047525"><ele>179.0</ele><time>2026-05-03T15:17:12Z</time></trkpt><trkpt lat="56.03325609850591" lon="22.145620548774147"><ele>179.0</ele><time>2026-05-03T15:17:14Z</time></trkpt><trkpt lat="56.033264606545295" lon="22.14549786339287"><ele>179.0</ele><time>2026-05-03T15:17:16Z</time></trkpt><trkpt lat="56.03327796284191" lon="22.145374916338454"><ele>179.00000000000003</ele><time>2026-05-03T15:17:18Z</time></trkpt><trkpt lat="56.03329534761785" lon="22.145260253472653"><ele>179.0</ele><time>2026-05-03T15:17:20Z</time></trkpt><trkpt lat="56.03335714447628" lon="22.145158975862245"><ele>180.57142857142858</ele><time>2026-05-03T15:17:24Z</time></trkpt><trkpt lat="56.03342727015625" lon="22.14512307976981"><ele>182.14285714285714</ele><time>2026-05-03T15:17:27Z</time></trkpt><trkpt lat="56.033492410142685" lon="22.145077972154475"><ele>183.71428571428572</ele><time>2026-05-03T15:17:32Z</time></trkpt><trkpt lat="56.03356431898568" lon="22.145010168378395"><ele>185.28571428571428</ele><time>2026-05-03T15:17:38Z</time></trkpt><trkpt lat="56.033621949544944" lon="22.14495976332381"><ele>186.85714285714286</ele><time>2026-05-03T15:17:41Z</time></trkpt><trkpt lat="56.0336988052892" lon="22.144989100997936"><ele>188.42857142857144</ele><time>2026-05-03T15:17:45Z</time></trkpt><trkpt lat="56.03376519783643" lon="22.145051680768407"><ele>190.0</ele><time>2026-05-03T15:17:48Z</time></trkpt><trkpt lat="56.03381898755554" lon="22.145114691893724"><ele>190.0</ele><time>2026-05-03T15:17:50Z</time></trkpt><trkpt lat="56.033894292858015" lon="22.145160969418093"><ele>190.0</ele><time>2026-05-03T15:17:53Z</time></trkpt><trkpt lat="56.03398612294852" lon="22.14517692390482"><ele>190.0</ele><time>2026-05-03T15:17:56Z</time></trkpt><trkpt lat="56.03405701883013" lon="22.145130900256955"><ele>190.0</ele><time>2026-05-03T15:18:00Z</time></trkpt><trkpt lat="56.03395560147338" lon="22.14517716655714"><ele>190.0</ele><time>2026-05-03T15:19:49Z</time></trkpt><trkpt lat="56.03388706777844" lon="22.145144743130512"><ele>190.0</ele><time>2026-05-03T15:19:51Z</time></trkpt><trkpt lat="56.03382198657733" lon="22.14510977241668"><ele>190.0</ele><time>2026-05-03T15:19:53Z</time></trkpt><trkpt lat="56.03375870073969" lon="22.14503835805615"><ele>190.0</ele><time>2026-05-03T15:19:55Z</time></trkpt><trkpt lat="56.03370122517379" lon="22.14496868754335"><ele>190.0</ele><time>2026-05-03T15:19:57Z</time></trkpt><trkpt lat="56.0336374508978" lon="22.14496014617676"><ele>190.0</ele><time>2026-05-03T15:19:59Z</time></trkpt><trkpt lat="56.03357905510058" lon="22.145014370342597"><ele>190.0</ele><time>2026-05-03T15:20:01Z</time></trkpt><trkpt lat="56.03349461308751" lon="22.145104547274997"><ele>190.0</ele><time>2026-05-03T15:20:03Z</time></trkpt><trkpt lat="56.03341427218127" lon="22.145150540173187"><ele>190.0</ele><time>2026-05-03T15:20:05Z</time></trkpt><trkpt lat="56.03333519378522" lon="22.14520280358621"><ele>190.0</ele><time>2026-05-03T15:20:08Z</time></trkpt><trkpt lat="56.03329485821149" lon="22.145292506911236"><ele>190.0</ele><time>2026-05-03T15:20:12Z</time></trkpt><trkpt lat="56.033277947580785" lon="22.145404725144843"><ele>190.0</ele><time>2026-05-03T15:20:14Z</time></trkpt><trkpt lat="56.033268073056234" lon="22.14557211166402"><ele>190.0</ele><time>2026-05-03T15:20:16Z</time></trkpt><trkpt lat="56.033254867630376" lon="22.145700956995423"><ele>190.0</ele><time>2026-05-03T15:20:18Z</time></trkpt><trkpt lat="56.033215953494725" lon="22.14582668220573"><ele>188.16666666666669</ele><time>2026-05-03T15:20:20Z</time></trkpt><trkpt lat="56.033171820211315" lon="22.145937804542076"><ele>186.33333333333334</ele><time>2026-05-03T15:20:22Z</time></trkpt><trkpt lat="56.03313650666158" lon="22.146082120505778"><ele>184.5</ele><time>2026-05-03T15:20:25Z</time></trkpt><trkpt lat="56.03311297170588" lon="22.14622684322684"><ele>182.66666666666666</ele><time>2026-05-03T15:20:27Z</time></trkpt><trkpt lat="56.0330916385629" lon="22.146343072326633"><ele>180.83333333333331</ele><time>2026-05-03T15:20:29Z</time></trkpt><trkpt lat="56.03306212443263" lon="22.14648180946153"><ele>179.0</ele><time>2026-05-03T15:20:32Z</time></trkpt><trkpt lat="56.03305679667976" lon="22.146628717012867"><ele>179.0</ele><time>2026-05-03T15:20:35Z</time></trkpt><trkpt lat="56.033032100872184" lon="22.146756683774488"><ele>179.0</ele><time>2026-05-03T15:20:38Z</time></trkpt><trkpt lat="56.0330017603313" lon="22.14689079068906"><ele>179.0</ele><time>2026-05-03T15:20:40Z</time></trkpt><trkpt lat="56.03296290233799" lon="22.14700073600665"><ele>179.0</ele><time>2026-05-03T15:20:43Z</time></trkpt><trkpt lat="56.0329150994358" lon="22.14713931809091"><ele>179.0</ele><time>2026-05-03T15:20:45Z</time></trkpt><trkpt lat="56.03288102539544" lon="22.147237842488206"><ele>179.0</ele><time>2026-05-03T15:20:47Z</time></trkpt><trkpt lat="56.03283989328079" lon="22.147338569153302"><ele>179.5</ele><time>2026-05-03T15:20:49Z</time></trkpt><trkpt lat="56.03278847543063" lon="22.14748263096999"><ele>180.0</ele><time>2026-05-03T15:20:51Z</time></trkpt><trkpt lat="56.032746864953545" lon="22.147598974910174"><ele>180.5</ele><time>2026-05-03T15:20:54Z</time></trkpt><trkpt lat="56.032655405357104" lon="22.14758021111825"><ele>181.0</ele><time>2026-05-03T15:20:58Z</time></trkpt><trkpt lat="56.03257388360844" lon="22.14757046411107"><ele>181.5</ele><time>2026-05-03T15:21:00Z</time></trkpt><trkpt lat="56.03250949377783" lon="22.147594879231864"><ele>182.0</ele><time>2026-05-03T15:21:01Z</time></trkpt><trkpt lat="56.03244142785487" lon="22.147660099063916"><ele>182.5</ele><time>2026-05-03T15:21:03Z</time></trkpt><trkpt lat="56.03237747254695" lon="22.14775718615395"><ele>183.0</ele><time>2026-05-03T15:21:05Z</time></trkpt><trkpt lat="56.03235702444501" lon="22.147917998300205"><ele>183.5</ele><time>2026-05-03T15:21:07Z</time></trkpt><trkpt lat="56.032296236551744" lon="22.14804612873576"><ele>184.0</ele><time>2026-05-03T15:21:09Z</time></trkpt><trkpt lat="56.03222493012817" lon="22.14816627101832"><ele>184.5</ele><time>2026-05-03T15:21:11Z</time></trkpt><trkpt lat="56.032169903456904" lon="22.14824866191803"><ele>185.0</ele><time>2026-05-03T15:21:13Z</time></trkpt><trkpt lat="56.032101341559525" lon="22.14834863713459"><ele>185.0</ele><time>2026-05-03T15:21:16Z</time></trkpt><trkpt lat="56.032036648542906" lon="22.148430064529446"><ele>185.0</ele><time>2026-05-03T15:21:19Z</time></trkpt><trkpt lat="56.03196015124278" lon="22.14848972046946"><ele>185.0</ele><time>2026-05-03T15:21:21Z</time></trkpt><trkpt lat="56.03187632270698" lon="22.148536083825537"><ele>185.0</ele><time>2026-05-03T15:21:23Z</time></trkpt><trkpt lat="56.03176931318884" lon="22.14857099829228"><ele>185.0</ele><time>2026-05-03T15:21:25Z</time></trkpt><trkpt lat="56.031682211644764" lon="22.148579216828132"><ele>185.0</ele><time>2026-05-03T15:21:27Z</time></trkpt><trkpt lat="56.03160224531418" lon="22.148590920893728"><ele>183.8</ele><time>2026-05-03T15:21:29Z</time></trkpt><trkpt lat="56.03150214323495" lon="22.14859451713288"><ele>182.6</ele><time>2026-05-03T15:21:31Z</time></trkpt><trkpt lat="56.031402805006785" lon="22.14855484719914"><ele>181.39999999999998</ele><time>2026-05-03T15:21:33Z</time></trkpt><trkpt lat="56.03131587357319" lon="22.14850119324201"><ele>180.2</ele><time>2026-05-03T15:21:35Z</time></trkpt><trkpt lat="56.03123361832092" lon="22.14842826617911"><ele>179.0</ele><time>2026-05-03T15:21:37Z</time></trkpt><trkpt lat="56.03115931859254" lon="22.14834867145708"><ele>179.0</ele><time>2026-05-03T15:21:39Z</time></trkpt><trkpt lat="56.03109142828251" lon="22.148236652205664"><ele>179.0</ele><time>2026-05-03T15:21:41Z</time></trkpt><trkpt lat="56.031006346998986" lon="22.148192590735604"><ele>179.0</ele><time>2026-05-03T15:21:43Z</time></trkpt><trkpt lat="56.03090361226879" lon="22.148184952078022"><ele>179.0</ele><time>2026-05-03T15:21:45Z</time></trkpt><trkpt lat="56.03080950899532" lon="22.148213771247335"><ele>179.0</ele><time>2026-05-03T15:21:47Z</time></trkpt><trkpt lat="56.03070803804561" lon="22.148240158728107"><ele>178.0</ele><time>2026-05-03T15:21:49Z</time></trkpt><trkpt lat="56.03063073000138" lon="22.14826473921225"><ele>177.0</ele><time>2026-05-03T15:21:51Z</time></trkpt><trkpt lat="56.03056639044536" lon="22.148279908995253"><ele>176.0</ele><time>2026-05-03T15:21:53Z</time></trkpt><trkpt lat="56.03048465500902" lon="22.14829576828954"><ele>175.0</ele><time>2026-05-03T15:21:55Z</time></trkpt><trkpt lat="56.03040350036856" lon="22.14833578139611"><ele>174.0</ele><time>2026-05-03T15:21:57Z</time></trkpt><trkpt lat="56.0303045491079" lon="22.14835344373663"><ele>173.0</ele><time>2026-05-03T15:21:59Z</time></trkpt><trkpt lat="56.03022038699321" lon="22.14835210666684"><ele>173.0</ele><time>2026-05-03T15:22:01Z</time></trkpt><trkpt lat="56.03013367880072" lon="22.14834347150183"><ele>173.0</ele><time>2026-05-03T15:22:03Z</time></trkpt><trkpt lat="56.03006046710148" lon="22.148339990954682"><ele>173.0</ele><time>2026-05-03T15:22:05Z</time></trkpt><trkpt lat="56.02997524222269" lon="22.148324185763357"><ele>173.0</ele><time>2026-05-03T15:22:07Z</time></trkpt><trkpt lat="56.02988396505933" lon="22.148272961743427"><ele>173.0</ele><time>2026-05-03T15:22:09Z</time></trkpt><trkpt lat="56.02980868113677" lon="22.14824928719771"><ele>173.0</ele><time>2026-05-03T15:22:11Z</time></trkpt><trkpt lat="56.02971748016396" lon="22.148248443950234"><ele>172.5</ele><time>2026-05-03T15:22:13Z</time></trkpt><trkpt lat="56.0296329591604" lon="22.14822026186112"><ele>172.0</ele><time>2026-05-03T15:22:15Z</time></trkpt><trkpt lat="56.02954990203164" lon="22.148202515468334"><ele>171.5</ele><time>2026-05-03T15:22:17Z</time></trkpt><trkpt lat="56.0294801389363" lon="22.148215145458245"><ele>171.0</ele><time>2026-05-03T15:22:19Z</time></trkpt><trkpt lat="56.02941356906372" lon="22.14822489942247"><ele>170.5</ele><time>2026-05-03T15:22:21Z</time></trkpt><trkpt lat="56.0293352073343" lon="22.148237659510208"><ele>170.0</ele><time>2026-05-03T15:22:23Z</time></trkpt><trkpt lat="56.02927289261621" lon="22.148590092569435"><ele>170.0</ele><time>2026-05-03T15:22:26Z</time></trkpt><trkpt lat="56.029309464441525" lon="22.14870908834425"><ele>170.0</ele><time>2026-05-03T15:22:28Z</time></trkpt><trkpt lat="56.029357263609704" lon="22.14882465247776"><ele>170.0</ele><time>2026-05-03T15:22:30Z</time></trkpt><trkpt lat="56.029399536762774" lon="22.14901329598016"><ele>170.0</ele><time>2026-05-03T15:22:32Z</time></trkpt><trkpt lat="56.02945048043643" lon="22.14918818863367"><ele>170.0</ele><time>2026-05-03T15:22:34Z</time></trkpt><trkpt lat="56.02947964124235" lon="22.14931210957003"><ele>170.2</ele><time>2026-05-03T15:22:36Z</time></trkpt><trkpt lat="56.029465288923426" lon="22.149486256473057"><ele>170.4</ele><time>2026-05-03T15:22:38Z</time></trkpt><trkpt lat="56.029451140803396" lon="22.14965911925876"><ele>170.60000000000002</ele><time>2026-05-03T15:22:40Z</time></trkpt><trkpt lat="56.029420472865795" lon="22.149875749734864"><ele>170.8</ele><time>2026-05-03T15:22:42Z</time></trkpt><trkpt lat="56.02945248106152" lon="22.149982189535585"><ele>171.0</ele><time>2026-05-03T15:22:43Z</time></trkpt><trkpt lat="56.02945690049069" lon="22.150173774963736"><ele>171.4</ele><time>2026-05-03T15:22:45Z</time></trkpt><trkpt lat="56.029512991649156" lon="22.150320706952485"><ele>171.8</ele><time>2026-05-03T15:22:47Z</time></trkpt><trkpt lat="56.02954838511645" lon="22.150490760931888"><ele>172.20000000000002</ele><time>2026-05-03T15:22:49Z</time></trkpt><trkpt lat="56.02960500331218" lon="22.150546213653122"><ele>172.60000000000002</ele><time>2026-05-03T15:22:50Z</time></trkpt><trkpt lat="56.02968205545735" lon="22.150668309910163"><ele>173.0</ele><time>2026-05-03T15:22:52Z</time></trkpt><trkpt lat="56.02976637998649" lon="22.150790616008013"><ele>173.0</ele><time>2026-05-03T15:22:54Z</time></trkpt><trkpt lat="56.029852392881295" lon="22.15091866712261"><ele>173.0</ele><time>2026-05-03T15:22:56Z</time></trkpt><trkpt lat="56.02993683896651" lon="22.151012578378136"><ele>173.0</ele><time>2026-05-03T15:22:58Z</time></trkpt><trkpt lat="56.03003445877439" lon="22.151105080010076"><ele>173.0</ele><time>2026-05-03T15:23:00Z</time></trkpt><trkpt lat="56.030111262183866" lon="22.151160265562233"><ele>173.0</ele><time>2026-05-03T15:23:02Z</time></trkpt><trkpt lat="56.030192181982216" lon="22.15120458832722"><ele>172.8</ele><time>2026-05-03T15:23:04Z</time></trkpt><trkpt lat="56.030290671605485" lon="22.151238652185572"><ele>172.60000000000002</ele><time>2026-05-03T15:23:06Z</time></trkpt><trkpt lat="56.030382383178726" lon="22.15126349133517"><ele>172.39999999999998</ele><time>2026-05-03T15:23:08Z</time></trkpt><trkpt lat="56.03047985191758" lon="22.151314277125973"><ele>172.2</ele><time>2026-05-03T15:23:10Z</time></trkpt><trkpt lat="56.030561311705085" lon="22.151411522391612"><ele>172.0</ele><time>2026-05-03T15:23:12Z</time></trkpt><trkpt lat="56.030604333229284" lon="22.1515472172151"><ele>171.8</ele><time>2026-05-03T15:23:14Z</time></trkpt><trkpt lat="56.030646144850465" lon="22.15167261122629"><ele>171.6</ele><time>2026-05-03T15:23:16Z</time></trkpt><trkpt lat="56.03068142769628" lon="22.15183881321187"><ele>171.4</ele><time>2026-05-03T15:23:18Z</time></trkpt><trkpt lat="56.030693216085346" lon="22.152011116682054"><ele>171.20000000000002</ele><time>2026-05-03T15:23:20Z</time></trkpt><trkpt lat="56.0306888932303" lon="22.152205167035056"><ele>171.0</ele><time>2026-05-03T15:23:22Z</time></trkpt><trkpt lat="56.03067410347158" lon="22.152389419625884"><ele>171.4</ele><time>2026-05-03T15:23:24Z</time></trkpt><trkpt lat="56.03063567139994" lon="22.152545935002227"><ele>171.8</ele><time>2026-05-03T15:23:26Z</time></trkpt><trkpt lat="56.03061531344168" lon="22.152656403618966"><ele>172.20000000000002</ele><time>2026-05-03T15:23:27Z</time></trkpt><trkpt lat="56.03058129891168" lon="22.152837164923714"><ele>172.60000000000002</ele><time>2026-05-03T15:23:29Z</time></trkpt><trkpt lat="56.03054906630182" lon="22.153011641880507"><ele>173.0</ele><time>2026-05-03T15:23:31Z</time></trkpt><trkpt lat="56.03054210258842" lon="22.153209370507064"><ele>173.4</ele><time>2026-05-03T15:23:33Z</time></trkpt><trkpt lat="56.03051498568949" lon="22.153394703571607"><ele>173.8</ele><time>2026-05-03T15:23:35Z</time></trkpt><trkpt lat="56.0304993523748" lon="22.153529421347255"><ele>174.2</ele><time>2026-05-03T15:23:37Z</time></trkpt><trkpt lat="56.03049516416231" lon="22.153689999337093"><ele>174.6</ele><time>2026-05-03T15:23:39Z</time></trkpt><trkpt lat="56.03049805703916" lon="22.15384887857137"><ele>175.0</ele><time>2026-05-03T15:23:41Z</time></trkpt><trkpt lat="56.03049650971534" lon="22.154029514482094"><ele>175.4</ele><time>2026-05-03T15:23:43Z</time></trkpt><trkpt lat="56.03048203749374" lon="22.154218595034397"><ele>175.8</ele><time>2026-05-03T15:23:45Z</time></trkpt><trkpt lat="56.030482342005094" lon="22.15438058273492"><ele>176.2</ele><time>2026-05-03T15:23:47Z</time></trkpt><trkpt lat="56.030476882249154" lon="22.154542130345625"><ele>176.6</ele><time>2026-05-03T15:23:49Z</time></trkpt><trkpt lat="56.0304891508767" lon="22.15470303540509"><ele>177.0</ele><time>2026-05-03T15:23:51Z</time></trkpt><trkpt lat="56.030502212081856" lon="22.154879563598605"><ele>177.33333333333334</ele><time>2026-05-03T15:23:53Z</time></trkpt><trkpt lat="56.0305272411576" lon="22.155066954701404"><ele>177.66666666666666</ele><time>2026-05-03T15:23:55Z</time></trkpt><trkpt lat="56.03052793345863" lon="22.15519056443716"><ele>178.0</ele><time>2026-05-03T15:23:57Z</time></trkpt><trkpt lat="56.03055467920179" lon="22.155347745559517"><ele>178.33333333333331</ele><time>2026-05-03T15:23:59Z</time></trkpt><trkpt lat="56.030572443904866" lon="22.155521348704333"><ele>178.66666666666666</ele><time>2026-05-03T15:24:01Z</time></trkpt><trkpt lat="56.03057521347352" lon="22.155642863337597"><ele>179.0</ele><time>2026-05-03T15:24:03Z</time></trkpt><trkpt lat="56.03059950866778" lon="22.15584192630001"><ele>179.0</ele><time>2026-05-03T15:24:05Z</time></trkpt><trkpt lat="56.03063690885819" lon="22.15605043725084"><ele>179.0</ele><time>2026-05-03T15:24:07Z</time></trkpt><trkpt lat="56.030656627094935" lon="22.156224990963473"><ele>179.0</ele><time>2026-05-03T15:24:09Z</time></trkpt><trkpt lat="56.03068606075893" lon="22.15642012519693"><ele>179.0</ele><time>2026-05-03T15:24:11Z</time></trkpt><trkpt lat="56.03072246007823" lon="22.15665152746801"><ele>179.39999999999998</ele><time>2026-05-03T15:24:13Z</time></trkpt><trkpt lat="56.03075984251626" lon="22.156802335932564"><ele>179.8</ele><time>2026-05-03T15:24:15Z</time></trkpt><trkpt lat="56.03078917083254" lon="22.156966834997554"><ele>180.2</ele><time>2026-05-03T15:24:17Z</time></trkpt><trkpt lat="56.03084115155689" lon="22.157156413912464"><ele>180.60000000000002</ele><time>2026-05-03T15:24:19Z</time></trkpt><trkpt lat="56.030882369386966" lon="22.15733601112448"><ele>181.0</ele><time>2026-05-03T15:24:21Z</time></trkpt><trkpt lat="56.030910899198645" lon="22.15748589419953"><ele>182.8</ele><time>2026-05-03T15:24:23Z</time></trkpt><trkpt lat="56.03091931350357" lon="22.157645951788734"><ele>184.60000000000002</ele><time>2026-05-03T15:24:25Z</time></trkpt><trkpt lat="56.03093590399748" lon="22.15784916877748"><ele>186.4</ele><time>2026-05-03T15:24:27Z</time></trkpt><trkpt lat="56.030946964778025" lon="22.158036278531817"><ele>188.2</ele><time>2026-05-03T15:24:29Z</time></trkpt><trkpt lat="56.031000325849256" lon="22.158179948158267"><ele>190.0</ele><time>2026-05-03T15:24:31Z</time></trkpt><trkpt lat="56.03101860964833" lon="22.158319625701445"><ele>190.14285714285714</ele><time>2026-05-03T15:24:33Z</time></trkpt><trkpt lat="56.031033479825574" lon="22.158435629559865"><ele>190.28571428571428</ele><time>2026-05-03T15:24:35Z</time></trkpt><trkpt lat="56.03104834813054" lon="22.15855034071609"><ele>190.42857142857144</ele><time>2026-05-03T15:24:37Z</time></trkpt><trkpt lat="56.031048087226694" lon="22.158668435731716"><ele>190.57142857142856</ele><time>2026-05-03T15:24:39Z</time></trkpt><trkpt lat="56.03108910071019" lon="22.15878304189182"><ele>190.7142857142857</ele><time>2026-05-03T15:24:41Z</time></trkpt><trkpt lat="56.03113650891507" lon="22.158891185331953"><ele>190.85714285714286</ele><time>2026-05-03T15:24:43Z</time></trkpt><trkpt lat="56.03118386351303" lon="22.158996624000675"><ele>191.0</ele><time>2026-05-03T15:24:45Z</time></trkpt><trkpt lat="56.03123818084748" lon="22.159093552870658"><ele>190.5</ele><time>2026-05-03T15:24:47Z</time></trkpt><trkpt lat="56.03129041387825" lon="22.15921443237724"><ele>190.0</ele><time>2026-05-03T15:24:49Z</time></trkpt><trkpt lat="56.03134599725667" lon="22.159332106793965"><ele>189.5</ele><time>2026-05-03T15:24:51Z</time></trkpt><trkpt lat="56.031391063332464" lon="22.15944731841748"><ele>189.0</ele><time>2026-05-03T15:24:53Z</time></trkpt><trkpt lat="56.031439204320414" lon="22.159575717208675"><ele>188.5</ele><time>2026-05-03T15:24:55Z</time></trkpt><trkpt lat="56.03149927994242" lon="22.159696182452343"><ele>188.0</ele><time>2026-05-03T15:24:57Z</time></trkpt><trkpt lat="56.03155296140564" lon="22.159842260436015"><ele>188.33333333333331</ele><time>2026-05-03T15:24:59Z</time></trkpt><trkpt lat="56.03160036566268" lon="22.159957705646107"><ele>188.66666666666666</ele><time>2026-05-03T15:25:01Z</time></trkpt><trkpt lat="56.03163229681745" lon="22.160088740404152"><ele>189.0</ele><time>2026-05-03T15:25:03Z</time></trkpt><trkpt lat="56.03166692924475" lon="22.160208742418718"><ele>189.33333333333334</ele><time>2026-05-03T15:25:05Z</time></trkpt><trkpt lat="56.03166661804835" lon="22.160350151398426"><ele>189.66666666666669</ele><time>2026-05-03T15:25:07Z</time></trkpt><trkpt lat="56.031681750888055" lon="22.160494736492442"><ele>190.0</ele><time>2026-05-03T15:25:09Z</time></trkpt><trkpt lat="56.03169724111965" lon="22.160642441343565"><ele>186.66666666666669</ele><time>2026-05-03T15:25:11Z</time></trkpt><trkpt lat="56.03171358863695" lon="22.160798458118016"><ele>183.33333333333334</ele><time>2026-05-03T15:25:13Z</time></trkpt><trkpt lat="56.03172627146206" lon="22.160922073466942"><ele>180.0</ele><time>2026-05-03T15:25:15Z</time></trkpt><trkpt lat="56.03174380449781" lon="22.161079681149683"><ele>176.66666666666666</ele><time>2026-05-03T15:25:17Z</time></trkpt><trkpt lat="56.03176574738754" lon="22.16122087612659"><ele>173.33333333333331</ele><time>2026-05-03T15:25:19Z</time></trkpt><trkpt lat="56.031790325497504" lon="22.161376314669564"><ele>170.0</ele><time>2026-05-03T15:25:21Z</time></trkpt><trkpt lat="56.031813250102296" lon="22.16152225400145"><ele>168.4</ele><time>2026-05-03T15:25:23Z</time></trkpt><trkpt lat="56.03184082712565" lon="22.16169768551388"><ele>166.8</ele><time>2026-05-03T15:25:25Z</time></trkpt><trkpt lat="56.03188003729867" lon="22.1619470673899"><ele>165.2</ele><time>2026-05-03T15:25:27Z</time></trkpt><trkpt lat="56.03189778408037" lon="22.162059572650726"><ele>163.6</ele><time>2026-05-03T15:25:28Z</time></trkpt><trkpt lat="56.031942279837345" lon="22.16225934795953"><ele>162.0</ele><time>2026-05-03T15:25:30Z</time></trkpt><trkpt lat="56.03195224285193" lon="22.162373015724512"><ele>161.4</ele><time>2026-05-03T15:25:31Z</time></trkpt><trkpt lat="56.03197194718486" lon="22.162534666042095"><ele>160.79999999999998</ele><time>2026-05-03T15:25:33Z</time></trkpt><trkpt lat="56.03199730757395" lon="22.162696733687657"><ele>160.2</ele><time>2026-05-03T15:25:35Z</time></trkpt><trkpt lat="56.03199022975146" lon="22.162886342506972"><ele>159.6</ele><time>2026-05-03T15:25:37Z</time></trkpt><trkpt lat="56.0319938346982" lon="22.163021879848685"><ele>159.0</ele><time>2026-05-03T15:25:39Z</time></trkpt><trkpt lat="56.03199798456189" lon="22.163171882168967"><ele>159.4</ele><time>2026-05-03T15:25:41Z</time></trkpt><trkpt lat="56.032014926750556" lon="22.163363226395887"><ele>159.8</ele><time>2026-05-03T15:25:43Z</time></trkpt><trkpt lat="56.03202114452841" lon="22.163533490263234"><ele>160.20000000000002</ele><time>2026-05-03T15:25:45Z</time></trkpt><trkpt lat="56.03203055894256" lon="22.163697237695093"><ele>160.60000000000002</ele><time>2026-05-03T15:25:47Z</time></trkpt><trkpt lat="56.0320487754429" lon="22.163852523577273"><ele>161.0</ele><time>2026-05-03T15:25:49Z</time></trkpt><trkpt lat="56.032068299441015" lon="22.164023363372998"><ele>160.4</ele><time>2026-05-03T15:25:51Z</time></trkpt><trkpt lat="56.03210331220231" lon="22.164193173524154"><ele>159.8</ele><time>2026-05-03T15:25:53Z</time></trkpt><trkpt lat="56.032109681040396" lon="22.164393552052623"><ele>159.20000000000002</ele><time>2026-05-03T15:25:55Z</time></trkpt><trkpt lat="56.03210528661143" lon="22.164580050834285"><ele>158.60000000000002</ele><time>2026-05-03T15:25:57Z</time></trkpt><trkpt lat="56.03209896288209" lon="22.164752878498074"><ele>158.0</ele><time>2026-05-03T15:25:59Z</time></trkpt><trkpt lat="56.0320947849931" lon="22.164958979717916"><ele>157.20000000000002</ele><time>2026-05-03T15:26:01Z</time></trkpt><trkpt lat="56.03209478499022" lon="22.165137666282064"><ele>156.4</ele><time>2026-05-03T15:26:03Z</time></trkpt><trkpt lat="56.032105654689765" lon="22.165323389828732"><ele>155.60000000000002</ele><time>2026-05-03T15:26:05Z</time></trkpt><trkpt lat="56.032106650678166" lon="22.165494681822857"><ele>154.8</ele><time>2026-05-03T15:26:07Z</time></trkpt><trkpt lat="56.03211253081377" lon="22.16561408476622"><ele>154.0</ele><time>2026-05-03T15:26:11Z</time></trkpt><trkpt lat="56.031994697932326" lon="22.165636672606485"><ele>154.0</ele><time>2026-05-03T15:26:13Z</time></trkpt><trkpt lat="56.0318937198711" lon="22.16563931040262"><ele>154.0</ele><time>2026-05-03T15:26:15Z</time></trkpt><trkpt lat="56.03178747659682" lon="22.165671901112628"><ele>154.0</ele><time>2026-05-03T15:26:17Z</time></trkpt><trkpt lat="56.031676252043745" lon="22.165723072861724"><ele>154.0</ele><time>2026-05-03T15:26:19Z</time></trkpt><trkpt lat="56.03155088695563" lon="22.165774827186222"><ele>154.8</ele><time>2026-05-03T15:26:21Z</time></trkpt><trkpt lat="56.031460212157434" lon="22.165814011127047"><ele>155.60000000000002</ele><time>2026-05-03T15:26:22Z</time></trkpt><trkpt lat="56.031368886976516" lon="22.165865963794268"><ele>156.4</ele><time>2026-05-03T15:26:23Z</time></trkpt><trkpt lat="56.03129647675712" lon="22.165905254426043"><ele>157.20000000000002</ele><time>2026-05-03T15:26:24Z</time></trkpt><trkpt lat="56.031174209949846" lon="22.16591692424874"><ele>158.0</ele><time>2026-05-03T15:26:26Z</time></trkpt><trkpt lat="56.03108783368288" lon="22.165943021955172"><ele>158.0</ele><time>2026-05-03T15:26:28Z</time></trkpt><trkpt lat="56.03101811945147" lon="22.165952904584593"><ele>158.0</ele><time>2026-05-03T15:26:30Z</time></trkpt><trkpt lat="56.0309195170368" lon="22.165960341067088"><ele>158.0</ele><time>2026-05-03T15:26:32Z</time></trkpt><trkpt lat="56.03080393060956" lon="22.165968704568204"><ele>158.0</ele><time>2026-05-03T15:26:34Z</time></trkpt><trkpt lat="56.03068486467665" lon="22.165978707277375"><ele>158.0</ele><time>2026-05-03T15:26:36Z</time></trkpt><trkpt lat="56.030566600325514" lon="22.16598754237239"><ele>158.66666666666666</ele><time>2026-05-03T15:26:38Z</time></trkpt><trkpt lat="56.03050323655009" lon="22.16599237315738"><ele>159.33333333333331</ele><time>2026-05-03T15:26:39Z</time></trkpt><trkpt lat="56.03038343898439" lon="22.166018686867314"><ele>160.0</ele><time>2026-05-03T15:26:41Z</time></trkpt><trkpt lat="56.030308213988434" lon="22.166020512268744"><ele>160.66666666666666</ele><time>2026-05-03T15:26:42Z</time></trkpt><trkpt lat="56.03023225810848" lon="22.166021591452257"><ele>161.33333333333334</ele><time>2026-05-03T15:26:43Z</time></trkpt><trkpt lat="56.03012038899492" lon="22.166010164572004"><ele>162.0</ele><time>2026-05-03T15:26:45Z</time></trkpt><trkpt lat="56.02999858291299" lon="22.165999584723064"><ele>163.0</ele><time>2026-05-03T15:26:47Z</time></trkpt><trkpt lat="56.02992678205588" lon="22.16600584288967"><ele>164.0</ele><time>2026-05-03T15:26:48Z</time></trkpt><trkpt lat="56.02986147655197" lon="22.166026548993255"><ele>165.0</ele><time>2026-05-03T15:26:49Z</time></trkpt><trkpt lat="56.02979701543966" lon="22.16602189045788"><ele>166.0</ele><time>2026-05-03T15:26:50Z</time></trkpt><trkpt lat="56.02973002947402" lon="22.166106181076874"><ele>167.0</ele><time>2026-05-03T15:26:51Z</time></trkpt><trkpt lat="56.029654305052674" lon="22.166175687104065"><ele>168.0</ele><time>2026-05-03T15:26:52Z</time></trkpt><trkpt lat="56.02958781242434" lon="22.166247969567966"><ele>169.0</ele><time>2026-05-03T15:26:53Z</time></trkpt><trkpt lat="56.02952721759367" lon="22.166327669238264"><ele>169.0</ele><time>2026-05-03T15:26:54Z</time></trkpt><trkpt lat="56.029472588602005" lon="22.166403894586995"><ele>169.0</ele><time>2026-05-03T15:26:55Z</time></trkpt><trkpt lat="56.02941317863325" lon="22.166485426184945"><ele>169.0</ele><time>2026-05-03T15:26:56Z</time></trkpt><trkpt lat="56.02935324320347" lon="22.166559574945406"><ele>169.0</ele><time>2026-05-03T15:26:57Z</time></trkpt><trkpt lat="56.029292132264615" lon="22.166629138330116"><ele>169.0</ele><time>2026-05-03T15:26:58Z</time></trkpt><trkpt lat="56.02921909098709" lon="22.166664573203953"><ele>169.0</ele><time>2026-05-03T15:26:59Z</time></trkpt><trkpt lat="56.029152104116385" lon="22.166720572523833"><ele>169.0</ele><time>2026-05-03T15:27:00Z</time></trkpt><trkpt lat="56.029093442497064" lon="22.16676967072917"><ele>169.33333333333334</ele><time>2026-05-03T15:27:01Z</time></trkpt><trkpt lat="56.02903132806243" lon="22.166846858386506"><ele>169.66666666666669</ele><time>2026-05-03T15:27:02Z</time></trkpt><trkpt lat="56.02896110371398" lon="22.166849503097506"><ele>170.0</ele><time>2026-05-03T15:27:03Z</time></trkpt><trkpt lat="56.02885090547715" lon="22.166884927339343"><ele>170.33333333333334</ele><time>2026-05-03T15:27:05Z</time></trkpt><trkpt lat="56.028772289812565" lon="22.16691546391554"><ele>170.66666666666666</ele><time>2026-05-03T15:27:07Z</time></trkpt><trkpt lat="56.02867790729577" lon="22.16692729258612"><ele>171.0</ele><time>2026-05-03T15:27:09Z</time></trkpt><trkpt lat="56.02857113248565" lon="22.16692789523612"><ele>171.0</ele><time>2026-05-03T15:27:11Z</time></trkpt><trkpt lat="56.02849235615046" lon="22.166939645177138"><ele>171.0</ele><time>2026-05-03T15:27:13Z</time></trkpt><trkpt lat="56.02838947882087" lon="22.166977711279863"><ele>171.0</ele><time>2026-05-03T15:27:15Z</time></trkpt><trkpt lat="56.02828549627584" lon="22.167086360264815"><ele>171.0</ele><time>2026-05-03T15:27:17Z</time></trkpt><trkpt lat="56.02823253871254" lon="22.167156510431628"><ele>171.0</ele><time>2026-05-03T15:27:18Z</time></trkpt><trkpt lat="56.0281787181217" lon="22.16721965073559"><ele>171.0</ele><time>2026-05-03T15:27:19Z</time></trkpt><trkpt lat="56.028123603807856" lon="22.167286154102314"><ele>170.83333333333334</ele><time>2026-05-03T15:27:20Z</time></trkpt><trkpt lat="56.02801928376927" lon="22.167435514291178"><ele>170.66666666666666</ele><time>2026-05-03T15:27:22Z</time></trkpt><trkpt lat="56.02797320542002" lon="22.167520450418476"><ele>170.5</ele><time>2026-05-03T15:27:23Z</time></trkpt><trkpt lat="56.02792841089417" lon="22.16761543721227"><ele>170.33333333333331</ele><time>2026-05-03T15:27:24Z</time></trkpt><trkpt lat="56.02788554590931" lon="22.16770706530193"><ele>170.16666666666666</ele><time>2026-05-03T15:27:25Z</time></trkpt><trkpt lat="56.02784344102111" lon="22.16779991009765"><ele>170.0</ele><time>2026-05-03T15:27:26Z</time></trkpt><trkpt lat="56.02775262959822" lon="22.167937286125117"><ele>170.0</ele><time>2026-05-03T15:27:28Z</time></trkpt><trkpt lat="56.027641672777264" lon="22.167984626879292"><ele>170.0</ele><time>2026-05-03T15:27:30Z</time></trkpt><trkpt lat="56.02751536447571" lon="22.16804621292755"><ele>170.0</ele><time>2026-05-03T15:27:32Z</time></trkpt><trkpt lat="56.02745044995327" lon="22.168066363333452"><ele>170.0</ele><time>2026-05-03T15:27:33Z</time></trkpt><trkpt lat="56.02734112071721" lon="22.168060277026772"><ele>170.0</ele><time>2026-05-03T15:27:35Z</time></trkpt><trkpt lat="56.02721497095439" lon="22.16805798717549"><ele>169.66666666666666</ele><time>2026-05-03T15:27:37Z</time></trkpt><trkpt lat="56.02715577248782" lon="22.168007355423214"><ele>169.33333333333331</ele><time>2026-05-03T15:27:38Z</time></trkpt><trkpt lat="56.02704062968377" lon="22.167963373536182"><ele>169.0</ele><time>2026-05-03T15:27:40Z</time></trkpt><trkpt lat="56.026930682556475" lon="22.167921376283765"><ele>168.66666666666666</ele><time>2026-05-03T15:27:42Z</time></trkpt><trkpt lat="56.02686055089769" lon="22.167909738898985"><ele>168.33333333333334</ele><time>2026-05-03T15:27:43Z</time></trkpt><trkpt lat="56.02679501068917" lon="22.167900429255674"><ele>168.0</ele><time>2026-05-03T15:27:44Z</time></trkpt><trkpt lat="56.02670687682871" lon="22.167886985888654"><ele>168.4</ele><time>2026-05-03T15:27:46Z</time></trkpt><trkpt lat="56.02663398500142" lon="22.167875867440202"><ele>168.8</ele><time>2026-05-03T15:27:48Z</time></trkpt><trkpt lat="56.0265634482205" lon="22.167865751439436"><ele>169.2</ele><time>2026-05-03T15:27:50Z</time></trkpt><trkpt lat="56.02642762653612" lon="22.16784657997242"><ele>169.6</ele><time>2026-05-03T15:27:52Z</time></trkpt><trkpt lat="56.02635336501073" lon="22.167857191031015"><ele>170.0</ele><time>2026-05-03T15:27:53Z</time></trkpt><trkpt lat="56.02624667900168" lon="22.16781204038094"><ele>170.0</ele><time>2026-05-03T15:27:55Z</time></trkpt><trkpt lat="56.02613582569088" lon="22.167738191470058"><ele>170.0</ele><time>2026-05-03T15:27:57Z</time></trkpt><trkpt lat="56.026069635062726" lon="22.16770382312433"><ele>170.0</ele><time>2026-05-03T15:27:58Z</time></trkpt><trkpt lat="56.02595630725372" lon="22.167634065522364"><ele>170.0</ele><time>2026-05-03T15:28:00Z</time></trkpt><trkpt lat="56.0258463207154" lon="22.167556047724624"><ele>170.0</ele><time>2026-05-03T15:28:02Z</time></trkpt><trkpt lat="56.025776490819354" lon="22.167427174625267"><ele>169.75</ele><time>2026-05-03T15:28:04Z</time></trkpt><trkpt lat="56.02568560014597" lon="22.16727750860874"><ele>169.5</ele><time>2026-05-03T15:28:06Z</time></trkpt><trkpt lat="56.025651540376074" lon="22.167089685450602"><ele>169.25</ele><time>2026-05-03T15:28:08Z</time></trkpt><trkpt lat="56.02561256373747" lon="22.166881650370648"><ele>169.0</ele><time>2026-05-03T15:28:10Z</time></trkpt><trkpt lat="56.02557779086936" lon="22.166710387852675"><ele>169.0</ele><time>2026-05-03T15:28:12Z</time></trkpt><trkpt lat="56.02554986604237" lon="22.16654304367498"><ele>169.0</ele><time>2026-05-03T15:28:14Z</time></trkpt><trkpt lat="56.0255101778504" lon="22.16641188087294"><ele>169.0</ele><time>2026-05-03T15:28:16Z</time></trkpt><trkpt lat="56.02544866456796" lon="22.166286690559783"><ele>169.0</ele><time>2026-05-03T15:28:18Z</time></trkpt><trkpt lat="56.02538585925885" lon="22.16622022414105"><ele>169.0</ele><time>2026-05-03T15:28:20Z</time></trkpt><trkpt lat="56.02531107543569" lon="22.166215847559364"><ele>169.0</ele><time>2026-05-03T15:28:22Z</time></trkpt><trkpt lat="56.0252251433119" lon="22.16617634400424"><ele>169.39999999999998</ele><time>2026-05-03T15:28:24Z</time></trkpt><trkpt lat="56.02513204846763" lon="22.16621480208667"><ele>169.8</ele><time>2026-05-03T15:28:26Z</time></trkpt><trkpt lat="56.02505163548436" lon="22.166234640345394"><ele>170.2</ele><time>2026-05-03T15:28:28Z</time></trkpt><trkpt lat="56.024936625058814" lon="22.166273381378574"><ele>170.60000000000002</ele><time>2026-05-03T15:28:30Z</time></trkpt><trkpt lat="56.02484908426895" lon="22.166300209397136"><ele>171.0</ele><time>2026-05-03T15:28:31Z</time></trkpt><trkpt lat="56.02473126616152" lon="22.166337650067835"><ele>171.83333333333334</ele><time>2026-05-03T15:28:32Z</time></trkpt><trkpt lat="56.024607970523704" lon="22.166355623787965"><ele>172.66666666666666</ele><time>2026-05-03T15:28:33Z</time></trkpt><trkpt lat="56.024523109415505" lon="22.16637398125439"><ele>173.5</ele><time>2026-05-03T15:28:34Z</time></trkpt><trkpt lat="56.02445949025388" lon="22.166384141074438"><ele>174.33333333333331</ele><time>2026-05-03T15:28:35Z</time></trkpt><trkpt lat="56.024392195940315" lon="22.166389046613844"><ele>175.16666666666666</ele><time>2026-05-03T15:28:36Z</time></trkpt><trkpt lat="56.024330491439386" lon="22.16635287321933"><ele>176.0</ele><time>2026-05-03T15:28:37Z</time></trkpt><trkpt lat="56.02425887132295" lon="22.16634462924493"><ele>176.0</ele><time>2026-05-03T15:28:38Z</time></trkpt><trkpt lat="56.02419455210792" lon="22.166336776522847"><ele>176.0</ele><time>2026-05-03T15:28:39Z</time></trkpt><trkpt lat="56.024079382272205" lon="22.16632273906342"><ele>176.0</ele><time>2026-05-03T15:28:41Z</time></trkpt><trkpt lat="56.023962960917174" lon="22.166321018371768"><ele>176.0</ele><time>2026-05-03T15:28:43Z</time></trkpt><trkpt lat="56.02386058242747" lon="22.166312181456888"><ele>176.0</ele><time>2026-05-03T15:28:45Z</time></trkpt><trkpt lat="56.02378069185989" lon="22.166299388422946"><ele>176.0</ele><time>2026-05-03T15:28:47Z</time></trkpt><trkpt lat="56.02368884163033" lon="22.16627659335674"><ele>176.0</ele><time>2026-05-03T15:28:49Z</time></trkpt><trkpt lat="56.023584659705236" lon="22.16623140070094"><ele>176.0</ele><time>2026-05-03T15:28:51Z</time></trkpt><trkpt lat="56.02347228365491" lon="22.166194858338923"><ele>176.0</ele><time>2026-05-03T15:28:53Z</time></trkpt><trkpt lat="56.02337342008199" lon="22.166145992300944"><ele>176.0</ele><time>2026-05-03T15:28:55Z</time></trkpt><trkpt lat="56.02326731273454" lon="22.166108977457633"><ele>175.57142857142858</ele><time>2026-05-03T15:28:57Z</time></trkpt><trkpt lat="56.02320490927155" lon="22.16608617601628"><ele>175.14285714285714</ele><time>2026-05-03T15:28:58Z</time></trkpt><trkpt lat="56.02314020885101" lon="22.166059282890256"><ele>174.71428571428572</ele><time>2026-05-03T15:28:59Z</time></trkpt><trkpt lat="56.023074948835664" lon="22.16603793574931"><ele>174.28571428571428</ele><time>2026-05-03T15:29:00Z</time></trkpt><trkpt lat="56.02300918787394" lon="22.166012013748514"><ele>173.85714285714286</ele><time>2026-05-03T15:29:01Z</time></trkpt><trkpt lat="56.022946570699204" lon="22.16599445061142"><ele>173.42857142857142</ele><time>2026-05-03T15:29:02Z</time></trkpt><trkpt lat="56.02283125106988" lon="22.165975760475625"><ele>173.0</ele><time>2026-05-03T15:29:04Z</time></trkpt><trkpt lat="56.02273506750482" lon="22.16592440985278"><ele>173.0</ele><time>2026-05-03T15:29:06Z</time></trkpt><trkpt lat="56.02266447641122" lon="22.16586800136778"><ele>173.0</ele><time>2026-05-03T15:29:08Z</time></trkpt><trkpt lat="56.0225698860874" lon="22.16583597854921"><ele>173.0</ele><time>2026-05-03T15:29:10Z</time></trkpt><trkpt lat="56.022483698001885" lon="22.165796015563956"><ele>173.0</ele><time>2026-05-03T15:29:12Z</time></trkpt><trkpt lat="56.02240348561214" lon="22.165751114266016"><ele>173.0</ele><time>2026-05-03T15:29:14Z</time></trkpt><trkpt lat="56.02232291111853" lon="22.16570075594249"><ele>173.0</ele><time>2026-05-03T15:29:16Z</time></trkpt><trkpt lat="56.022255180550424" lon="22.165655700424274"><ele>173.5</ele><time>2026-05-03T15:29:18Z</time></trkpt><trkpt lat="56.0221828446354" lon="22.165596720566246"><ele>174.0</ele><time>2026-05-03T15:29:20Z</time></trkpt><trkpt lat="56.02212790838113" lon="22.165507333488186"><ele>174.5</ele><time>2026-05-03T15:29:22Z</time></trkpt><trkpt lat="56.02206545950758" lon="22.16538905080303"><ele>175.0</ele><time>2026-05-03T15:29:24Z</time></trkpt><trkpt lat="56.022009454397576" lon="22.16526082569668"><ele>175.5</ele><time>2026-05-03T15:29:26Z</time></trkpt><trkpt lat="56.021947189309934" lon="22.165121715296962"><ele>176.0</ele><time>2026-05-03T15:29:28Z</time></trkpt><trkpt lat="56.0218774589774" lon="22.164980740967103"><ele>176.0</ele><time>2026-05-03T15:29:30Z</time></trkpt><trkpt lat="56.021812476521745" lon="22.164849848495457"><ele>176.0</ele><time>2026-05-03T15:29:32Z</time></trkpt><trkpt lat="56.02174057568467" lon="22.164721932025568"><ele>176.0</ele><time>2026-05-03T15:29:34Z</time></trkpt><trkpt lat="56.021666607445304" lon="22.16461356247837"><ele>176.0</ele><time>2026-05-03T15:29:36Z</time></trkpt><trkpt lat="56.02157517055443" lon="22.16448671914154"><ele>176.0</ele><time>2026-05-03T15:29:38Z</time></trkpt><trkpt lat="56.02147489380393" lon="22.164376931064144"><ele>176.0</ele><time>2026-05-03T15:29:40Z</time></trkpt><trkpt lat="56.02137674532085" lon="22.16430573701841"><ele>176.0</ele><time>2026-05-03T15:29:42Z</time></trkpt><trkpt lat="56.021263294336336" lon="22.164259738925093"><ele>176.0</ele><time>2026-05-03T15:29:44Z</time></trkpt><trkpt lat="56.02119976703922" lon="22.16424188014237"><ele>176.0</ele><time>2026-05-03T15:29:45Z</time></trkpt><trkpt lat="56.02113256730666" lon="22.164242950961096"><ele>176.0</ele><time>2026-05-03T15:29:46Z</time></trkpt><trkpt lat="56.0210668441818" lon="22.164233907857316"><ele>176.0</ele><time>2026-05-03T15:29:47Z</time></trkpt><trkpt lat="56.02100246868919" lon="22.164246260156848"><ele>176.0</ele><time>2026-05-03T15:29:48Z</time></trkpt><trkpt lat="56.02089261669536" lon="22.16427576186243"><ele>176.0</ele><time>2026-05-03T15:29:50Z</time></trkpt><trkpt lat="56.02076900021192" lon="22.16433609121847"><ele>176.0</ele><time>2026-05-03T15:29:52Z</time></trkpt><trkpt lat="56.020704815279515" lon="22.164367474434453"><ele>176.0</ele><time>2026-05-03T15:29:53Z</time></trkpt><trkpt lat="56.020643566331366" lon="22.164406869098467"><ele>176.0</ele><time>2026-05-03T15:29:54Z</time></trkpt><trkpt lat="56.02054273270609" lon="22.164469397465005"><ele>175.71428571428572</ele><time>2026-05-03T15:29:56Z</time></trkpt><trkpt lat="56.02048144321136" lon="22.16452440099354"><ele>175.42857142857142</ele><time>2026-05-03T15:29:57Z</time></trkpt><trkpt lat="56.02041924837124" lon="22.16458021693709"><ele>175.14285714285714</ele><time>2026-05-03T15:29:58Z</time></trkpt><trkpt lat="56.02035791908138" lon="22.164635256369934"><ele>174.85714285714286</ele><time>2026-05-03T15:29:59Z</time></trkpt><trkpt lat="56.020298652584394" lon="22.16473424241791"><ele>174.57142857142858</ele><time>2026-05-03T15:30:00Z</time></trkpt><trkpt lat="56.02022471965169" lon="22.1647937799598"><ele>174.28571428571428</ele><time>2026-05-03T15:30:01Z</time></trkpt><trkpt lat="56.020166107070345" lon="22.16486722837929"><ele>174.0</ele><time>2026-05-03T15:30:02Z</time></trkpt><trkpt lat="56.02010644174884" lon="22.164928166482948"><ele>173.83333333333334</ele><time>2026-05-03T15:30:03Z</time></trkpt><trkpt lat="56.020040981333835" lon="22.164996616774225"><ele>173.66666666666666</ele><time>2026-05-03T15:30:04Z</time></trkpt><trkpt lat="56.019976793640936" lon="22.16506528132274"><ele>173.5</ele><time>2026-05-03T15:30:05Z</time></trkpt><trkpt lat="56.019912384894795" lon="22.165131184244"><ele>173.33333333333331</ele><time>2026-05-03T15:30:06Z</time></trkpt><trkpt lat="56.01984587745183" lon="22.165198626823685"><ele>173.16666666666666</ele><time>2026-05-03T15:30:07Z</time></trkpt><trkpt lat="56.01977088722811" lon="22.165276833793126"><ele>173.0</ele><time>2026-05-03T15:30:08Z</time></trkpt><trkpt lat="56.019700238709575" lon="22.165350939365986"><ele>173.0</ele><time>2026-05-03T15:30:09Z</time></trkpt><trkpt lat="56.01964189325781" lon="22.165404855248312"><ele>173.0</ele><time>2026-05-03T15:30:10Z</time></trkpt><trkpt lat="56.019527845375116" lon="22.165527684632607"><ele>173.0</ele><time>2026-05-03T15:30:12Z</time></trkpt><trkpt lat="56.01946281795545" lon="22.165597622962892"><ele>173.0</ele><time>2026-05-03T15:30:13Z</time></trkpt><trkpt lat="56.019397371384585" lon="22.165661724688544"><ele>173.0</ele><time>2026-05-03T15:30:14Z</time></trkpt><trkpt lat="56.01933613019429" lon="22.165719055831097"><ele>173.0</ele><time>2026-05-03T15:30:15Z</time></trkpt><trkpt lat="56.019273793574506" lon="22.16577835230262"><ele>173.16666666666666</ele><time>2026-05-03T15:30:16Z</time></trkpt><trkpt lat="56.019207628276384" lon="22.165853092196556"><ele>173.33333333333331</ele><time>2026-05-03T15:30:17Z</time></trkpt><trkpt lat="56.01914480724371" lon="22.16591795566417"><ele>173.5</ele><time>2026-05-03T15:30:18Z</time></trkpt><trkpt lat="56.019082227692486" lon="22.165979744421257"><ele>173.66666666666666</ele><time>2026-05-03T15:30:19Z</time></trkpt><trkpt lat="56.019019541068864" lon="22.166037386346186"><ele>173.83333333333334</ele><time>2026-05-03T15:30:20Z</time></trkpt><trkpt lat="56.01894796883662" lon="22.166110901280796"><ele>174.0</ele><time>2026-05-03T15:30:21Z</time></trkpt><trkpt lat="56.0188722655782" lon="22.166195071046495"><ele>174.42857142857142</ele><time>2026-05-03T15:30:22Z</time></trkpt><trkpt lat="56.01880836056691" lon="22.16626758669556"><ele>174.85714285714286</ele><time>2026-05-03T15:30:23Z</time></trkpt><trkpt lat="56.01874495559079" lon="22.166334454399035"><ele>175.28571428571428</ele><time>2026-05-03T15:30:24Z</time></trkpt><trkpt lat="56.01869002365248" lon="22.166395967091866"><ele>175.71428571428572</ele><time>2026-05-03T15:30:25Z</time></trkpt><trkpt lat="56.0186339453294" lon="22.166453179945158"><ele>176.14285714285714</ele><time>2026-05-03T15:30:26Z</time></trkpt><trkpt lat="56.018563539011296" lon="22.166520124053484"><ele>176.57142857142858</ele><time>2026-05-03T15:30:27Z</time></trkpt><trkpt lat="56.01849059630422" lon="22.16657652001584"><ele>177.0</ele><time>2026-05-03T15:30:28Z</time></trkpt><trkpt lat="56.0184343610456" lon="22.166649038264264"><ele>178.16666666666666</ele><time>2026-05-03T15:30:29Z</time></trkpt><trkpt lat="56.018316148131234" lon="22.166783631511056"><ele>179.33333333333334</ele><time>2026-05-03T15:30:31Z</time></trkpt><trkpt lat="56.01824584392902" lon="22.166851802447145"><ele>180.5</ele><time>2026-05-03T15:30:32Z</time></trkpt><trkpt lat="56.01817144174221" lon="22.16695801445336"><ele>181.66666666666669</ele><time>2026-05-03T15:30:34Z</time></trkpt><trkpt lat="56.01812171467098" lon="22.167041808131135"><ele>182.83333333333334</ele><time>2026-05-03T15:30:36Z</time></trkpt><trkpt lat="56.01807180507985" lon="22.16711845418878"><ele>184.0</ele><time>2026-05-03T15:30:38Z</time></trkpt><trkpt lat="56.01801806903553" lon="22.167228502762732"><ele>184.0</ele><time>2026-05-03T15:30:40Z</time></trkpt><trkpt lat="56.01795043537352" lon="22.16734052102745"><ele>184.0</ele><time>2026-05-03T15:30:42Z</time></trkpt><trkpt lat="56.017891809380046" lon="22.167456728090205"><ele>184.0</ele><time>2026-05-03T15:30:44Z</time></trkpt><trkpt lat="56.017827198489975" lon="22.16758741385197"><ele>184.0</ele><time>2026-05-03T15:30:46Z</time></trkpt><trkpt lat="56.017768514269996" lon="22.167727621832213"><ele>184.0</ele><time>2026-05-03T15:30:48Z</time></trkpt><trkpt lat="56.01770354625832" lon="22.16788573340702"><ele>183.5</ele><time>2026-05-03T15:30:50Z</time></trkpt><trkpt lat="56.01765779366016" lon="22.16798605130699"><ele>183.0</ele><time>2026-05-03T15:30:51Z</time></trkpt><trkpt lat="56.01760895943424" lon="22.168095078733714"><ele>182.5</ele><time>2026-05-03T15:30:52Z</time></trkpt><trkpt lat="56.01754622481312" lon="22.168236075504396"><ele>182.0</ele><time>2026-05-03T15:30:54Z</time></trkpt><trkpt lat="56.017477703686694" lon="22.16839320047667"><ele>181.5</ele><time>2026-05-03T15:30:56Z</time></trkpt><trkpt lat="56.01743764844218" lon="22.16848031775784"><ele>181.0</ele><time>2026-05-03T15:30:57Z</time></trkpt><trkpt lat="56.017395881362134" lon="22.168577918922015"><ele>180.5</ele><time>2026-05-03T15:30:58Z</time></trkpt><trkpt lat="56.01735004362173" lon="22.168683436600414"><ele>180.0</ele><time>2026-05-03T15:30:59Z</time></trkpt><trkpt lat="56.01730962624104" lon="22.168783193752876"><ele>179.5</ele><time>2026-05-03T15:31:00Z</time></trkpt><trkpt lat="56.01723277608391" lon="22.168972165751878"><ele>179.0</ele><time>2026-05-03T15:31:02Z</time></trkpt><trkpt lat="56.01718546811299" lon="22.169075630116666"><ele>178.5</ele><time>2026-05-03T15:31:03Z</time></trkpt><trkpt lat="56.017138908900066" lon="22.169172325929843"><ele>178.0</ele><time>2026-05-03T15:31:04Z</time></trkpt><trkpt lat="56.01705968215788" lon="22.169359876865602"><ele>177.99999999999997</ele><time>2026-05-03T15:31:06Z</time></trkpt><trkpt lat="56.01701450743751" lon="22.169462083135134"><ele>178.0</ele><time>2026-05-03T15:31:07Z</time></trkpt><trkpt lat="56.016970768766036" lon="22.169549391828323"><ele>178.0</ele><time>2026-05-03T15:31:08Z</time></trkpt><trkpt lat="56.016927914943004" lon="22.169647769196892"><ele>178.0</ele><time>2026-05-03T15:31:09Z</time></trkpt><trkpt lat="56.01688469946623" lon="22.169759119668885"><ele>178.0</ele><time>2026-05-03T15:31:10Z</time></trkpt><trkpt lat="56.01684110827289" lon="22.16985287733747"><ele>177.99999999999997</ele><time>2026-05-03T15:31:11Z</time></trkpt><trkpt lat="56.01680311082854" lon="22.169952239091746"><ele>178.0</ele><time>2026-05-03T15:31:12Z</time></trkpt><trkpt lat="56.01675822209615" lon="22.17005921727372"><ele>178.16666666666669</ele><time>2026-05-03T15:31:13Z</time></trkpt><trkpt lat="56.01670606361748" lon="22.170163119491917"><ele>178.33333333333334</ele><time>2026-05-03T15:31:14Z</time></trkpt><trkpt lat="56.01662549175176" lon="22.170333638097198"><ele>178.5</ele><time>2026-05-03T15:31:16Z</time></trkpt><trkpt lat="56.01658171525074" lon="22.170442118677787"><ele>178.66666666666666</ele><time>2026-05-03T15:31:17Z</time></trkpt><trkpt lat="56.016538037660524" lon="22.170544602224837"><ele>178.83333333333331</ele><time>2026-05-03T15:31:18Z</time></trkpt><trkpt lat="56.01649917317353" lon="22.170646232564305"><ele>179.0</ele><time>2026-05-03T15:31:19Z</time></trkpt><trkpt lat="56.016458040730285" lon="22.17074974574851"><ele>179.0</ele><time>2026-05-03T15:31:20Z</time></trkpt><trkpt lat="56.016416437386646" lon="22.17084441854113"><ele>179.0</ele><time>2026-05-03T15:31:21Z</time></trkpt><trkpt lat="56.01633742612298" lon="22.171026002897786"><ele>179.0</ele><time>2026-05-03T15:31:23Z</time></trkpt><trkpt lat="56.0162931457439" lon="22.171129580913167"><ele>179.0</ele><time>2026-05-03T15:31:24Z</time></trkpt><trkpt lat="56.016254049949524" lon="22.171220100568267"><ele>179.0</ele><time>2026-05-03T15:31:25Z</time></trkpt><trkpt lat="56.01617909010991" lon="22.171393011243662"><ele>179.2</ele><time>2026-05-03T15:31:27Z</time></trkpt><trkpt lat="56.01609474217829" lon="22.171566180347444"><ele>179.39999999999998</ele><time>2026-05-03T15:31:29Z</time></trkpt><trkpt lat="56.0160483874307" lon="22.17165428499493"><ele>179.6</ele><time>2026-05-03T15:31:30Z</time></trkpt><trkpt lat="56.01599997749465" lon="22.171741848410633"><ele>179.8</ele><time>2026-05-03T15:31:31Z</time></trkpt><trkpt lat="56.01595358283937" lon="22.17182906536097"><ele>180.0</ele><time>2026-05-03T15:31:32Z</time></trkpt><trkpt lat="56.01586020248477" lon="22.171971958005138"><ele>180.0</ele><time>2026-05-03T15:31:34Z</time></trkpt><trkpt lat="56.0157632961993" lon="22.17203757362901"><ele>180.0</ele><time>2026-05-03T15:31:36Z</time></trkpt><trkpt lat="56.01568209453357" lon="22.172287758951565"><ele>180.0</ele><time>2026-05-03T15:31:38Z</time></trkpt><trkpt lat="56.015664135738064" lon="22.1724020271123"><ele>180.0</ele><time>2026-05-03T15:31:39Z</time></trkpt><trkpt lat="56.015620590763945" lon="22.172576708605234"><ele>180.0</ele><time>2026-05-03T15:31:41Z</time></trkpt><trkpt lat="56.01559725454741" lon="22.172683707881724"><ele>180.0</ele><time>2026-05-03T15:31:42Z</time></trkpt><trkpt lat="56.015518397228504" lon="22.172873161568056"><ele>180.0</ele><time>2026-05-03T15:31:44Z</time></trkpt><trkpt lat="56.01547479518818" lon="22.172980854804273"><ele>180.0</ele><time>2026-05-03T15:31:45Z</time></trkpt><trkpt lat="56.0154234692507" lon="22.173100620012605"><ele>180.0</ele><time>2026-05-03T15:31:46Z</time></trkpt><trkpt lat="56.01537839069493" lon="22.173205983909003"><ele>180.0</ele><time>2026-05-03T15:31:47Z</time></trkpt><trkpt lat="56.01533430594276" lon="22.173308279838828"><ele>180.0</ele><time>2026-05-03T15:31:48Z</time></trkpt><trkpt lat="56.015289263211436" lon="22.17341784123585"><ele>180.0</ele><time>2026-05-03T15:31:49Z</time></trkpt><trkpt lat="56.015236340541264" lon="22.173532764276892"><ele>180.0</ele><time>2026-05-03T15:31:50Z</time></trkpt><trkpt lat="56.01516234329639" lon="22.1737094596807"><ele>180.0</ele><time>2026-05-03T15:31:51Z</time></trkpt><trkpt lat="56.01509116940244" lon="22.173881733126922"><ele>180.0</ele><time>2026-05-03T15:31:52Z</time></trkpt><trkpt lat="56.01504553375311" lon="22.17400146133504"><ele>180.0</ele><time>2026-05-03T15:31:53Z</time></trkpt><trkpt lat="56.01500838372858" lon="22.1740932804545"><ele>179.8</ele><time>2026-05-03T15:31:54Z</time></trkpt><trkpt lat="56.014932599309766" lon="22.174260777208257"><ele>179.6</ele><time>2026-05-03T15:31:56Z</time></trkpt><trkpt lat="56.01485221802999" lon="22.174387592535645"><ele>179.39999999999998</ele><time>2026-05-03T15:31:58Z</time></trkpt><trkpt lat="56.014793493243154" lon="22.174515097651994"><ele>179.2</ele><time>2026-05-03T15:32:00Z</time></trkpt><trkpt lat="56.01470639180621" lon="22.17466501978745"><ele>179.0</ele><time>2026-05-03T15:32:02Z</time></trkpt><trkpt lat="56.01466270664517" lon="22.174758784048343"><ele>179.14285714285717</ele><time>2026-05-03T15:32:03Z</time></trkpt><trkpt lat="56.0146163960301" lon="22.174859582423522"><ele>179.28571428571428</ele><time>2026-05-03T15:32:04Z</time></trkpt><trkpt lat="56.014571189290905" lon="22.174949410475293"><ele>179.42857142857144</ele><time>2026-05-03T15:32:05Z</time></trkpt><trkpt lat="56.014528190224816" lon="22.175039008553433"><ele>179.57142857142858</ele><time>2026-05-03T15:32:06Z</time></trkpt><trkpt lat="56.01448239053571" lon="22.175135277975933"><ele>179.71428571428572</ele><time>2026-05-03T15:32:07Z</time></trkpt><trkpt lat="56.01443255727196" lon="22.175227591244976"><ele>179.85714285714286</ele><time>2026-05-03T15:32:08Z</time></trkpt><trkpt lat="56.01438294047573" lon="22.175328349598615"><ele>180.0</ele><time>2026-05-03T15:32:09Z</time></trkpt><trkpt lat="56.01432929775362" lon="22.175435193488152"><ele>180.0</ele><time>2026-05-03T15:32:10Z</time></trkpt><trkpt lat="56.014283993421884" lon="22.175549832702938"><ele>180.0</ele><time>2026-05-03T15:32:11Z</time></trkpt><trkpt lat="56.01423524676994" lon="22.175654989194385"><ele>180.0</ele><time>2026-05-03T15:32:12Z</time></trkpt><trkpt lat="56.014184824233745" lon="22.175749296006863"><ele>180.0</ele><time>2026-05-03T15:32:13Z</time></trkpt><trkpt lat="56.014139494746715" lon="22.17584481451911"><ele>180.0</ele><time>2026-05-03T15:32:14Z</time></trkpt><trkpt lat="56.014097148431254" lon="22.17594271761721"><ele>180.0</ele><time>2026-05-03T15:32:15Z</time></trkpt><trkpt lat="56.01403504121245" lon="22.176106620092717"><ele>179.66666666666666</ele><time>2026-05-03T15:32:17Z</time></trkpt><trkpt lat="56.01398315868459" lon="22.17619062564684"><ele>179.33333333333334</ele><time>2026-05-03T15:32:26Z</time></trkpt><trkpt lat="56.01393226454203" lon="22.176261774770705"><ele>179.0</ele><time>2026-05-03T15:33:11Z</time></trkpt><trkpt lat="56.01390156766593" lon="22.17638217387516"><ele>178.66666666666669</ele><time>2026-05-03T15:33:13Z</time></trkpt><trkpt lat="56.01382477640734" lon="22.176576947885188"><ele>178.33333333333334</ele><time>2026-05-03T15:33:15Z</time></trkpt><trkpt lat="56.0137762551466" lon="22.176667881581594"><ele>178.0</ele><time>2026-05-03T15:33:17Z</time></trkpt><trkpt lat="56.01373338305085" lon="22.1768253631206"><ele>178.0</ele><time>2026-05-03T15:33:20Z</time></trkpt><trkpt lat="56.01368835712311" lon="22.1769389841704"><ele>178.0</ele><time>2026-05-03T15:33:22Z</time></trkpt><trkpt lat="56.01365308299554" lon="22.177072377850408"><ele>178.0</ele><time>2026-05-03T15:33:24Z</time></trkpt><trkpt lat="56.01362655260695" lon="22.177209663756127"><ele>178.0</ele><time>2026-05-03T15:33:26Z</time></trkpt><trkpt lat="56.013599423616" lon="22.17740495638935"><ele>178.0</ele><time>2026-05-03T15:33:28Z</time></trkpt><trkpt lat="56.01357674828454" lon="22.177547413612874"><ele>178.0</ele><time>2026-05-03T15:33:30Z</time></trkpt><trkpt lat="56.013608236401595" lon="22.17764866541626"><ele>178.0</ele><time>2026-05-03T15:33:31Z</time></trkpt><trkpt lat="56.01362684659435" lon="22.1777576205226"><ele>178.0</ele><time>2026-05-03T15:33:32Z</time></trkpt><trkpt lat="56.013660902617865" lon="22.177944123969937"><ele>178.0</ele><time>2026-05-03T15:33:34Z</time></trkpt><trkpt lat="56.013700983697504" lon="22.17817252910194"><ele>178.0</ele><time>2026-05-03T15:33:36Z</time></trkpt><trkpt lat="56.01373573735728" lon="22.178367897955013"><ele>178.0</ele><time>2026-05-03T15:33:37Z</time></trkpt><trkpt lat="56.01377301944672" lon="22.17858623511944"><ele>177.83333333333334</ele><time>2026-05-03T15:33:38Z</time></trkpt><trkpt lat="56.01380852765661" lon="22.178782128873323"><ele>177.66666666666669</ele><time>2026-05-03T15:33:39Z</time></trkpt><trkpt lat="56.0138361020443" lon="22.17892595150113"><ele>177.5</ele><time>2026-05-03T15:33:40Z</time></trkpt><trkpt lat="56.01386145776957" lon="22.179047994005895"><ele>177.33333333333334</ele><time>2026-05-03T15:33:41Z</time></trkpt><trkpt lat="56.01388354785345" lon="22.179173509660803"><ele>177.16666666666666</ele><time>2026-05-03T15:33:42Z</time></trkpt><trkpt lat="56.01391032617906" lon="22.179311469447796"><ele>177.0</ele><time>2026-05-03T15:33:43Z</time></trkpt><trkpt lat="56.01393214225352" lon="22.179437078175514"><ele>176.6</ele><time>2026-05-03T15:33:44Z</time></trkpt><trkpt lat="56.013950479973346" lon="22.179554199297307"><ele>176.2</ele><time>2026-05-03T15:33:45Z</time></trkpt><trkpt lat="56.01398509620238" lon="22.1797400271888"><ele>175.8</ele><time>2026-05-03T15:33:47Z</time></trkpt><trkpt lat="56.014018877384885" lon="22.179901794680227"><ele>175.4</ele><time>2026-05-03T15:33:49Z</time></trkpt><trkpt lat="56.01405546495328" lon="22.18010908891707"><ele>175.0</ele><time>2026-05-03T15:33:51Z</time></trkpt><trkpt lat="56.01408982032498" lon="22.1803191502893"><ele>175.0</ele><time>2026-05-03T15:33:53Z</time></trkpt><trkpt lat="56.01413001003812" lon="22.18053453631276"><ele>175.0</ele><time>2026-05-03T15:33:55Z</time></trkpt><trkpt lat="56.014171620816796" lon="22.180745485740115"><ele>175.0</ele><time>2026-05-03T15:33:57Z</time></trkpt><trkpt lat="56.01419312849622" lon="22.18085366951708"><ele>175.0</ele><time>2026-05-03T15:33:58Z</time></trkpt><trkpt lat="56.01421455951442" lon="22.18097245369586"><ele>175.0</ele><time>2026-05-03T15:33:59Z</time></trkpt><trkpt lat="56.01423409711005" lon="22.181098479128053"><ele>175.0</ele><time>2026-05-03T15:34:00Z</time></trkpt><trkpt lat="56.0142567751904" lon="22.181233478423838"><ele>175.0</ele><time>2026-05-03T15:34:01Z</time></trkpt><trkpt lat="56.01428241871478" lon="22.181355764103166"><ele>175.0</ele><time>2026-05-03T15:34:02Z</time></trkpt><trkpt lat="56.01430549981744" lon="22.181483576303346"><ele>175.0</ele><time>2026-05-03T15:34:03Z</time></trkpt><trkpt lat="56.01432449110067" lon="22.181601742628345"><ele>175.0</ele><time>2026-05-03T15:34:04Z</time></trkpt><trkpt lat="56.01434761021952" lon="22.181718880125636"><ele>175.0</ele><time>2026-05-03T15:34:05Z</time></trkpt><trkpt lat="56.01437159511741" lon="22.181845175118458"><ele>175.0</ele><time>2026-05-03T15:34:06Z</time></trkpt><trkpt lat="56.014393837557876" lon="22.18197760934369"><ele>174.85714285714286</ele><time>2026-05-03T15:34:07Z</time></trkpt><trkpt lat="56.01441638302945" lon="22.182105143503804"><ele>174.71428571428572</ele><time>2026-05-03T15:34:08Z</time></trkpt><trkpt lat="56.014441723947485" lon="22.18223102262715"><ele>174.57142857142856</ele><time>2026-05-03T15:34:09Z</time></trkpt><trkpt lat="56.01446518577126" lon="22.182356573820556"><ele>174.42857142857144</ele><time>2026-05-03T15:34:10Z</time></trkpt><trkpt lat="56.01448719978527" lon="22.182478025875"><ele>174.28571428571428</ele><time>2026-05-03T15:34:11Z</time></trkpt><trkpt lat="56.01450842658537" lon="22.182592610405976"><ele>174.14285714285714</ele><time>2026-05-03T15:34:12Z</time></trkpt><trkpt lat="56.014527987677" lon="22.182713762193377"><ele>174.0</ele><time>2026-05-03T15:34:13Z</time></trkpt><trkpt lat="56.014549975450926" lon="22.182829740367133"><ele>173.66666666666666</ele><time>2026-05-03T15:34:14Z</time></trkpt><trkpt lat="56.014590837626656" lon="22.183048503026566"><ele>173.33333333333334</ele><time>2026-05-03T15:34:16Z</time></trkpt><trkpt lat="56.01461141122857" lon="22.183169351083254"><ele>173.0</ele><time>2026-05-03T15:34:17Z</time></trkpt><trkpt lat="56.014635941474936" lon="22.183296902516062"><ele>172.66666666666669</ele><time>2026-05-03T15:34:18Z</time></trkpt><trkpt lat="56.014660914260475" lon="22.18342363835297"><ele>172.33333333333334</ele><time>2026-05-03T15:34:19Z</time></trkpt><trkpt lat="56.01468175981592" lon="22.183554696799167"><ele>172.0</ele><time>2026-05-03T15:34:20Z</time></trkpt><trkpt lat="56.01471304479795" lon="22.183731680683355"><ele>172.0</ele><time>2026-05-03T15:34:21Z</time></trkpt><trkpt lat="56.014744859821754" lon="22.183908302555107"><ele>172.0</ele><time>2026-05-03T15:34:22Z</time></trkpt><trkpt lat="56.014769859985165" lon="22.18404404066811"><ele>172.0</ele><time>2026-05-03T15:34:23Z</time></trkpt><trkpt lat="56.01479326666274" lon="22.18416984493241"><ele>172.0</ele><time>2026-05-03T15:34:24Z</time></trkpt><trkpt lat="56.01482080347095" lon="22.18429635872812"><ele>172.0</ele><time>2026-05-03T15:34:25Z</time></trkpt><trkpt lat="56.014852243349196" lon="22.184445590699877"><ele>172.0</ele><time>2026-05-03T15:34:26Z</time></trkpt><trkpt lat="56.014886023831345" lon="22.18460829000896"><ele>172.0</ele><time>2026-05-03T15:34:27Z</time></trkpt><trkpt lat="56.01492200893008" lon="22.184818555314916"><ele>172.0</ele><time>2026-05-03T15:34:28Z</time></trkpt><trkpt lat="56.014964839911194" lon="22.185038831131205"><ele>172.0</ele><time>2026-05-03T15:34:29Z</time></trkpt><trkpt lat="56.01498537256777" lon="22.18524100323487"><ele>172.0</ele><time>2026-05-03T15:34:30Z</time></trkpt><trkpt lat="56.01501371802082" lon="22.185396822794473"><ele>171.8</ele><time>2026-05-03T15:34:31Z</time></trkpt><trkpt lat="56.01503608672291" lon="22.185519000929386"><ele>171.6</ele><time>2026-05-03T15:34:32Z</time></trkpt><trkpt lat="56.01507077072205" lon="22.185708445435232"><ele>171.4</ele><time>2026-05-03T15:34:34Z</time></trkpt><trkpt lat="56.01512069636155" lon="22.185889972559504"><ele>171.20000000000002</ele><time>2026-05-03T15:34:35.999Z</time></trkpt><trkpt lat="56.015154479743806" lon="22.186091827959697"><ele>171.0</ele><time>2026-05-03T15:34:37.999Z</time></trkpt><trkpt lat="56.01518097523323" lon="22.186250544196565"><ele>171.0</ele><time>2026-05-03T15:34:39.999Z</time></trkpt><trkpt lat="56.015199037675494" lon="22.186375710291664"><ele>171.0</ele><time>2026-05-03T15:34:41.999Z</time></trkpt><trkpt lat="56.01522539510159" lon="22.186534447925652"><ele>171.0</ele><time>2026-05-03T15:35:02.999Z</time></trkpt><trkpt lat="56.0152511306676" lon="22.186685970056523"><ele>171.0</ele><time>2026-05-03T15:35:04.999Z</time></trkpt><trkpt lat="56.015286193243824" lon="22.186865504439158"><ele>171.0</ele><time>2026-05-03T15:35:07Z</time></trkpt><trkpt lat="56.01531297419064" lon="22.18699462681716"><ele>171.0</ele><time>2026-05-03T15:35:08Z</time></trkpt><trkpt lat="56.01534823754994" lon="22.187197128606687"><ele>170.8</ele><time>2026-05-03T15:35:10Z</time></trkpt><trkpt lat="56.0153887933712" lon="22.18738979895853"><ele>170.60000000000002</ele><time>2026-05-03T15:35:12Z</time></trkpt><trkpt lat="56.015411844655965" lon="22.187512758803926"><ele>170.4</ele><time>2026-05-03T15:35:13Z</time></trkpt><trkpt lat="56.015431766141845" lon="22.187630631267673"><ele>170.2</ele><time>2026-05-03T15:35:14Z</time></trkpt><trkpt lat="56.015467998784416" lon="22.18782457548868"><ele>170.0</ele><time>2026-05-03T15:35:16Z</time></trkpt><trkpt lat="56.01549991264685" lon="22.18800066453551"><ele>170.0</ele><time>2026-05-03T15:35:18Z</time></trkpt><trkpt lat="56.01553802900054" lon="22.188132577276132"><ele>170.0</ele><time>2026-05-03T15:35:20Z</time></trkpt><trkpt lat="56.01562608674904" lon="22.18812677146995"><ele>170.0</ele><time>2026-05-03T15:35:21Z</time></trkpt><trkpt lat="56.01571901412545" lon="22.1881847516985"><ele>170.0</ele><time>2026-05-03T15:35:23Z</time></trkpt><trkpt lat="56.01583563361729" lon="22.18822687448477"><ele>170.0</ele><time>2026-05-03T15:35:25Z</time></trkpt><trkpt lat="56.015946535810606" lon="22.18826693226331"><ele>169.8</ele><time>2026-05-03T15:35:27Z</time></trkpt><trkpt lat="56.016055583086846" lon="22.188306319928714"><ele>169.6</ele><time>2026-05-03T15:35:29Z</time></trkpt><trkpt lat="56.01616999654495" lon="22.188347645900244"><ele>169.39999999999998</ele><time>2026-05-03T15:35:31Z</time></trkpt><trkpt lat="56.016238803229136" lon="22.18837249877804"><ele>169.2</ele><time>2026-05-03T15:35:32Z</time></trkpt><trkpt lat="56.01635181907521" lon="22.188402218837258"><ele>169.0</ele><time>2026-05-03T15:35:33Z</time></trkpt><trkpt lat="56.016557974879305" lon="22.188580538651664"><ele>169.0</ele><time>2026-05-03T15:35:34Z</time></trkpt><trkpt lat="56.0166175048406" lon="22.18868247179335"><ele>169.0</ele><time>2026-05-03T15:35:35Z</time></trkpt><trkpt lat="56.01668062890244" lon="22.188790558580596"><ele>169.0</ele><time>2026-05-03T15:35:37Z</time></trkpt><trkpt lat="56.016590799779856" lon="22.189462567134484"><ele>168.83333333333334</ele><time>2026-05-03T15:35:38Z</time></trkpt><trkpt lat="56.01648449022932" lon="22.189478771436953"><ele>168.66666666666669</ele><time>2026-05-03T15:35:40Z</time></trkpt><trkpt lat="56.01654186893118" lon="22.189537986305382"><ele>168.5</ele><time>2026-05-03T15:35:42Z</time></trkpt><trkpt lat="56.01659397200647" lon="22.189645719403238"><ele>168.33333333333334</ele><time>2026-05-03T15:35:49Z</time></trkpt><trkpt lat="56.016615814567544" lon="22.189806670132683"><ele>168.16666666666666</ele><time>2026-05-03T15:35:52Z</time></trkpt><trkpt lat="56.016631636191676" lon="22.189960747049426"><ele>168.0</ele><time>2026-05-03T15:35:54Z</time></trkpt><trkpt lat="56.0166537631179" lon="22.190092975981706"><ele>167.8</ele><time>2026-05-03T15:35:56Z</time></trkpt><trkpt lat="56.016684849591144" lon="22.190271186165994"><ele>167.60000000000002</ele><time>2026-05-03T15:35:58Z</time></trkpt><trkpt lat="56.01673936209381" lon="22.190434211454352"><ele>167.39999999999998</ele><time>2026-05-03T15:36:00Z</time></trkpt><trkpt lat="56.01681577187101" lon="22.190576095621022"><ele>167.2</ele><time>2026-05-03T15:36:02Z</time></trkpt><trkpt lat="56.01689340199039" lon="22.190671777264864"><ele>167.0</ele><time>2026-05-03T15:36:04Z</time></trkpt><trkpt lat="56.016987509715285" lon="22.19074864537591"><ele>166.6</ele><time>2026-05-03T15:36:06Z</time></trkpt><trkpt lat="56.01708724275554" lon="22.190806367504617"><ele>166.2</ele><time>2026-05-03T15:36:08Z</time></trkpt><trkpt lat="56.01717120405491" lon="22.190840637611643"><ele>165.8</ele><time>2026-05-03T15:36:10Z</time></trkpt><trkpt lat="56.01725708241436" lon="22.190882281293774"><ele>165.4</ele><time>2026-05-03T15:36:12Z</time></trkpt><trkpt lat="56.01735997343544" lon="22.190932668297666"><ele>165.0</ele><time>2026-05-03T15:36:14Z</time></trkpt><trkpt lat="56.0174674131454" lon="22.190974755695073"><ele>163.6</ele><time>2026-05-03T15:36:16Z</time></trkpt><trkpt lat="56.01756736544597" lon="22.191002817879966"><ele>162.2</ele><time>2026-05-03T15:36:18Z</time></trkpt><trkpt lat="56.01769585270539" lon="22.19104179148601"><ele>160.8</ele><time>2026-05-03T15:36:20Z</time></trkpt><trkpt lat="56.01776742171461" lon="22.191061807497213"><ele>159.4</ele><time>2026-05-03T15:36:21Z</time></trkpt><trkpt lat="56.017846319422915" lon="22.191081004710867"><ele>158.0</ele><time>2026-05-03T15:36:22Z</time></trkpt><trkpt lat="56.01792936372332" lon="22.191103457261146"><ele>158.0</ele><time>2026-05-03T15:36:23Z</time></trkpt><trkpt lat="56.01800534802722" lon="22.191126892093596"><ele>158.0</ele><time>2026-05-03T15:36:24Z</time></trkpt><trkpt lat="56.01806993484792" lon="22.1911494041135"><ele>158.0</ele><time>2026-05-03T15:36:25Z</time></trkpt><trkpt lat="56.01818376178892" lon="22.191206850091127"><ele>158.0</ele><time>2026-05-03T15:36:27Z</time></trkpt><trkpt lat="56.018307475736165" lon="22.19121779785094"><ele>158.0</ele><time>2026-05-03T15:36:29Z</time></trkpt><trkpt lat="56.01843790697429" lon="22.191283563119974"><ele>157.4</ele><time>2026-05-03T15:36:31Z</time></trkpt><trkpt lat="56.01854558118882" lon="22.191286829978047"><ele>156.8</ele><time>2026-05-03T15:36:33Z</time></trkpt><trkpt lat="56.018618453945116" lon="22.191288889062687"><ele>156.2</ele><time>2026-05-03T15:36:35Z</time></trkpt><trkpt lat="56.018697972362006" lon="22.191278768769006"><ele>155.6</ele><time>2026-05-03T15:36:37Z</time></trkpt><trkpt lat="56.01880251386265" lon="22.19127202358717"><ele>155.0</ele><time>2026-05-03T15:36:39Z</time></trkpt><trkpt lat="56.01892167440085" lon="22.191256386129695"><ele>155.0</ele><time>2026-05-03T15:36:41Z</time></trkpt><trkpt lat="56.01904902831315" lon="22.191243121832684"><ele>155.0</ele><time>2026-05-03T15:36:43Z</time></trkpt><trkpt lat="56.019124095479796" lon="22.191242161506768"><ele>155.0</ele><time>2026-05-03T15:36:44Z</time></trkpt><trkpt lat="56.01919351125116" lon="22.19125287912111"><ele>155.0</ele><time>2026-05-03T15:36:45Z</time></trkpt><trkpt lat="56.01926248046774" lon="22.1912733723197"><ele>155.0</ele><time>2026-05-03T15:36:46Z</time></trkpt><trkpt lat="56.01933109356862" lon="22.19130137179396"><ele>155.0</ele><time>2026-05-03T15:36:47Z</time></trkpt><trkpt lat="56.01939594283485" lon="22.1913389145421"><ele>155.14285714285714</ele><time>2026-05-03T15:36:48Z</time></trkpt><trkpt lat="56.01945972515699" lon="22.191385217749396"><ele>155.28571428571428</ele><time>2026-05-03T15:36:49Z</time></trkpt><trkpt lat="56.019524924660786" lon="22.191442273842615"><ele>155.42857142857144</ele><time>2026-05-03T15:36:50Z</time></trkpt><trkpt lat="56.01958039530417" lon="22.19150714593623"><ele>155.57142857142856</ele><time>2026-05-03T15:36:51Z</time></trkpt><trkpt lat="56.019636946658295" lon="22.191570814075167"><ele>155.7142857142857</ele><time>2026-05-03T15:36:52Z</time></trkpt><trkpt lat="56.019694880124625" lon="22.19163439476684"><ele>155.85714285714286</ele><time>2026-05-03T15:36:53Z</time></trkpt><trkpt lat="56.01975470638624" lon="22.19169212383368"><ele>156.0</ele><time>2026-05-03T15:36:54Z</time></trkpt><trkpt lat="56.01981267398441" lon="22.19174398216449"><ele>156.0</ele><time>2026-05-03T15:36:55Z</time></trkpt><trkpt lat="56.01991217684417" lon="22.19180839166667"><ele>156.0</ele><time>2026-05-03T15:36:57Z</time></trkpt><trkpt lat="56.019972031105304" lon="22.19184347213731"><ele>156.0</ele><time>2026-05-03T15:36:58Z</time></trkpt><trkpt lat="56.02003266929657" lon="22.191878489148447"><ele>156.0</ele><time>2026-05-03T15:36:59Z</time></trkpt><trkpt lat="56.020151233275456" lon="22.191948878129676"><ele>156.0</ele><time>2026-05-03T15:37:01Z</time></trkpt><trkpt lat="56.02026849902638" lon="22.192015566942295"><ele>155.83333333333334</ele><time>2026-05-03T15:37:03Z</time></trkpt><trkpt lat="56.02033022097002" lon="22.192057127895055"><ele>155.66666666666666</ele><time>2026-05-03T15:37:04Z</time></trkpt><trkpt lat="56.0203935747774" lon="22.19209498758229"><ele>155.5</ele><time>2026-05-03T15:37:05Z</time></trkpt><trkpt lat="56.02045605518412" lon="22.19213195967592"><ele>155.33333333333331</ele><time>2026-05-03T15:37:06Z</time></trkpt><trkpt lat="56.02057710805327" lon="22.19220233081351"><ele>155.16666666666666</ele><time>2026-05-03T15:37:08Z</time></trkpt><trkpt lat="56.020682376568274" lon="22.192277817411416"><ele>155.0</ele><time>2026-05-03T15:37:10Z</time></trkpt><trkpt lat="56.020786238011155" lon="22.19236086082567"><ele>154.6</ele><time>2026-05-03T15:37:12Z</time></trkpt><trkpt lat="56.02089032497232" lon="22.192476051225935"><ele>154.2</ele><time>2026-05-03T15:37:14Z</time></trkpt><trkpt lat="56.02094450925274" lon="22.19253840590938"><ele>153.8</ele><time>2026-05-03T15:37:15Z</time></trkpt><trkpt lat="56.021000965312325" lon="22.192610154277254"><ele>153.4</ele><time>2026-05-03T15:37:16Z</time></trkpt><trkpt lat="56.02110077089826" lon="22.19276713717165"><ele>153.0</ele><time>2026-05-03T15:37:18Z</time></trkpt><trkpt lat="56.02118070012942" lon="22.19289581039597"><ele>153.0</ele><time>2026-05-03T15:37:20Z</time></trkpt><trkpt lat="56.02126195460947" lon="22.193024258542554"><ele>153.0</ele><time>2026-05-03T15:37:22Z</time></trkpt><trkpt lat="56.02134973274051" lon="22.193158083738503"><ele>153.0</ele><time>2026-05-03T15:37:24Z</time></trkpt><trkpt lat="56.02139767185004" lon="22.193233282166364"><ele>153.0</ele><time>2026-05-03T15:37:25Z</time></trkpt><trkpt lat="56.021452077981635" lon="22.193312255071284"><ele>153.0</ele><time>2026-05-03T15:37:26Z</time></trkpt><trkpt lat="56.02150888493356" lon="22.193389844840393"><ele>153.0</ele><time>2026-05-03T15:37:27Z</time></trkpt><trkpt lat="56.02155873580646" lon="22.193461202036556"><ele>153.20000000000002</ele><time>2026-05-03T15:37:28Z</time></trkpt><trkpt lat="56.021655165766134" lon="22.193602702288064"><ele>153.4</ele><time>2026-05-03T15:37:30Z</time></trkpt><trkpt lat="56.021705842138665" lon="22.193678151063718"><ele>153.60000000000002</ele><time>2026-05-03T15:37:31Z</time></trkpt><trkpt lat="56.021790421999526" lon="22.19382438977479"><ele>153.8</ele><time>2026-05-03T15:37:33Z</time></trkpt><trkpt lat="56.02186579777715" lon="22.194003765322304"><ele>154.0</ele><time>2026-05-03T15:37:35Z</time></trkpt><trkpt lat="56.021961020300886" lon="22.194147255258418"><ele>154.16666666666669</ele><time>2026-05-03T15:37:37Z</time></trkpt><trkpt lat="56.02207207163161" lon="22.194271028128156"><ele>154.33333333333334</ele><time>2026-05-03T15:37:39Z</time></trkpt><trkpt lat="56.02213159511362" lon="22.194326004607202"><ele>154.5</ele><time>2026-05-03T15:37:40Z</time></trkpt><trkpt lat="56.0221925643086" lon="22.194369571861"><ele>154.66666666666666</ele><time>2026-05-03T15:37:41Z</time></trkpt><trkpt lat="56.02226123808989" lon="22.194398578833887"><ele>154.83333333333331</ele><time>2026-05-03T15:37:42Z</time></trkpt><trkpt lat="56.02234936602366" lon="22.19443108899262"><ele>155.0</ele><time>2026-05-03T15:37:43Z</time></trkpt><trkpt lat="56.02243220306046" lon="22.194453314375433"><ele>154.85714285714286</ele><time>2026-05-03T15:37:44Z</time></trkpt><trkpt lat="56.022504714557364" lon="22.194475251442334"><ele>154.71428571428572</ele><time>2026-05-03T15:37:45Z</time></trkpt><trkpt lat="56.02256946804969" lon="22.194493428620092"><ele>154.57142857142856</ele><time>2026-05-03T15:37:46Z</time></trkpt><trkpt lat="56.0226376659688" lon="22.19451644376049"><ele>154.42857142857144</ele><time>2026-05-03T15:37:47Z</time></trkpt><trkpt lat="56.022710979021994" lon="22.194538173184934"><ele>154.28571428571428</ele><time>2026-05-03T15:37:48Z</time></trkpt><trkpt lat="56.022782592054355" lon="22.194562958275096"><ele>154.14285714285714</ele><time>2026-05-03T15:37:49Z</time></trkpt><trkpt lat="56.02284551925045" lon="22.194578471791477"><ele>154.0</ele><time>2026-05-03T15:37:50Z</time></trkpt><trkpt lat="56.02294075450058" lon="22.194612046803723"><ele>154.0</ele><time>2026-05-03T15:37:52Z</time></trkpt><trkpt lat="56.02302045536262" lon="22.194634390708863"><ele>154.0</ele><time>2026-05-03T15:37:54Z</time></trkpt><trkpt lat="56.02309507002661" lon="22.194651073663355"><ele>154.0</ele><time>2026-05-03T15:37:56Z</time></trkpt><trkpt lat="56.023174765215835" lon="22.194661020495776"><ele>154.0</ele><time>2026-05-03T15:37:58Z</time></trkpt><trkpt lat="56.02327261749429" lon="22.19467060226856"><ele>154.0</ele><time>2026-05-03T15:38:00Z</time></trkpt><trkpt lat="56.02339447934223" lon="22.19467688157192"><ele>153.28571428571428</ele><time>2026-05-03T15:38:02Z</time></trkpt><trkpt lat="56.02346105428087" lon="22.19468602935723"><ele>152.57142857142856</ele><time>2026-05-03T15:38:03Z</time></trkpt><trkpt lat="56.023528548454536" lon="22.19469571388486"><ele>151.85714285714286</ele><time>2026-05-03T15:38:04Z</time></trkpt><trkpt lat="56.0235980078935" lon="22.1947032436175"><ele>151.14285714285714</ele><time>2026-05-03T15:38:05Z</time></trkpt><trkpt lat="56.02366527061145" lon="22.19471309195548"><ele>150.42857142857142</ele><time>2026-05-03T15:38:06Z</time></trkpt><trkpt lat="56.023731827191405" lon="22.194720842872627"><ele>149.71428571428572</ele><time>2026-05-03T15:38:07Z</time></trkpt><trkpt lat="56.02379799493129" lon="22.19473035993324"><ele>149.0</ele><time>2026-05-03T15:38:08Z</time></trkpt><trkpt lat="56.023868062348" lon="22.194740040534548"><ele>149.0</ele><time>2026-05-03T15:38:09Z</time></trkpt><trkpt lat="56.023940216814175" lon="22.194746220402898"><ele>149.0</ele><time>2026-05-03T15:38:10Z</time></trkpt><trkpt lat="56.02400867603319" lon="22.194752388253004"><ele>149.0</ele><time>2026-05-03T15:38:11Z</time></trkpt><trkpt lat="56.02412070639998" lon="22.19475975229261"><ele>149.0</ele><time>2026-05-03T15:38:13Z</time></trkpt><trkpt lat="56.02422290779029" lon="22.19477479775871"><ele>149.0</ele><time>2026-05-03T15:38:15Z</time></trkpt><trkpt lat="56.02431766135671" lon="22.194768893117075"><ele>147.66666666666666</ele><time>2026-05-03T15:38:17Z</time></trkpt><trkpt lat="56.024436397348865" lon="22.194777882098606"><ele>146.33333333333331</ele><time>2026-05-03T15:38:19Z</time></trkpt><trkpt lat="56.02450260485584" lon="22.19478067540861"><ele>145.0</ele><time>2026-05-03T15:38:20Z</time></trkpt><trkpt lat="56.02456779790223" lon="22.19477201229026"><ele>143.66666666666666</ele><time>2026-05-03T15:38:21Z</time></trkpt><trkpt lat="56.024694652316455" lon="22.19475237294802"><ele>142.33333333333334</ele><time>2026-05-03T15:38:23Z</time></trkpt><trkpt lat="56.02476290889583" lon="22.194739711081596"><ele>141.0</ele><time>2026-05-03T15:38:24Z</time></trkpt><trkpt lat="56.024882451366594" lon="22.194715479219827"><ele>140.6</ele><time>2026-05-03T15:38:26Z</time></trkpt><trkpt lat="56.02498487571864" lon="22.19471249098653"><ele>140.2</ele><time>2026-05-03T15:38:28Z</time></trkpt><trkpt lat="56.0250809999613" lon="22.194625391681562"><ele>139.8</ele><time>2026-05-03T15:38:30Z</time></trkpt><trkpt lat="56.02519460258723" lon="22.194555836785856"><ele>139.4</ele><time>2026-05-03T15:38:32Z</time></trkpt><trkpt lat="56.0252994198061" lon="22.194481894602646"><ele>139.0</ele><time>2026-05-03T15:38:34Z</time></trkpt><trkpt lat="56.02540023162246" lon="22.194405047749147"><ele>139.0</ele><time>2026-05-03T15:38:36Z</time></trkpt><trkpt lat="56.02550143396658" lon="22.194348918435413"><ele>139.0</ele><time>2026-05-03T15:38:38Z</time></trkpt><trkpt lat="56.025569446375044" lon="22.19431186601673"><ele>139.0</ele><time>2026-05-03T15:38:39Z</time></trkpt><trkpt lat="56.02567172816914" lon="22.194255640088816"><ele>139.0</ele><time>2026-05-03T15:38:40Z</time></trkpt><trkpt lat="56.02578726494578" lon="22.194283551212383"><ele>139.0</ele><time>2026-05-03T15:38:41Z</time></trkpt><trkpt lat="56.0258976976467" lon="22.194272874438493"><ele>140.0</ele><time>2026-05-03T15:38:42Z</time></trkpt><trkpt lat="56.02602237748843" lon="22.194280992069064"><ele>141.0</ele><time>2026-05-03T15:38:43Z</time></trkpt><trkpt lat="56.02615224385817" lon="22.19429547446073"><ele>142.0</ele><time>2026-05-03T15:38:44Z</time></trkpt><trkpt lat="56.02628235569148" lon="22.194289980649025"><ele>143.0</ele><time>2026-05-03T15:38:45Z</time></trkpt><trkpt lat="56.02639047124335" lon="22.194298826968165"><ele>143.0</ele><time>2026-05-03T15:38:46Z</time></trkpt><trkpt lat="56.02646896756848" lon="22.194311908479765"><ele>143.0</ele><time>2026-05-03T15:38:47Z</time></trkpt><trkpt lat="56.02653514276496" lon="22.194318447730307"><ele>143.0</ele><time>2026-05-03T15:38:48Z</time></trkpt><trkpt lat="56.02666154559792" lon="22.19431492795455"><ele>143.0</ele><time>2026-05-03T15:38:50Z</time></trkpt><trkpt lat="56.02673555113204" lon="22.194337889801027"><ele>143.0</ele><time>2026-05-03T15:38:51Z</time></trkpt><trkpt lat="56.02681585530352" lon="22.19432156878795"><ele>143.0</ele><time>2026-05-03T15:38:52Z</time></trkpt><trkpt lat="56.026892881443175" lon="22.194327146539212"><ele>144.0</ele><time>2026-05-03T15:38:53Z</time></trkpt><trkpt lat="56.02702324718771" lon="22.194338943384757"><ele>145.0</ele><time>2026-05-03T15:38:55Z</time></trkpt><trkpt lat="56.02709374703626" lon="22.194343914430956"><ele>146.0</ele><time>2026-05-03T15:38:56Z</time></trkpt><trkpt lat="56.02716873172403" lon="22.194357500818295"><ele>147.0</ele><time>2026-05-03T15:38:57Z</time></trkpt><trkpt lat="56.02724421911343" lon="22.194374907583747"><ele>148.0</ele><time>2026-05-03T15:38:58Z</time></trkpt><trkpt lat="56.02731831409534" lon="22.19438971655248"><ele>149.0</ele><time>2026-05-03T15:38:59Z</time></trkpt><trkpt lat="56.02738825580236" lon="22.194399795610433"><ele>149.6</ele><time>2026-05-03T15:39:00Z</time></trkpt><trkpt lat="56.0275010567599" lon="22.19441119929873"><ele>150.2</ele><time>2026-05-03T15:39:02Z</time></trkpt><trkpt lat="56.02759914110821" lon="22.194417458922455"><ele>150.79999999999998</ele><time>2026-05-03T15:39:04Z</time></trkpt><trkpt lat="56.027708348983765" lon="22.194426335744055"><ele>151.4</ele><time>2026-05-03T15:39:06Z</time></trkpt><trkpt lat="56.02782150624257" lon="22.19443504460055"><ele>152.0</ele><time>2026-05-03T15:39:08Z</time></trkpt><trkpt lat="56.0279442030492" lon="22.194440132239293"><ele>152.0</ele><time>2026-05-03T15:39:10Z</time></trkpt><trkpt lat="56.028009714075225" lon="22.194443042334683"><ele>152.0</ele><time>2026-05-03T15:39:11Z</time></trkpt><trkpt lat="56.02807816241829" lon="22.19444577061486"><ele>152.0</ele><time>2026-05-03T15:39:12Z</time></trkpt><trkpt lat="56.02814407586293" lon="22.19445148859264"><ele>152.0</ele><time>2026-05-03T15:39:13Z</time></trkpt><trkpt lat="56.02821322845752" lon="22.194456217338306"><ele>152.0</ele><time>2026-05-03T15:39:14Z</time></trkpt><trkpt lat="56.02828013202034" lon="22.194458945501406"><ele>152.0</ele><time>2026-05-03T15:39:15Z</time></trkpt><trkpt lat="56.02834573311237" lon="22.19446492940076"><ele>152.0</ele><time>2026-05-03T15:39:16Z</time></trkpt><trkpt lat="56.02845772713628" lon="22.194477553111007"><ele>152.0</ele><time>2026-05-03T15:39:18Z</time></trkpt><trkpt lat="56.02856104026076" lon="22.194490801811433"><ele>152.0</ele><time>2026-05-03T15:39:20Z</time></trkpt><trkpt lat="56.028668715578654" lon="22.194491095019043"><ele>152.0</ele><time>2026-05-03T15:39:22Z</time></trkpt><trkpt lat="56.028762801716134" lon="22.19450065004877"><ele>152.0</ele><time>2026-05-03T15:39:24Z</time></trkpt><trkpt lat="56.02885071196933" lon="22.194481191115102"><ele>152.0</ele><time>2026-05-03T15:39:26Z</time></trkpt><trkpt lat="56.02892637211801" lon="22.194513729812115"><ele>152.0</ele><time>2026-05-03T15:39:28Z</time></trkpt><trkpt lat="56.0289962405046" lon="22.19449695069117"><ele>152.0</ele><time>2026-05-03T15:39:30Z</time></trkpt><trkpt lat="56.02907388638963" lon="22.19452867562379"><ele>152.0</ele><time>2026-05-03T15:39:32Z</time></trkpt><trkpt lat="56.029142679165474" lon="22.194531029580848"><ele>152.0</ele><time>2026-05-03T15:39:34Z</time></trkpt><trkpt lat="56.02921166566804" lon="22.19452685147106"><ele>152.0</ele><time>2026-05-03T15:39:36Z</time></trkpt><trkpt lat="56.02932211931762" lon="22.19453038111372"><ele>152.0</ele><time>2026-05-03T15:39:38Z</time></trkpt><trkpt lat="56.02939826167383" lon="22.194531626868034"><ele>151.79999999999998</ele><time>2026-05-03T15:39:39Z</time></trkpt><trkpt lat="56.029506124622635" lon="22.194537116434464"><ele>151.6</ele><time>2026-05-03T15:39:40Z</time></trkpt><trkpt lat="56.029597500033816" lon="22.194539156905332"><ele>151.39999999999998</ele><time>2026-05-03T15:39:41Z</time></trkpt><trkpt lat="56.029705692821864" lon="22.194547266148597"><ele>151.2</ele><time>2026-05-03T15:39:43Z</time></trkpt><trkpt lat="56.02976832332205" lon="22.194570549407178"><ele>151.0</ele><time>2026-05-03T15:39:44Z</time></trkpt><trkpt lat="56.029849153919685" lon="22.194550801672044"><ele>151.0</ele><time>2026-05-03T15:39:45Z</time></trkpt><trkpt lat="56.029979321661216" lon="22.19456521832382"><ele>151.0</ele><time>2026-05-03T15:39:46Z</time></trkpt><trkpt lat="56.03010611614458" lon="22.19456095815516"><ele>151.0</ele><time>2026-05-03T15:39:47Z</time></trkpt><trkpt lat="56.03020106384454" lon="22.194569815193304"><ele>151.0</ele><time>2026-05-03T15:39:48Z</time></trkpt><trkpt lat="56.030288195778255" lon="22.194577758791713"><ele>151.0</ele><time>2026-05-03T15:39:49Z</time></trkpt><trkpt lat="56.03036084604912" lon="22.19458242469498"><ele>151.0</ele><time>2026-05-03T15:39:50Z</time></trkpt><trkpt lat="56.0304349801765" lon="22.194579138196655"><ele>151.0</ele><time>2026-05-03T15:39:51Z</time></trkpt><trkpt lat="56.030506695955616" lon="22.194581128026414"><ele>151.0</ele><time>2026-05-03T15:39:52Z</time></trkpt><trkpt lat="56.03056985529781" lon="22.194584365332346"><ele>151.0</ele><time>2026-05-03T15:39:53Z</time></trkpt><trkpt lat="56.030669879825425" lon="22.194591505778668"><ele>151.0</ele><time>2026-05-03T15:39:55Z</time></trkpt><trkpt lat="56.030739384830035" lon="22.1943530754462"><ele>151.0</ele><time>2026-05-03T15:39:58Z</time></trkpt><trkpt lat="56.03074404943661" lon="22.19419950294725"><ele>151.0</ele><time>2026-05-03T15:40:00Z</time></trkpt><trkpt lat="56.0307510754334" lon="22.19402394747536"><ele>151.0</ele><time>2026-05-03T15:40:02Z</time></trkpt><trkpt lat="56.03075339007081" lon="22.193857369625434"><ele>151.0</ele><time>2026-05-03T15:40:04Z</time></trkpt><trkpt lat="56.03076011608634" lon="22.19369114889312"><ele>151.0</ele><time>2026-05-03T15:40:06Z</time></trkpt><trkpt lat="56.030761698887346" lon="22.193532537677182"><ele>154.0</ele><time>2026-05-03T15:40:08Z</time></trkpt><trkpt lat="56.030760746943855" lon="22.193411474187617"><ele>154.0</ele><time>2026-05-03T15:40:10Z</time></trkpt><trkpt lat="56.03078019454229" lon="22.193300925950826"><ele>154.0</ele><time>2026-05-03T15:40:15Z</time></trkpt></trkseg></trk></gpx>